[[{"header":{"parameterUnit":"m.s-1","parameterCategory":1,"la1":30.6,"la2":29.2853,"lo1":-89.7004,"lo2":-87.6739,"dy":0.0162,"dx":0.0183,"nx":112,"ny":82,"refTime":"2024-05-27T06:00:00:Z","depth":0,"parameterNumber":2,"parameterNumberName":"U-component_of_WINDS"},"data":[0.0,0.0,0.0,0.0,0.0,0.0,0.0,0.0,0.0,0.0,0.0,0.0,0.0,0.0,0.0,0.0,0.0,0.0,0.0,0.0,0.0,0.0,0.0,0.0,0.0,0.0,0.0,0.0,0.0,0.0,0.0,0.0,0.0,0.0,0.0,0.0,0.0,0.0,0.0,0.0,0.0,0.0,0.0,0.0,0.0,0.0,0.0,0.0,0.0,0.0,0.0,0.0,0.0,0.0,0.0,0.0,0.0,0.0,0.0,0.0,0.0,0.0,0.0,0.0,0.0,0.0,0.0,0.0,0.0,0.0,0.0,0.0,0.0,0.0,0.0,0.0,0.0,0.0,0.0,0.0,0.0,0.0,0.0,0.0,0.0,0.0,0.0,0.0,0.0,0.0,-2.5956,-2.7963,-2.9508,-3.0692,-3.1448,-2.991,-2.7825,-2.5271,0.0,0.0,0.0,0.0,0.0,0.0,0.0,0.0,0.0,0.0,0.0,0.0,0.0,0.0,0.0,0.0,0.0,0.0,0.0,0.0,0.0,0.0,0.0,0.0,0.0,0.0,0.0,0.0,0.0,0.0,0.0,0.0,0.0,0.0,0.0,0.0,0.0,0.0,0.0,0.0,0.0,0.0,0.0,0.0,0.0,0.0,0.0,0.0,0.0,0.0,0.0,0.0,0.0,0.0,0.0,0.0,0.0,0.0,0.0,0.0,0.0,0.0,0.0,0.0,0.0,0.0,0.0,0.0,0.0,0.0,0.0,0.0,0.0,0.0,0.0,0.0,0.0,0.0,0.0,0.0,0.0,0.0,0.0,0.0,0.0,0.0,0.0,0.0,0.0,0.0,0.0,0.0,0.0,0.0,0.0,0.0,0.0,0.0,0.0,0.0,0.0,0.0,0.0,0.0,-2.5481,-2.8596,-2.9806,-3.0442,-3.0596,-2.9044,-2.7503,-2.6174,0.0,0.0,0.0,0.0,0.0,0.0,0.0,0.0,0.0,0.0,0.0,0.0,0.0,0.0,0.0,0.0,0.0,0.0,0.0,0.0,0.0,0.0,0.0,0.0,0.0,0.0,0.0,0.0,0.0,0.0,0.0,0.0,0.0,0.0,0.0,0.0,0.0,0.0,0.0,0.0,0.0,0.0,0.0,0.0,0.0,0.0,0.0,0.0,0.0,0.0,0.0,0.0,0.0,0.0,0.0,0.0,0.0,0.0,0.0,0.0,0.0,0.0,0.0,0.0,0.0,0.0,0.0,0.0,0.0,0.0,0.0,0.0,0.0,0.0,0.0,0.0,0.0,0.0,0.0,0.0,0.0,0.0,0.0,0.0,0.0,0.0,0.0,0.0,0.0,0.0,0.0,0.0,0.0,0.0,0.0,0.0,0.0,0.0,0.0,0.0,0.0,0.0,0.0,-2.5035,-2.6617,-2.9492,-3.0154,-3.0404,-3.0404,-2.8852,-2.7264,-2.5747,-2.3572,0.0,0.0,0.0,0.0,0.0,0.0,0.0,0.0,0.0,0.0,0.0,0.0,0.0,0.0,0.0,0.0,0.0,0.0,0.0,0.0,0.0,0.0,0.0,0.0,0.0,0.0,0.0,0.0,0.0,0.0,0.0,0.0,0.0,0.0,0.0,0.0,0.0,0.0,0.0,0.0,0.0,0.0,0.0,0.0,0.0,0.0,0.0,0.0,0.0,0.0,0.0,0.0,0.0,0.0,0.0,0.0,0.0,0.0,0.0,0.0,0.0,0.0,0.0,0.0,0.0,0.0,0.0,0.0,0.0,0.0,0.0,0.0,0.0,0.0,0.0,0.0,0.0,0.0,0.0,0.0,0.0,0.0,0.0,0.0,0.0,0.0,0.0,0.0,0.0,0.0,0.0,0.0,0.0,0.0,0.0,0.0,0.0,0.0,0.0,0.0,0.0,0.0,-2.6734,-2.7883,-3.0165,-3.0404,-3.0327,-3.0115,-2.8563,-2.6801,-2.4988,-2.2277,0.0,0.0,0.0,0.0,0.0,0.0,0.0,0.0,0.0,0.0,0.0,0.0,0.0,0.0,0.0,0.0,0.0,0.0,0.0,0.0,0.0,0.0,0.0,0.0,0.0,0.0,0.0,0.0,0.0,0.0,0.0,0.0,0.0,0.0,0.0,0.0,0.0,0.0,0.0,0.0,0.0,0.0,0.0,0.0,0.0,0.0,0.0,0.0,0.0,0.0,0.0,0.0,0.0,0.0,0.0,0.0,0.0,0.0,0.0,0.0,0.0,0.0,0.0,0.0,0.0,0.0,0.0,0.0,0.0,0.0,0.0,0.0,0.0,0.0,0.0,0.0,0.0,0.0,0.0,0.0,0.0,0.0,0.0,0.0,0.0,0.0,0.0,0.0,0.0,0.0,0.0,0.0,0.0,0.0,0.0,0.0,0.0,0.0,0.0,0.0,0.0,0.0,-2.6865,-2.854,-3.0223,-3.0404,-3.0077,-2.9261,-2.764,-2.5967,-2.4269,-2.103,0.0,0.0,0.0,0.0,0.0,0.0,0.0,0.0,0.0,0.0,0.0,0.0,0.0,0.0,0.0,0.0,0.0,0.0,0.0,0.0,0.0,0.0,0.0,0.0,0.0,0.0,0.0,0.0,0.0,0.0,0.0,0.0,0.0,0.0,0.0,0.0,0.0,0.0,0.0,0.0,0.0,0.0,0.0,0.0,0.0,0.0,0.0,0.0,0.0,0.0,0.0,0.0,0.0,0.0,0.0,0.0,0.0,0.0,0.0,0.0,0.0,0.0,0.0,0.0,0.0,0.0,0.0,0.0,0.0,0.0,0.0,0.0,0.0,0.0,0.0,0.0,0.0,0.0,0.0,0.0,0.0,0.0,0.0,0.0,0.0,0.0,0.0,0.0,0.0,0.0,0.0,0.0,0.0,0.0,0.0,0.0,0.0,0.0,0.0,0.0,0.0,0.0,-2.6068,-2.7769,-2.9415,-3.0077,-3.0038,-2.9165,-2.8068,-2.6452,-2.4245,0.0,0.0,0.0,0.0,0.0,0.0,0.0,0.0,0.0,0.0,0.0,0.0,0.0,0.0,0.0,0.0,0.0,0.0,0.0,0.0,0.0,0.0,0.0,0.0,0.0,0.0,0.0,0.0,0.0,0.0,0.0,0.0,0.0,0.0,0.0,0.0,0.0,0.0,0.0,0.0,0.0,0.0,0.0,0.0,0.0,0.0,0.0,0.0,0.0,0.0,0.0,0.0,0.0,0.0,0.0,0.0,0.0,0.0,0.0,0.0,0.0,0.0,0.0,0.0,0.0,0.0,0.0,0.0,0.0,0.0,0.0,0.0,0.0,0.0,0.0,0.0,0.0,0.0,0.0,0.0,0.0,0.0,0.0,0.0,0.0,0.0,0.0,0.0,0.0,0.0,0.0,0.0,0.0,0.0,0.0,0.0,0.0,0.0,0.0,0.0,0.0,0.0,-2.3706,-2.5798,-2.7544,-2.8953,-2.9621,-2.964,-2.88,-2.7717,-2.5986,-2.3432,0.0,0.0,0.0,0.0,0.0,0.0,0.0,0.0,0.0,0.0,0.0,0.0,0.0,0.0,0.0,0.0,0.0,0.0,0.0,0.0,0.0,0.0,0.0,0.0,0.0,0.0,0.0,0.0,0.0,0.0,0.0,0.0,0.0,0.0,0.0,0.0,0.0,0.0,0.0,0.0,0.0,0.0,0.0,0.0,0.0,0.0,0.0,0.0,0.0,0.0,0.0,0.0,0.0,0.0,0.0,0.0,0.0,0.0,0.0,0.0,0.0,0.0,0.0,0.0,0.0,0.0,0.0,0.0,0.0,0.0,0.0,0.0,0.0,0.0,0.0,0.0,0.0,0.0,0.0,0.0,0.0,0.0,0.0,0.0,0.0,0.0,0.0,0.0,0.0,0.0,0.0,0.0,0.0,0.0,0.0,0.0,0.0,0.0,0.0,0.0,0.0,0.0,-2.3764,-2.6318,-2.8184,-2.8992,-2.9088,-2.8761,-2.7953,-2.6308,-2.4231,0.0,0.0,0.0,0.0,0.0,0.0,0.0,0.0,0.0,0.0,0.0,0.0,0.0,0.0,0.0,0.0,0.0,0.0,0.0,0.0,0.0,0.0,0.0,0.0,0.0,0.0,0.0,0.0,0.0,0.0,0.0,0.0,0.0,0.0,0.0,0.0,0.0,0.0,0.0,0.0,0.0,0.0,0.0,0.0,0.0,0.0,0.0,0.0,0.0,0.0,0.0,0.0,0.0,0.0,0.0,0.0,0.0,0.0,0.0,0.0,0.0,0.0,0.0,0.0,0.0,0.0,0.0,0.0,0.0,0.0,0.0,0.0,0.0,0.0,0.0,0.0,0.0,0.0,0.0,0.0,0.0,0.0,0.0,0.0,0.0,0.0,0.0,0.0,0.0,0.0,0.0,0.0,0.0,0.0,0.0,0.0,0.0,0.0,0.0,0.0,0.0,0.0,0.0,-2.2932,-2.5409,-2.7063,-2.7313,-2.789,-2.7915,-2.7063,-2.6505,-2.5139,-2.2581,0.0,0.0,0.0,0.0,0.0,0.0,0.0,0.0,0.0,0.0,0.0,0.0,0.0,0.0,0.0,0.0,0.0,0.0,0.0,0.0,0.0,0.0,0.0,0.0,0.0,0.0,0.0,0.0,0.0,0.0,0.0,0.0,0.0,0.0,0.0,0.0,0.0,0.0,0.0,0.0,0.0,0.0,0.0,0.0,0.0,0.0,0.0,0.0,0.0,0.0,0.0,0.0,0.0,0.0,0.0,0.0,0.0,0.0,0.0,0.0,0.0,0.0,0.0,0.0,0.0,0.0,0.0,0.0,0.0,0.0,0.0,0.0,0.0,0.0,0.0,0.0,0.0,0.0,0.0,0.0,0.0,0.0,0.0,0.0,0.0,0.0,0.0,0.0,0.0,0.0,0.0,0.0,0.0,0.0,0.0,0.0,0.0,0.0,0.0,0.0,0.0,0.0,-2.2586,-2.5024,-2.6601,-2.6601,-2.7063,-2.7178,-2.664,-2.6269,-2.4986,-2.2447,0.0,0.0,0.0,0.0,0.0,0.0,0.0,0.0,0.0,0.0,0.0,0.0,0.0,0.0,0.0,0.0,0.0,0.0,0.0,0.0,0.0,0.0,0.0,0.0,0.0,0.0,0.0,0.0,0.0,0.0,0.0,0.0,0.0,0.0,0.0,0.0,0.0,0.0,0.0,0.0,0.0,0.0,0.0,0.0,0.0,0.0,0.0,0.0,0.0,0.0,0.0,0.0,0.0,0.0,0.0,0.0,0.0,0.0,0.0,0.0,0.0,0.0,0.0,0.0,0.0,0.0,0.0,0.0,0.0,0.0,0.0,0.0,0.0,0.0,0.0,0.0,0.0,0.0,0.0,0.0,0.0,0.0,0.0,0.0,0.0,0.0,0.0,0.0,0.0,0.0,0.0,0.0,0.0,0.0,0.0,0.0,0.0,0.0,0.0,0.0,0.0,0.0,-2.2586,-2.4947,-2.6486,-2.6486,-2.6486,-2.6486,-2.6486,-2.575,-2.4288,-2.1889,0.0,0.0,0.0,0.0,0.0,0.0,0.0,0.0,0.0,0.0,0.0,0.0,0.0,0.0,0.0,0.0,0.0,0.0,0.0,0.0,0.0,0.0,0.0,0.0,0.0,0.0,0.0,0.0,0.0,0.0,0.0,0.0,0.0,0.0,0.0,0.0,0.0,0.0,0.0,0.0,0.0,0.0,0.0,0.0,0.0,0.0,0.0,0.0,0.0,0.0,0.0,0.0,0.0,0.0,0.0,0.0,0.0,0.0,0.0,0.0,-2.1098,0.0,0.0,0.0,0.0,0.0,0.0,0.0,0.0,0.0,0.0,0.0,0.0,0.0,0.0,0.0,0.0,0.0,0.0,0.0,0.0,0.0,0.0,0.0,0.0,0.0,0.0,0.0,0.0,0.0,0.0,0.0,0.0,0.0,0.0,0.0,0.0,0.0,0.0,0.0,0.0,0.0,-2.2586,-2.4428,-2.5577,-2.5577,-2.5577,-2.5577,-2.5577,-2.5404,-2.4808,-2.3624,-2.21,0.0,0.0,0.0,0.0,0.0,0.0,0.0,0.0,0.0,0.0,0.0,0.0,0.0,0.0,0.0,0.0,0.0,0.0,0.0,0.0,0.0,0.0,0.0,0.0,0.0,0.0,0.0,0.0,0.0,0.0,0.0,0.0,0.0,0.0,0.0,0.0,0.0,0.0,0.0,0.0,0.0,0.0,0.0,0.0,0.0,0.0,0.0,0.0,0.0,0.0,0.0,0.0,0.0,0.0,0.0,0.0,0.0,0.0,0.0,0.0,-2.2189,0.0,0.0,0.0,0.0,0.0,0.0,0.0,0.0,0.0,0.0,0.0,0.0,0.0,0.0,0.0,0.0,0.0,0.0,0.0,0.0,0.0,0.0,0.0,0.0,0.0,0.0,0.0,0.0,0.0,0.0,0.0,0.0,0.0,0.0,0.0,0.0,0.0,0.0,0.0,0.0,-2.2586,-2.425,-2.5308,-2.5308,-2.5308,-2.5308,-2.5308,-2.5308,-2.4966,-2.4149,-2.2855,0.0,0.0,0.0,0.0,0.0,0.0,0.0,0.0,0.0,0.0,0.0,0.0,0.0,0.0,0.0,0.0,0.0,0.0,0.0,0.0,0.0,0.0,0.0,0.0,0.0,0.0,0.0,0.0,0.0,0.0,0.0,0.0,0.0,0.0,0.0,0.0,0.0,0.0,0.0,0.0,0.0,0.0,0.0,0.0,0.0,0.0,0.0,0.0,0.0,0.0,0.0,0.0,0.0,-2.8367,-2.8778,-2.9427,-2.9427,-2.9072,-2.8275,-2.5474,-2.4382,-2.4483,-2.2877,0.0,0.0,0.0,0.0,0.0,0.0,0.0,0.0,0.0,0.0,0.0,0.0,0.0,0.0,0.0,0.0,0.0,0.0,0.0,0.0,0.0,0.0,0.0,0.0,-2.4087,-2.3952,-2.185,0.0,0.0,0.0,0.0,0.0,0.0,0.0,0.0,0.0,0.0,0.0,-2.2816,-2.437,-2.5308,-2.5308,-2.5308,-2.5308,-2.5308,-2.5308,-2.5019,-2.4356,-2.3509,-2.2008,0.0,0.0,0.0,0.0,0.0,0.0,0.0,0.0,0.0,0.0,0.0,0.0,0.0,0.0,0.0,0.0,0.0,0.0,0.0,0.0,0.0,0.0,0.0,0.0,0.0,0.0,0.0,0.0,0.0,0.0,0.0,0.0,-2.1651,-2.1106,0.0,0.0,0.0,0.0,0.0,0.0,0.0,0.0,0.0,0.0,0.0,0.0,0.0,-2.8528,-2.8528,-2.9317,-2.9787,-2.9898,-3.0577,-3.0993,-3.1085,-3.1085,-3.1029,-3.0864,-2.9732,0.0,-2.6172,-2.4557,0.0,0.0,0.0,0.0,0.0,0.0,0.0,0.0,0.0,0.0,0.0,0.0,0.0,0.0,0.0,0.0,0.0,0.0,0.0,0.0,0.0,0.0,-2.6002,-2.6708,-2.6575,-2.6178,0.0,-2.3447,-2.1312,-2.1192,-2.05,0.0,0.0,0.0,0.0,0.0,0.0,0.0,-2.3706,-2.4736,-2.5308,-2.5308,-2.5308,-2.5308,-2.5308,-2.5308,-2.525,-2.5154,-2.4375,-2.3432,-2.2336,-2.0069,0.0,0.0,0.0,0.0,0.0,0.0,0.0,0.0,0.0,0.0,0.0,0.0,0.0,0.0,0.0,0.0,0.0,0.0,0.0,0.0,0.0,0.0,0.0,0.0,0.0,0.0,0.0,0.0,0.0,-2.1837,-2.3272,-2.2527,-2.3444,-2.3572,0.0,0.0,0.0,0.0,0.0,0.0,0.0,0.0,0.0,-2.9781,-3.0173,-3.0779,-3.1696,-3.2045,-3.2449,-3.2894,-3.3243,-3.3408,-3.3408,-3.3408,-3.2926,-3.2045,-3.1702,-3.0687,-2.9145,-2.7071,-2.5686,-2.4805,0.0,0.0,0.0,0.0,-2.3153,-2.3208,-2.3667,-2.3575,-2.318,-2.274,0.0,0.0,0.0,0.0,0.0,0.0,0.0,0.0,0.0,0.0,-2.7253,-2.7446,-2.7406,-2.7157,-2.6519,-2.5323,-2.4082,0.0,-2.2274,-2.1273,-1.9965,0.0,0.0,0.0,0.0,-2.2682,-2.3937,-2.4793,-2.5308,-2.5308,-2.5308,-2.5308,-2.5308,-2.5308,-2.5308,-2.5308,-2.4962,-2.4389,-2.3567,-2.2018,-2.0153,0.0,0.0,0.0,0.0,0.0,0.0,0.0,0.0,0.0,0.0,0.0,0.0,0.0,0.0,0.0,0.0,0.0,0.0,0.0,0.0,0.0,0.0,0.0,0.0,0.0,0.0,0.0,0.0,-2.3004,-2.4592,-2.4036,-2.527,-2.544,0.0,0.0,0.0,0.0,0.0,0.0,-2.8968,-2.9787,-3.0858,-3.2284,-3.2553,-3.322,-3.4431,-3.4431,-3.4743,-3.5334,-3.5334,-3.5334,-3.5334,-3.5334,-3.4564,-3.3206,-3.3206,-3.2651,-3.1531,-2.931,-2.7585,-2.6311,-2.609,-2.5162,-2.3997,-2.4593,-2.4814,-2.4905,-2.5503,-2.5705,-2.5613,-2.5016,-2.374,-2.229,-2.163,0.0,0.0,0.0,0.0,-2.5316,-2.5578,-2.6783,-2.7962,-2.799,-2.805,-2.7896,-2.7039,-2.6908,-2.6428,0.0,-2.3875,-2.2985,-2.1523,0.0,0.0,0.0,0.0,-2.3432,-2.4298,-2.4928,-2.5308,-2.5308,-2.5308,-2.5308,-2.5308,-2.5308,-2.5308,-2.5308,-2.5308,-2.5019,-2.4432,-2.3632,-2.2086,-1.971,0.0,0.0,0.0,0.0,0.0,0.0,0.0,0.0,0.0,0.0,0.0,0.0,0.0,0.0,0.0,0.0,0.0,0.0,0.0,0.0,0.0,0.0,0.0,0.0,0.0,0.0,0.0,0.0,0.0,-2.5491,-2.6793,0.0,0.0,0.0,0.0,-2.8723,-2.9191,-3.0287,-3.2258,-3.3128,-3.3954,-3.4802,-3.5624,-3.6083,-3.6156,-3.6156,-3.6193,-3.6229,-3.6229,-3.6229,-3.6229,-3.6229,-3.5752,-3.4876,-3.4876,-3.3995,-3.2399,-3.076,-2.9574,-2.8748,-2.797,-2.7163,-2.6418,-2.6455,-2.6473,-2.6502,-2.6539,-2.6539,-2.6528,-2.6492,-2.5383,-2.4061,-2.4025,-2.4006,0.0,0.0,-2.5403,-2.6725,-2.7677,-2.8007,-2.8306,-2.9107,-2.9013,-2.8743,-2.8679,-2.8223,-2.7313,0.0,-2.5192,-2.4904,-2.4067,0.0,-2.3918,-2.3918,-2.3975,-2.4336,-2.5135,-2.5269,-2.5308,-2.5308,-2.5308,-2.5308,-2.5308,-2.5308,-2.5308,-2.5308,-2.5308,-2.5288,-2.525,-2.4476,-2.3233,-2.1498,-1.9018,0.0,0.0,0.0,0.0,0.0,0.0,0.0,0.0,0.0,0.0,0.0,0.0,0.0,0.0,0.0,0.0,0.0,0.0,0.0,0.0,0.0,0.0,0.0,0.0,0.0,0.0,0.0,0.0,-2.7791,-2.9499,0.0,-2.9438,-3.0103,-3.0749,-3.1067,-3.2319,-3.3383,-3.411,-3.4945,-3.5771,-3.6578,-3.6923,-3.7327,-3.7845,-3.7845,-3.7845,-3.7845,-3.7845,-3.7569,-3.707,-3.707,-3.6303,-3.5004,-3.5004,-3.438,-3.333,-3.2761,-3.1439,-2.9739,-2.9457,-2.8539,-2.7365,-2.7365,-2.7365,-2.7365,-2.7365,-2.7365,-2.7291,-2.6778,-2.6209,-2.575,-2.575,-2.575,-2.577,-2.5842,-2.6669,-2.7648,-2.8015,-2.8606,-2.9167,-2.9349,-2.9382,-2.9196,-2.8496,-2.8408,-2.8135,-2.6956,-2.6392,-2.5865,-2.5024,-2.487,-2.4697,-2.4187,-2.4548,-2.4981,-2.5269,-2.5308,-2.5308,-2.5308,-2.5308,-2.5308,-2.5308,-2.5308,-2.5308,-2.5308,-2.5308,-2.5308,-2.5308,-2.4579,-2.3625,-2.2453,-2.0536,-1.8255,0.0,0.0,0.0,0.0,0.0,0.0,0.0,0.0,0.0,0.0,0.0,0.0,0.0,0.0,0.0,0.0,0.0,0.0,0.0,0.0,0.0,0.0,0.0,0.0,0.0,0.0,-2.9448,-2.9721,-3.1701,-3.2672,-3.176,-3.2815,-3.3653,-3.3878,-3.5033,-3.5882,-3.6237,-3.6798,-3.7349,-3.7896,-3.7915,-3.8157,-3.8689,-3.8707,-3.8707,-3.8707,-3.8707,-3.8414,-3.7915,-3.7915,-3.7147,-3.583,-3.583,-3.522,-3.4197,-3.4197,-3.2931,-3.1017,-3.1017,-3.0026,-2.8613,-2.8613,-2.8448,-2.8209,-2.8209,-2.8209,-2.8117,-2.7574,-2.7236,-2.6998,-2.6998,-2.6998,-2.6998,-2.6998,-2.7688,-2.8406,-2.8406,-2.8918,-2.9426,-2.931,-2.9435,-2.9401,-2.8696,-2.8842,-2.8932,-2.8347,-2.758,-2.6755,-2.5885,-2.5731,-2.5462,-2.4625,-2.4966,-2.5308,-2.5308,-2.5308,-2.5308,-2.5308,-2.5308,-2.5308,-2.5308,-2.5308,-2.5308,-2.5308,-2.5308,-2.5308,-2.5308,-2.4566,-2.3778,-2.2956,-2.0781,-1.8799,-1.7068,0.0,0.0,0.0,0.0,0.0,0.0,0.0,0.0,0.0,0.0,0.0,0.0,0.0,0.0,0.0,0.0,0.0,0.0,0.0,0.0,0.0,0.0,0.0,-2.7874,-2.921,-3.0497,-3.1241,-3.3237,-3.4324,-3.363,-3.4866,-3.6127,-3.7186,-3.728,-3.7685,-3.8685,-3.875,-3.8765,-3.8781,-3.8762,-3.8744,-3.8744,-3.8707,-3.8707,-3.8707,-3.8707,-3.8707,-3.8707,-3.8707,-3.8267,-3.7492,-3.7492,-3.6541,-3.5004,-3.5004,-3.4069,-3.2619,-3.2601,-3.1629,-3.0246,-3.0246,-2.9721,-2.9042,-2.9042,-2.9023,-2.9005,-2.9005,-2.8473,-2.7842,-2.7842,-2.7842,-2.7842,-2.7842,-2.8411,-2.9005,-2.9005,-2.9005,-2.9005,-2.9005,-2.9211,-2.9392,-2.9392,-2.9561,-2.9696,-2.9696,-2.8748,-2.7687,-2.6822,-2.6649,-2.6341,-2.5519,-2.5365,0.0,-2.5346,-2.5327,-2.5308,-2.5308,-2.5308,-2.5308,-2.5308,-2.5308,-2.5308,-2.5308,-2.5308,-2.5308,-2.5308,-2.4531,-2.3734,-2.2982,-1.9772,-1.8086,-1.8047,0.0,0.0,0.0,0.0,0.0,0.0,0.0,0.0,0.0,0.0,0.0,0.0,0.0,0.0,0.0,0.0,0.0,0.0,0.0,0.0,0.0,-2.8331,-2.9463,-2.9463,-3.1224,-3.2966,-3.423,-3.5436,-3.6429,-3.7123,-3.7541,-3.8049,-3.8735,-3.8795,-3.9088,-3.975,-3.9786,-3.9995,-4.0435,-3.9882,-3.957,-3.957,-3.9001,-3.8707,-3.8707,-3.8707,-3.8707,-3.8707,-3.8707,-3.8267,-3.7492,-3.7492,-3.6541,-3.5004,-3.5004,-3.4399,-3.3421,-3.2821,-3.1971,-3.1072,-3.1072,-3.0558,-2.9879,-2.9879,-2.9482,-2.9005,-2.9005,-2.8858,-2.8675,-2.8675,-2.8675,-2.8675,-2.8675,-2.8822,-2.9005,-2.9005,-2.9005,-2.9005,-2.9005,-2.9062,-2.9112,-2.9112,-2.9301,-2.9474,-2.9474,-2.9329,-2.8996,-2.83,-2.767,-2.7229,-2.7182,-2.6659,0.0,-2.6231,-2.5692,-2.5308,-2.5308,-2.5308,-2.5308,-2.5308,-2.5308,-2.5308,-2.5308,-2.5308,-2.5308,-2.5308,-2.452,-2.3475,-2.2161,-2.1264,-2.0215,0.0,0.0,0.0,0.0,0.0,0.0,0.0,0.0,0.0,0.0,0.0,0.0,0.0,0.0,0.0,0.0,0.0,0.0,0.0,0.0,0.0,0.0,-3.0751,-3.2053,-3.2354,-3.3503,-3.4754,-3.596,-3.706,-3.7997,-3.8705,-3.9054,-3.9301,-3.9524,-3.9743,-3.9888,-3.9865,-4.0074,-4.0366,-4.0701,-4.0281,-4.0145,-4.0396,-3.9606,-3.9203,-3.9203,-3.8854,-3.8707,-3.8707,-3.8707,-3.8432,-3.7991,-3.7991,-3.7074,-3.5536,-3.5536,-3.4871,0.0,0.0,0.0,0.0,0.0,-3.1103,-3.0705,-3.0705,-3.0393,-3.0008,-3.0008,-3.0008,-2.9953,-2.9592,-2.95,-2.9427,-2.9097,-2.9005,-2.9005,-2.9005,-2.9005,-2.9005,-2.9005,-2.9005,-2.9005,-2.9005,-2.9123,-2.9225,-2.9225,-2.9324,0.0,-2.9091,-2.8403,-2.7811,-2.7624,-2.693,-2.6435,-2.6479,-2.5786,-2.5308,-2.5308,-2.5308,-2.5308,-2.5308,-2.5308,0.0,0.0,0.0,-2.5154,-2.4814,-2.4347,0.0,0.0,0.0,0.0,0.0,0.0,0.0,0.0,-2.0625,-2.0449,0.0,0.0,0.0,0.0,0.0,0.0,0.0,0.0,0.0,0.0,0.0,0.0,0.0,0.0,0.0,0.0,-3.3355,-3.5013,-3.5752,-3.5921,-3.6265,-3.6965,-3.8193,-3.9022,-3.9106,-3.9723,-3.999,-3.9755,-4.0228,-4.0275,-3.9711,0.0,0.0,0.0,0.0,-4.0689,-4.1224,-4.0432,-3.9992,-3.9882,-3.9184,-3.8799,-3.8707,-3.8707,-3.8707,-3.8707,-3.8707,-3.7845,-3.6431,-3.634,-3.5312,-3.3807,-3.3807,-3.3366,-3.2638,-3.1935,-3.1592,-3.1462,-3.1462,0.0,0.0,-3.1334,-3.1359,-3.125,-3.0448,-3.021,-3.0026,-2.9225,-2.9005,-2.9005,-2.9005,-2.9005,-2.9005,-2.9005,-2.9005,-2.9005,-2.9005,-2.9005,-2.9005,-2.9005,-2.9005,-2.9078,-2.931,-2.8886,-2.8277,-2.7589,-2.6896,-2.6484,-2.6561,-2.5882,-2.5403,-2.5437,0.0,0.0,-2.5308,-2.5308,-2.5308,-2.5308,-2.5308,-2.4985,-2.4266,-2.4234,-2.393,-2.3248,-2.3331,-2.3719,-2.4394,-2.4492,-2.4551,-2.4492,-2.2227,-2.1953,0.0,0.0,0.0,0.0,0.0,0.0,0.0,0.0,0.0,0.0,0.0,0.0,0.0,0.0,0.0,-3.3609,-3.5272,-3.6626,-3.7364,-3.7973,-3.8396,-3.8548,-3.8819,-3.9225,-3.9842,-4.0028,-4.0078,-4.0025,-4.0131,-4.0538,-4.1305,-4.1434,-4.1918,-4.2828,-4.2223,-4.1946,-4.2066,-4.1277,-4.0543,-3.99,0.0,0.0,-3.8707,-3.8707,-3.8707,-3.8707,-3.8707,-3.8157,-3.7217,-3.656,-3.5312,-3.3807,-3.3807,-3.3697,-3.355,-3.3385,-3.2721,-3.1876,-3.1876,-3.1464,-3.0925,-3.0925,-3.1141,-3.125,-3.0448,-3.021,0.0,-2.9225,-2.9005,-2.9005,-2.9005,-2.9005,-2.9005,-2.9005,-2.9005,-2.9005,-2.9005,-2.9005,-2.9005,-2.9005,-2.9005,-2.9017,-2.9067,-2.9151,-2.9204,-2.9217,-2.8514,-2.8055,-2.8289,-2.6988,-2.6121,-2.6336,-2.5712,-2.5308,-2.5308,-2.5308,-2.5308,-2.5308,-2.5308,-2.524,-2.5067,-2.5124,-2.4772,-2.3999,-2.4726,-2.4872,-2.4394,-2.5117,-2.5449,-2.5449,-2.4941,-2.4512,0.0,0.0,0.0,0.0,0.0,0.0,0.0,0.0,0.0,0.0,0.0,-3.0514,-3.2019,0.0,-3.4917,-3.6011,-3.7161,-3.8024,-3.8396,-3.9089,-3.9394,-3.9039,-3.9326,-3.9706,-4.0062,-4.0096,-4.0096,-4.0096,-4.0343,-4.0625,-4.0938,-4.1486,-4.2062,-4.262,-4.2559,-4.263,-4.2892,-4.2103,-4.1313,-4.0506,-4.0084,-3.9478,-3.8707,-3.8707,-3.8707,-3.8707,-3.8707,-3.823,-3.7401,-3.6156,-3.4796,-3.3508,-3.3508,-3.362,-3.3807,-3.3807,-3.3424,-3.2865,-3.268,-3.2354,-3.1967,-3.1727,-3.1802,-3.1802,-3.0976,-3.0627,-3.0337,-2.9524,-2.9156,-2.9005,-2.9005,-2.9005,-2.9005,-2.9005,-2.9005,-2.9005,-2.9005,-2.9005,-2.9005,-2.9005,-2.9005,-2.9005,-2.9005,-2.9112,-2.9217,-2.9326,-2.8717,-2.8294,-2.8435,-2.7422,-2.6626,-2.6413,-2.601,-2.5623,-2.5336,-2.5308,-2.5308,-2.5308,-2.5308,-2.5308,-2.5308,-2.533,-2.5178,-2.48,-2.5288,-2.5377,-2.4994,-2.5468,-2.5703,-2.5703,-2.5703,-2.5469,0.0,0.0,0.0,0.0,0.0,0.0,0.0,-2.7592,-2.8699,-3.1314,-3.2564,-3.3732,-3.5504,-3.6603,-3.7415,-3.8024,-3.8717,-3.9208,-3.9208,-3.974,-3.9893,-3.9276,-3.974,-4.0096,-4.0096,-4.0096,-4.0096,-4.0096,-4.0497,-4.0601,-4.0262,-4.1127,-4.1729,-4.1958,-4.246,-4.2958,-4.3479,-4.2855,-4.2139,-4.1315,-4.0524,-3.9717,-3.8927,-3.8781,-3.8707,-3.8707,-3.8707,-3.823,-3.7382,-3.5776,-3.4459,-3.3415,-3.3253,-3.3346,-3.3564,-3.3648,-3.3638,-3.349,-3.3184,-3.306,-3.2983,-3.2517,-3.2434,-3.2359,-3.1547,-3.111,-3.07,-2.9749,-2.9243,-2.8974,-2.89,-2.8875,-2.8875,-2.8875,-2.8875,-2.8875,-2.8875,-2.8875,-2.8917,-2.8975,-2.9005,-2.9005,-2.9005,-2.9005,-2.9005,-2.9005,-2.8576,-2.8289,-2.8349,-2.7782,-2.7116,-2.6455,-2.6241,-2.5901,-2.5296,-2.5274,-2.5308,-2.5308,-2.5308,-2.5308,-2.5308,-2.5308,-2.5326,-2.5398,-2.5471,-2.5539,-2.5602,-2.5661,-2.5703,-2.5703,-2.5703,-2.5703,-2.3859,-2.5119,-2.6421,-2.6665,-2.7164,-2.8293,0.0,-3.1655,-3.2161,-3.3795,-3.5289,-3.6372,-3.6626,-3.7828,-3.8768,-3.8853,-3.9503,-3.9977,-3.9977,-4.0045,-4.0079,-3.9994,-4.0045,-4.0096,-4.0096,-4.0096,-4.0096,-4.0096,-4.0171,-4.0368,-4.078,-4.0926,-4.149,-4.2577,-4.2655,-4.2958,-4.3479,-4.3423,-4.2947,-4.2158,-4.1352,-4.0543,-3.9735,-3.9038,-3.8707,-3.8707,-3.8707,-3.823,-3.7389,-3.6087,-3.5031,-3.4192,-3.347,-3.2983,-3.2697,-3.3105,-3.3014,-3.2648,-3.2599,-3.2583,-3.2501,-3.2022,-3.2161,-3.2359,-3.1547,-3.1262,-3.0938,-2.9485,-2.9018,-2.892,-2.8562,-2.8458,-2.8458,-2.8458,-2.8458,-2.8458,-2.8458,-2.8458,-2.8577,-2.8929,-2.9005,-2.9005,-2.9005,-2.9005,-2.9005,-2.9005,-2.8936,-2.8986,-2.9223,-2.8508,-2.7764,-2.7148,-2.6439,-2.5745,-2.5093,-2.5203,-2.5308,-2.5308,-2.5308,-2.5308,-2.5308,-2.5308,-2.5326,-2.5398,-2.5471,-2.5539,-2.5602,-2.5661,-2.5703,-2.5703,-2.5703,-2.5703,-2.5651,-2.6857,-2.7846,-2.8273,-2.9473,-3.0879,-3.2176,-3.3111,-3.4231,-3.6095,-3.733,-3.8217,-3.864,-3.9233,-3.9656,-3.9656,-3.991,-4.0096,-4.0096,-4.0096,-4.0096,-4.0096,-4.0096,-4.0096,-4.0096,-4.0096,-4.0096,-4.0096,-4.0096,-4.0204,-4.0424,-4.0733,-4.1133,-4.1643,-4.2342,-4.2807,-4.3032,-4.3339,-4.3094,-4.2286,-4.148,-4.0689,-3.9863,-3.9074,-3.8707,-3.8707,-3.8707,-3.823,-3.7459,-3.6924,-3.5639,-3.3968,-3.3612,-3.2772,-3.186,-3.284,-3.2905,-3.2467,-3.2196,-3.2127,-3.2074,-3.1601,-3.1582,-3.168,-3.1334,-3.108,-3.0661,-2.9579,-2.9138,-2.8868,-2.8257,-2.8102,-2.8156,-2.8337,-2.825,-2.817,-2.8368,-2.825,-2.821,-2.8577,-2.8658,-2.8737,-2.8952,-2.9005,-2.9005,-2.9005,-2.9005,-2.9051,-2.9156,-2.8853,-2.8209,-2.7128,-2.5987,-2.522,-2.5011,-2.5082,-2.5187,-2.5284,-2.5308,-2.5308,-2.5308,-2.5308,-2.5313,-2.5344,-2.5413,-2.5463,-2.5547,-2.5605,-2.5661,-2.5703,-2.5703,-2.5977,-2.6529,-2.7778,-2.886,-2.9248,-3.1084,-3.2793,-3.2838,-3.4117,-3.5709,-3.7293,-3.8176,-3.892,-3.9673,-3.9808,-3.9859,-4.0079,-4.0096,-4.0096,-4.0096,-4.0096,-4.0096,-4.0096,-4.0096,-4.0096,-4.0096,-4.0096,-4.0096,-4.0096,-4.0096,-4.0096,-4.0096,-4.0473,-4.0733,-4.0903,-4.175,-4.2282,-4.246,-4.2995,-4.2994,-4.2409,-4.1522,-4.0799,-4.0194,-3.9166,-3.8707,-3.8707,-3.8707,-3.8377,-3.779,-3.7445,-3.6007,-3.402,-3.379,-3.2683,-3.1329,-3.2417,-3.2598,-3.2247,-3.1915,-3.1824,-3.1804,-3.1349,-3.119,-3.119,-3.119,-3.0997,-3.0606,-2.9867,-2.933,-2.8854,-2.8205,-2.7898,-2.7794,-2.8043,-2.7904,-2.7794,-2.8043,-2.7922,-2.7837,-2.8197,-2.8264,-2.8342,-2.8651,-2.8761,-2.8839,-2.8839,-2.8929,-2.9005,-2.9005,-2.8601,-2.7963,-2.6931,-2.5566,-2.4756,-2.4858,-2.4955,-2.5052,-2.5208,-2.5269,-2.5308,-2.5308,-2.5308,-2.5308,-2.5308,-2.5367,-2.5418,-2.5463,-2.5558,-2.5611,-2.5682,-2.5937,-2.6406,-2.5794,-2.7465,-2.9398,-2.9457,-3.1502,-3.3465,-3.3465,-3.5171,-3.6755,-3.6829,-3.7415,-3.8159,-3.8886,-3.9022,-3.9259,-3.9994,-4.0096,-4.0096,-4.0096,-4.0096,-4.0096,-4.0096,-4.0096,-4.0096,0.0,-4.0096,-4.0096,-4.0096,-4.0096,-4.0096,-4.0096,-4.0138,-4.0368,-4.088,-4.0926,-4.1246,-4.1832,-4.2422,-4.2713,-4.2676,-4.1625,-4.1077,-4.1003,-3.9423,-3.8707,-3.8707,-3.8707,-3.8689,-3.8566,-3.733,-3.6051,-3.48,-3.3985,-3.2683,-3.1252,-3.1678,-3.1826,-3.1825,-3.1789,-3.1807,-3.1734,-3.1332,-3.119,-3.119,-3.119,-3.1193,-3.1024,-3.0296,-2.957,-2.8916,-2.8489,-2.7858,-2.7334,-2.7332,-2.7334,-2.7334,-2.7332,-2.7334,-2.7441,-2.784,-2.7926,-2.7926,-2.794,-2.821,-2.842,-2.842,-2.8749,-2.9005,-2.9005,-2.7647,-2.6667,-2.6612,-2.5338,-2.4512,-2.4501,-2.4811,-2.501,-2.5016,-2.5198,-2.5308,-2.5308,-2.5308,-2.5308,-2.5308,-2.5367,-2.5406,-2.5397,-2.5541,-2.5602,-2.5622,-2.6541,-2.6973,-2.7758,-2.9846,-3.1582,-3.1496,-3.3615,-3.5318,-3.3893,-3.4865,-3.6072,-3.6072,-3.6298,-3.672,-3.7402,-3.7986,-3.8419,-3.8668,-3.948,-4.0096,-4.0096,-4.0096,-4.0096,-4.0096,-4.0096,0.0,0.0,0.0,0.0,-4.0096,-4.0096,-4.0096,-4.0096,-4.0096,-4.0179,-4.0368,-4.0709,-4.0995,-4.1201,-4.181,-4.2302,-4.2675,-4.1234,-4.0207,-3.9481,-3.8587,-3.8366,-3.8707,-3.8707,-3.8707,-3.8673,-3.8238,-3.7113,-3.5545,-3.4783,-3.3433,-3.189,-3.1521,-3.1391,-3.1391,-3.1391,-3.1391,-3.1389,-3.1232,-3.119,-3.119,-3.119,-3.119,-3.1055,-3.0311,-2.9922,-2.9468,-2.8304,-2.7828,-2.7588,-2.7362,-2.7099,-2.6988,-2.7241,-2.7083,-2.7019,-2.7424,-2.75,-2.7592,-2.7855,-2.7978,-2.8143,-2.8368,-2.8749,-2.9005,-2.9005,-2.8062,-2.7181,-2.6667,-2.5702,-2.494,-2.4524,-2.4596,-2.4741,-2.4869,-2.5011,-2.5099,-2.5099,-2.5224,-2.5308,-2.5308,-2.5327,-2.537,-2.5402,-2.6023,-2.6374,-2.6481,-2.7387,-2.8139,-2.9276,-3.1052,-3.2369,-3.2752,-3.4236,-3.5248,-3.3879,-3.4291,-3.488,-3.4635,-3.4626,-3.4794,-3.5239,-3.5749,-3.6338,-3.7081,-3.7975,-3.8811,-3.9569,-3.9662,-3.9782,-4.007,-4.0096,-4.0096,0.0,0.0,0.0,-4.0096,-4.0096,-4.0096,-4.0096,-4.0096,-4.0096,-4.0096,-4.0424,-4.0607,-4.0607,-4.1178,-4.1735,-4.2205,-4.0721,-3.959,-3.8818,-3.8003,-3.7825,-3.8168,-3.8334,-3.8318,-3.8185,-3.8546,-3.7528,-3.5695,-3.5119,-3.3835,-3.2209,-3.1461,-3.119,-3.119,-3.119,-3.119,-3.119,-3.119,-3.119,-3.119,-3.119,-3.119,-3.1106,-3.0632,-3.0311,-2.9869,-2.8872,-2.8213,-2.7741,-2.7534,-2.7078,-2.6775,-2.7019,-2.6873,-2.6775,-2.7052,-2.7083,-2.7178,-2.7441,-2.7589,-2.7808,-2.817,-2.8438,-2.87,-2.897,-2.8301,-2.7493,-2.6686,-2.5888,-2.5131,-2.4458,-2.4452,-2.4561,-2.4685,-2.4836,-2.4943,-2.5004,-2.5116,-2.5224,-2.5303,-2.5615,-2.5789,-2.5826,-2.6734,-2.7203,-2.7325,-2.8239,-2.8986,-3.0208,-3.1134,-3.2003,-3.3185,-3.3556,-3.3593,-3.3478,-3.348,-3.3316,-3.2638,-3.2437,-3.2414,-3.2489,-3.2594,-3.3308,-3.5364,-3.5824,-3.6616,-3.8683,-3.8962,-3.9246,-4.002,-4.0096,-4.0096,0.0,0.0,0.0,-4.0096,0.0,-4.0096,-4.0096,-4.0096,-4.0096,-4.0096,-4.0096,-4.0096,-4.0096,-4.0631,-4.1047,-4.1337,-4.0139,-3.9413,-3.9066,-3.7825,-3.7245,-3.721,-3.7667,-3.7614,-3.7267,-3.8236,-3.7324,-3.5335,-3.5028,-3.3868,-3.2276,-3.1532,-3.1224,-3.119,-3.119,-3.119,-3.119,-3.119,-3.119,-3.119,-3.119,-3.119,-3.119,-3.119,-3.07,-3.014,-3.0106,-2.9007,-2.7908,-2.7824,-2.7283,-2.6742,-2.6708,-2.6691,-2.6691,-2.6691,-2.6691,-2.6691,-2.6691,-2.702,-2.7411,-2.7811,-2.7869,-2.8134,-2.8839,-2.8292,-2.7504,-2.6687,-2.5902,-2.5097,-2.4299,-2.4384,-2.4486,-2.4486,-2.467,-2.4849,-2.4974,-2.4998,-2.5113,-2.5351,-2.6173,-2.6621,-2.6678,-2.7599,-2.8057,-2.8089,-2.9099,-2.9557,-3.1017,-3.2863,-3.4361,-3.3667,-3.4332,-3.4719,-3.3131,-3.2404,-3.1925,-3.1246,-3.0325,-2.9628,-2.964,-3.0923,-3.2471,-3.4031,-3.6065,-3.7998,-3.9571,-3.9782,-3.9876,-4.007,-4.0096,-4.0096,-4.0096,-4.0096,0.0,0.0,-4.0096,-4.0096,-4.0096,-4.0096,-4.0096,-4.0096,-4.0096,-4.0096,-4.0096,-4.0631,-4.0884,-4.0806,-4.0529,-3.995,-3.9084,-3.8396,-3.7758,-3.7209,-3.7323,-3.7304,-3.7228,-3.7487,-3.701,-3.6052,-3.5434,-3.4332,-3.3034,-3.2293,-3.1684,-3.119,-3.119,-3.119,-3.119,-3.119,-3.119,-3.119,-3.119,-3.119,-3.119,-3.119,-3.1055,-3.0784,-3.0243,-2.9802,-2.921,-2.8077,-2.7655,-2.7367,-2.6826,-2.6691,-2.6691,-2.6691,-2.6691,-2.6691,-2.6691,-2.6791,-2.7004,-2.7378,-2.7454,-2.7634,-2.812,-2.7996,-2.7571,-2.6759,-2.6177,-2.5511,-2.4722,-2.4423,-2.4275,-2.4275,-2.4461,-2.4591,-2.4628,-2.4872,-2.5328,-2.6032,-2.6414,-2.6928,-2.7563,-2.8408,-2.884,-2.8911,-2.9819,-3.03,-3.2647,-3.4152,-3.5307,-3.4207,-3.4347,-3.4174,-3.2102,-3.1172,-3.0372,-2.9098,-2.8238,-2.7625,-2.7352,-2.8965,-3.0908,-3.2615,-3.4926,-3.7262,-3.9306,-3.9584,-3.9688,-4.0045,-4.0096,-4.0096,-4.0096,-4.0096,-4.0096,0.0,-4.0096,-4.0096,-4.0096,-4.0096,-4.0096,-4.0096,-4.0096,-4.0096,-4.0096,-4.0392,-4.0596,-4.0727,-4.0442,-3.9999,-3.9376,-3.8446,-3.7673,-3.7026,0.0,-3.6724,-3.6525,-3.7001,-3.6744,-3.6007,-3.5503,-3.4521,-3.3322,-3.2581,-3.1836,-3.119,-3.119,-3.119,-3.119,-3.119,-3.119,-3.119,-3.119,-3.119,-3.119,-3.119,-3.119,-3.1106,-3.0683,-3.0345,-2.9869,-2.9024,-2.8551,-2.8129,-2.7351,-2.7452,-2.7723,-2.7723,-2.7418,-2.7182,-2.7182,-2.6911,-2.6775,-2.7003,-2.7052,-2.7115,-2.7332,-2.7678,-2.7582,-2.678,-2.6459,-2.5893,-2.49,-2.4922,-2.491,-2.474,-2.4829,-2.493,-2.5026,-2.4877,-2.5079,-2.5729,-2.6221,-2.6946,-2.7895,-2.8703,-2.9319,-2.9743,-3.0263,-3.0548,-3.4354,-3.4981,-3.534,-3.4683,-3.3918,-3.2856,-3.0941,-2.9894,-2.8798,-2.6856,-2.6393,-2.6123,-2.5465,-2.6977,-2.9047,-3.1223,-3.3261,-3.5551,-3.8352,-3.8827,-3.9166,-3.9876,-4.0045,-4.0096,-4.0096,-4.0096,-4.0096,-4.0096,-4.0096,-4.0096,-4.0096,-4.0096,-4.0096,-4.0096,-4.0096,-4.0096,-4.0096,-4.0096,-4.0368,-4.0903,-4.0245,-3.9881,-3.9742,-3.8365,-3.7403,-3.6785,-3.644,-3.6032,-3.5672,-3.6586,-3.644,-3.5577,-3.5418,-3.4542,-3.3322,-3.2682,-3.1921,-3.119,-3.119,-3.119,-3.119,-3.119,-3.119,-3.119,-3.119,-3.119,-3.119,-3.119,-3.119,-3.119,-3.119,-3.0734,-3.0207,-3.0125,-2.96,-2.8942,-2.8128,-2.8501,-2.8993,-2.8993,-2.8349,-2.7807,-2.7807,-2.7199,-2.6691,-2.6691,-2.6691,-2.6691,-2.6691,-2.7319,-2.7475,-2.6782,-2.6651,-2.6171,-2.5082,-2.5608,-2.5848,-2.5494,-2.5428,-2.5492,-2.5643,-2.4906,-2.4737,-2.5234,-2.6054,-2.7045,-2.8189,-2.8904,-2.966,-3.0404,-3.0462,-3.0485,-3.4474,-3.4981,-3.534,-3.4683,-3.3574,-3.2302,-3.0836,-2.916,-2.754,-2.6078,-2.5322,-2.4739,-2.4073,-2.5596,-2.7811,-3.0441,-3.256,-3.4841,-3.7587,-3.8525,-3.8935,-3.9086,-3.9705,-4.0096,-4.0096,-4.0096,0.0,0.0,-4.0096,-4.0096,-4.0096,-4.0096,-4.0096,-4.0096,-4.0096,-4.0096,-4.0096,-4.0096,-4.0368,-4.0903,-4.0764,-4.0383,-3.9759,-3.8903,-3.7885,-3.6761,-3.6034,0.0,-3.5622,-3.5788,-3.5783,-3.5605,-3.5559,-3.4677,-3.3389,-3.3271,-3.2357,-3.119,-3.119,-3.119,-3.119,-3.119,-3.119,-3.119,-3.119,-3.119,-3.119,-3.119,-3.119,-3.119,-3.119,-3.1106,-3.0852,-3.0243,-3.0006,-2.9702,-2.8959,-2.8908,-2.8993,-2.8993,-2.8349,-2.7807,-2.7807,-2.7199,-2.6691,-2.6691,-2.6691,-2.6691,-2.6691,-2.6808,-2.6855,-2.6702,-2.6406,-2.6117,-2.5883,-2.5961,-2.5961,-2.5893,-2.5578,-2.5413,-2.5452,-2.4846,-2.5161,-2.6546,-2.7091,-2.8114,-2.9629,-2.9992,-3.025,-3.0404,-3.0414,-3.0451,-3.4921,-3.525,-3.5265,-3.4218,-3.323,-3.1884,-2.952,-2.8004,-2.6611,-2.4911,-2.4313,-2.3984,-2.3655,-2.5228,-2.728,-2.9332,-3.136,-3.375,-3.6939,-3.7335,-3.7838,-3.9354,-3.9489,-3.9636,-4.0045,-4.0096,-4.0096,-4.0096,-4.0096,-4.0096,-4.0096,-4.0096,-4.0096,-4.0096,-4.0096,-4.0096,-4.0096,-4.0096,-4.0229,-4.0497,-4.0756,-4.0584,-3.9932,-3.9076,-3.8207,-3.7313,-3.6129,-3.56,-3.56,-3.56,-3.56,-3.56,-3.56,-3.4687,-3.3406,-3.3406,-3.2476,-3.119,-3.119,-3.119,-3.119,-3.119,-3.119,-3.119,-3.119,-3.119,-3.119,-3.119,-3.119,-3.119,-3.119,-3.119,-3.1106,-3.0768,-3.0378,-3.0125,-3.0125,-2.9837,-2.9685,-3.0057,-2.9211,-2.8416,-2.8416,-2.7469,-2.6691,-2.6691,-2.6691,-2.6691,-2.6691,-2.6691,-2.6691,-2.6691,-2.6534,-2.6335,-2.6124,-2.6454,-2.6663,-2.6639,-2.6426,-2.6231,-2.6025,-2.5345,-2.518,-2.564,-2.629,-2.7251,-2.8544,-2.9235,-2.9781,-3.0196,-3.0323,-3.0425,-3.513,-3.5385,-3.519,-3.3829,-3.2901,-3.1465,-2.8319,-2.6986,-2.5854,-2.3984,-2.3595,-2.3595,-2.3595,-2.5009,-2.6676,-2.8217,-2.991,-3.2261,-3.574,-3.5841,-3.6507,-3.907,-3.9086,0.0,-3.9782,-3.9995,0.0,-4.0096,-4.0096,-4.0096,-4.0096,-4.0096,-4.0096,-4.0096,-4.0096,-4.0096,-4.0096,-4.0096,-4.0096,-4.0113,-4.0546,-4.0521,-4.007,-3.9009,-3.8294,-3.7821,-3.6259,-3.56,-3.56,-3.56,-3.56,-3.56,-3.56,-3.4687,-3.3406,-3.3406,-3.2476,-3.119,-3.119,-3.119,-3.119,-3.119,-3.119,-3.119,-3.119,-3.119,-3.119,-3.119,-3.119,-3.119,-3.119,-3.119,-3.119,-3.119,-3.0768,-3.0497,-3.1072,-3.0636,-3.0306,-3.0878,-2.982,-2.8811,-2.8811,-2.7636,-2.6691,-2.6691,-2.6691,-2.6691,-2.6691,-2.6691,-2.6691,-2.6691,-2.6691,-2.657,-2.626,-2.688,-2.7282,-2.7214,-2.6977,-2.6796,-2.6732,-2.5795,-2.5175,-2.4956,-2.5614,-2.6419,-2.7395,-2.8298,-2.917,-3.0006,-3.0209,-3.0349,-3.4593,-3.5026,-3.519,-3.3829,-3.2557,-3.0883,-2.8214,-2.6602,-2.53,-2.3894,-2.3595,-2.3595,-2.3595,-2.4252,-2.5423,-2.737,-2.8368,-3.0033,-3.3365,-3.4398,-3.5317,-3.6732,-3.8101,0.0,-3.8989,-3.9662,-4.0096,-4.0096,-4.0096,-4.0096,-4.0096,-4.0096,-4.0096,-4.0096,-4.0096,-4.0096,-4.0096,-4.0096,-4.0096,-4.0096,-4.0146,-4.0146,-4.0045,-3.8621,-3.7953,-3.7821,-3.6259,-3.56,0.0,-3.56,-3.56,-3.56,-3.56,-3.4687,-3.3406,-3.3406,-3.2476,-3.119,-3.119,-3.119,-3.119,-3.119,-3.119,-3.119,-3.119,-3.119,-3.119,-3.119,-3.119,-3.119,-3.119,-3.119,-3.119,-3.119,-3.114,-3.1106,-3.119,-3.071,-3.0311,-3.0377,-2.92,-2.819,-2.819,-2.7371,-2.6691,-2.6691,-2.6691,-2.6691,-2.6691,-2.6691,-2.6691,-2.6691,-2.6691,-2.6691,-2.664,-2.7049,-2.7299,-2.7289,-2.6261,-2.6091,-2.7109,-2.5742,-2.5416,-2.6376,-2.6664,-2.7186,-2.8026,-2.8361,-2.903,-3.0006,-3.0021,-3.0176,-3.4189,-3.4681,-3.4666,-3.3724,-3.2497,-3.0808,-2.8199,-2.6557,-2.5226,-2.3879,-2.3595,-2.3595,-2.3595,-2.3819,-2.438,-2.56,-2.6363,-2.7826,-3.0807,-3.1769,-3.3141,-3.578,-3.7018,-3.7981,0.0,0.0,-4.0096,-4.0096,-4.0096,-4.0096,-4.0096,-4.0096,-4.0096,-4.0096,-4.0096,-4.0096,-4.0096,-4.0096,-4.0096,-4.0096,-4.0096,-3.9876,-3.9394,-3.8379,-3.7669,-3.7178,-3.6073,-3.56,0.0,-3.56,-3.56,-3.56,-3.56,-3.4687,-3.3406,-3.3406,-3.2476,-3.119,-3.119,-3.119,-3.119,-3.119,-3.119,-3.119,-3.119,-3.119,-3.119,-3.119,-3.119,-3.119,-3.119,-3.119,-3.119,-3.119,-3.0918,-3.0658,-3.0658,-3.0187,-2.9761,-2.9761,-2.8611,-2.762,-2.762,-2.6879,-2.6279,-2.6279,-2.6279,-2.6279,-2.6279,-2.5998,-2.5926,-2.6228,-2.6522,-2.6691,-2.6691,-2.6841,-2.7035,-2.727,-2.6847,-2.677,-2.7174,-2.6141,-2.5658,-2.5878,-2.6432,-2.688,-2.7194,-2.8445,-2.9242,-2.9634,-2.9893,-3.0061,-3.317,-3.3888,-3.4054,-3.3365,-3.2213,-3.0554,-2.8154,-2.6557,-2.5226,-2.3879,-2.3595,-2.3595,-2.3595,-2.3595,-2.3819,-2.4485,-2.5158,-2.6563,-2.9289,-3.0152,-3.1663,-3.4748,0.0,-3.673,-3.8144,-3.9382,-4.0096,-4.0096,-4.0096,-4.0096,-4.0096,-4.0096,-4.0096,-4.0096,-4.0096,-4.0096,-4.0096,-4.0096,-4.0096,-4.0096,-4.0096,-3.9723,-3.8971,-3.8244,-3.7499,-3.6761,-3.596,-3.56,0.0,-3.56,-3.56,-3.56,-3.56,-3.4687,-3.3406,-3.3406,-3.2476,-3.119,-3.119,-3.119,-3.119,-3.119,-3.119,-3.119,-3.119,-3.119,-3.119,-3.119,-3.119,-3.119,-3.119,-3.119,-3.119,-3.119,-3.074,-3.0293,-3.0293,-2.9695,-2.9134,-2.9134,-2.8009,-2.7042,-2.7042,-2.6324,-2.5815,-2.5995,-2.587,-2.5815,-2.5995,-2.5524,-2.5335,-2.5726,-2.6192,-2.6556,-2.6691,-2.6691,-2.6808,-2.7099,-2.6924,-2.6922,-2.7224,-2.6488,-2.5978,-2.58,-2.6446,-2.6783,-2.6783,-2.8226,-2.9089,-2.9412,-2.9696,-2.9893,-3.1346,-3.2512,-3.335,-3.2691,-3.1509,-2.9998,-2.8049,-2.6557,-2.5226,-2.3879,-2.3595,-2.3595,-2.3595,-2.3595,-2.3819,-2.4485,-2.5158,-2.6542,-2.9217,-3.0103,-3.124,0.0,-3.4237,-3.5256,-3.6698,-3.8804,-4.0096,-4.0096,-4.0096,0.0,-4.0096,-4.0096,-4.0096,-4.0096,-4.0096,-4.0096,-4.0096,-4.0096,-4.0096,-4.0096,-4.0096,-3.9723,-3.8971,-3.8244,-3.7499,-3.6761,-3.596,-3.56,0.0,-3.56,-3.56,-3.56,-3.56,-3.4687,-3.3406,-3.3406,-3.2476,-3.119,-3.119,-3.119,-3.119,-3.119,-3.119,-3.119,-3.119,-3.119,-3.119,-3.119,-3.119,-3.119,-3.119,-3.119,-3.119,-3.119,-3.074,-3.0293,-3.0293,-2.9361,-2.8511,-2.8511,-2.7372,-2.6399,-2.6399,-2.5742,-2.5392,-2.5924,-2.5559,-2.5392,-2.5924,-2.5524,-2.5202,-2.5221,-2.5689,-2.6209,-2.6657,-2.6691,-2.6691,-2.6708,-2.6015,-2.6107,-2.7251,-2.6588,-2.635,-2.6674,-2.7023,-2.7181,-2.7181,-2.7604,-2.8363,-2.9402,-2.9412,-2.9626,-2.934,-3.0163,-3.0657,-2.9998,-2.916,-2.8124,-2.6572,-2.5555,-2.4664,-2.3789,-2.3595,-2.3595,-2.3595,-2.3595,-2.3969,-2.5098,-2.5854,-2.6901,-2.8667,-3.0238,0.0,-3.2706,-3.4682,-3.6607,0.0,0.0,-3.9516,-4.0045,-4.0096,-4.0096,-4.0096,-4.0096,-4.0096,-4.0096,-4.0096,-4.0096,-4.0096,-4.0096,-4.0096,-4.0096,-3.9605,-3.8954,-3.8227,-3.7483,-3.6721,-3.5977,-3.5701,-3.56,-3.56,-3.56,-3.56,-3.56,-3.56,-3.5008,-3.4083,-3.3592,-3.278,-3.1887,-3.136,-3.119,-3.119,-3.119,-3.119,-3.119,-3.119,-3.119,-3.119,-3.119,-3.0898,-3.0679,-3.1095,-3.0898,-3.058,-3.058,-3.0123,-2.9563,-2.9157,-2.8448,-2.7748,-2.7279,-2.6468,-2.5704,-2.5251,-2.4883,-2.4697,-2.4875,-2.4756,-2.4697,-2.4875,-2.443,-2.4246,-2.4612,-2.4812,-2.5262,-2.6156,-2.6521,-2.6691,-2.6691,-2.6471,-2.6635,-2.727,-2.6545,-2.631,-2.6678,-2.6797,-2.685,-2.685,-2.7763,-2.8611,-2.9402,-2.9402,-2.9533,-2.759,-2.8323,-2.8753,-2.8334,-2.7735,-2.6941,-2.5854,-2.5083,-2.441,-2.3744,-2.3595,-2.3595,-2.3595,-2.3595,-2.3864,-2.4717,-2.5615,-2.6692,-2.8023,0.0,0.0,-3.2751,0.0,0.0,0.0,-3.8334,-3.8924,-4.002,-3.9808,-3.9782,-4.007,-4.0096,-4.0096,-4.0096,-4.0096,-4.0096,-4.0096,-4.0096,-4.0096,-4.0096,-3.9368,-3.8616,-3.7872,-3.7151,-3.6349,-3.56,-3.56,-3.56,0.0,-3.56,-3.56,-3.56,-3.56,-3.5165,-3.4404,-3.3677,-3.2933,-3.2192,-3.1464,-3.119,-3.119,-3.119,-3.119,-3.119,-3.119,-3.119,-3.119,-3.119,-3.0918,-3.0679,-3.0818,-3.058,-3.0251,-3.0,-2.9496,-2.8966,-2.8583,-2.8018,-2.7405,-2.6746,-2.6063,-2.5382,-2.4724,-2.4312,-2.4178,-2.4369,-2.4241,-2.4163,-2.4369,-2.3927,-2.373,-2.4053,-2.4266,-2.4672,-2.5335,-2.5837,-2.6024,-2.576,-2.5991,-2.6217,-2.643,-2.6179,-2.6269,-2.6683,-2.6845,-2.6935,-2.6935,-2.7784,-2.8491,-2.9027,-2.9027,-2.9225,0.0,-2.6821,-2.7315,-2.7315,-2.6821,-2.6153,-2.56,-2.4978,0.0,-2.3729,-2.3595,-2.361,-2.367,-2.3625,-2.3655,-2.3849,-2.4926,-2.6228,0.0,-2.9475,0.0,0.0,-3.479,0.0,-3.6713,-3.7348,-3.8346,-3.9825,-3.9289,-3.9236,-3.9978,-4.007,-4.0096,-4.0096,-4.0096,-4.0096,-4.0096,-4.0096,-4.0079,-4.0011,-3.9259,-3.8531,-3.7804,-3.7043,-3.6299,0.0,-3.56,-3.56,-3.56,-3.56,-3.56,-3.56,-3.56,-3.5182,-3.4472,-3.3694,-3.2966,-3.2276,-3.1461,-3.119,-3.119,-3.119,-3.119,-3.119,-3.119,-3.119,-3.119,-3.1151,-3.1112,-3.0938,-3.0393,-3.0208,-3.0038,-2.9473,-2.8919,-2.8487,-2.8439,-2.7993,-2.739,-2.6686,-2.6033,-2.5367,-2.4649,-2.4007,-2.3773,-2.4266,-2.3921,-2.3773,-2.4266,-2.3921,-2.3595,-2.3595,-2.4053,-2.4348,-2.4348,-2.4855,-2.4932,-2.431,-2.4852,-2.5139,-2.5023,-2.5615,-2.6174,-2.6641,-2.7051,-2.7272,-2.7303,-2.7681,-2.8034,-2.835,-2.8394,-2.8742,-2.3541,0.0,-2.4537,-2.4537,-2.4081,-2.3706,0.0,-2.3954,-2.3789,-2.3625,-2.3595,-2.3759,-2.4261,-2.3954,-2.4268,-2.6327,-2.6926,-2.7764,-2.9564,-3.1539,0.0,-3.4861,-3.5306,-3.5826,-3.6564,-3.678,-3.7293,-3.8262,-3.869,-3.8989,-3.9166,-3.9782,-4.0096,-4.0096,-4.0096,-4.0096,-4.0096,-4.0096,-3.9825,-3.9242,-3.8514,-3.777,-3.7032,-3.6248,-3.5769,-3.56,-3.56,-3.56,-3.56,-3.56,-3.56,-3.56,-3.56,-3.5481,-3.5177,-3.3897,-3.3288,-3.2966,-3.1647,-3.119,-3.119,-3.119,-3.119,-3.119,-3.119,-3.119,-3.1095,-3.0638,-3.0187,-2.9783,-2.9651,-2.9271,-2.8896,-2.8748,-2.8606,-2.8367,-2.791,-2.7685,-2.7255,-2.6063,-2.5719,-2.5226,-2.4044,-2.3699,-2.3638,-2.3773,-2.3681,-2.3638,-2.3773,-2.3681,-2.3595,-2.3595,-2.3709,-2.3794,-2.3794,-2.4672,-2.5122,-2.4981,-2.5106,-2.5195,-2.515,-2.5295,-2.5617,-2.6156,-2.6607,-2.7004,-2.7303,-2.7394,-2.7634,-2.802,-2.829,-2.8478,-2.2328,-2.2912,-2.3595,-2.3595,-2.3595,-2.358,-2.3595,-2.3385,-2.3197,-2.3197,-2.3197,-2.337,-2.4007,-2.4096,-2.4619,-2.6393,-2.721,-2.8498,0.0,0.0,-3.3993,-3.534,-3.5504,-3.5782,0.0,-3.6306,-3.6554,-3.769,-3.8177,-3.8553,-3.8881,-3.9662,-4.0096,-4.0096,-4.0096,-4.0096,-4.0096,-4.0096,-3.974,-3.8988,-3.8261,-3.7499,-3.6778,-3.5977,-3.56,-3.56,-3.56,-3.56,-3.56,-3.56,-3.56,-3.56,-3.56,-3.538,-3.4962,-3.3829,-3.3186,-3.273,-3.1579,-3.119,-3.119,-3.119,-3.119,-3.119,-3.119,-3.1015,-3.072,-3.0393,-2.9886,-2.9339,-2.9042,-2.8732,-2.8415,-2.8165,-2.8091,-2.7917,-2.7285,-2.7151,-2.6737,-2.5397,-2.5128,-2.4799,-2.3774,-2.3595,-2.3595,-2.3595,-2.3595,-2.3595,-2.3595,-2.3595,-2.3595,-2.3595,-2.3595,-2.3595,-2.3595,-2.4137,-2.4346,-2.4071,-2.43,-2.4451,-2.4378,-2.4677,-2.5202,-2.5979,-2.6453,-2.6808,-2.7019,-2.7019,-2.7241,-2.7619,-2.7805,-2.8002,-2.1934,-2.2712,-2.358,-2.349,-2.3969,-2.4291,-2.3729,-2.3191,-2.2838,-2.2838,-2.2838,-2.3062,-2.3774,-2.4365,0.0,0.0,0.0,0.0,-3.2392,-3.329,-3.4098,-3.5355,-3.5504,0.0,-3.6353,-3.5863,-3.6053,-3.7354,-3.7544,-3.7876,-3.8509,-3.9411,-3.9927,-3.9927,-3.9944,-3.9943,-3.9943,-3.9943,-3.9571,-3.8819,-3.8075,-3.733,-3.6586,-3.5904,-3.56,-3.56,0.0,0.0,-3.56,-3.56,-3.5532,-3.543,-3.5549,-3.5076,-3.4252,-3.3643,-3.2933,-3.2192,-3.1464,-3.119,-3.119,-3.119,-3.119,-3.119,-3.119,-3.072,-3.0166,-3.0166,-2.9717,-2.9111,-2.8511,-2.8367,-2.8238,-2.771,-2.76,-2.742,-2.6737,-2.6587,-2.6198,-2.4859,-2.4605,-2.4395,-2.3714,-2.3595,-2.3595,-2.3595,-2.3595,-2.3595,-2.3595,-2.3595,-2.3595,-2.3595,-2.3595,-2.3595,-2.3595,-2.3595,-2.337,-2.2868,-2.331,-2.3553,-2.3434,-2.4039,-2.4831,-2.5726,-2.6314,-2.659,-2.659,-2.6539,-2.6771,-2.721,-2.7167,-2.738,-2.2269,-2.3056,-2.3475,-2.2972,-2.3295,-2.3729,-2.3625,-2.3535,-2.346,-2.346,-2.346,0.0,0.0,-2.539,-2.6228,0.0,0.0,-3.2317,0.0,0.0,-3.4622,-3.5415,0.0,-3.5522,-3.5651,-3.5569,-3.5587,-3.5829,-3.643,-3.6843,-3.6948,-3.8314,-3.9086,-3.9086,-3.9126,-3.9157,-3.9157,-3.9157,-3.8802,-3.8075,-3.7313,-3.6552,-3.5769,-3.565,-3.56,-3.56,0.0,-3.56,-3.56,-3.56,-3.5228,-3.4726,-3.5368,-3.4771,-3.3558,-3.344,-3.2933,-3.2192,-3.1464,-3.119,-3.119,-3.119,-3.119,-3.119,-3.119,-3.0435,-2.954,-2.954,-2.9088,-2.8511,-2.7894,-2.7735,-2.771,-2.7625,-2.76,-2.742,-2.6737,-2.6587,-2.6198,-2.4859,-2.4605,-2.4395,-2.3714,-2.3595,-2.3595,-2.3595,-2.3595,-2.3595,-2.3595,-2.3595,-2.3595,-2.3595,-2.3595,-2.3595,-2.3595,-2.3595,-2.355,-2.346,-2.355,-2.3593,-2.3573,-2.4096,-2.4491,-2.4652,-2.5598,-2.612,-2.612,-2.5883,-2.6115,-2.6791,-2.6509,-2.6742,-2.1011,-2.2074,-2.3062,-2.2763,-2.4245,-2.5683,-2.53,-2.4941,-2.4687,-2.4687,0.0,0.0,0.0,0.0,-2.7545,-3.0208,0.0,-3.338,-3.4369,-3.4503,-3.4758,0.0,0.0,-3.5504,-3.5504,-3.5504,-3.5504,-3.5504,-3.6196,-3.6445,-3.6073,-3.7141,-3.7785,-3.7781,-3.7425,-3.7643,-3.8413,-3.7625,-3.7256,-3.7297,-3.6965,-3.6366,-3.56,-3.56,-3.56,-3.56,0.0,-3.5363,-3.5013,-3.5013,-3.4573,-3.3947,-3.4286,-3.3761,-3.2747,-3.2357,-3.1985,-3.1667,-3.1309,-3.119,-3.119,-3.119,-3.119,-3.119,-3.119,-3.0372,-2.9406,-2.9406,-2.8717,-2.7944,-2.766,-2.76,-2.76,-2.76,-2.76,-2.7315,-2.6273,-2.6063,-2.5659,-2.4306,-2.4073,-2.3947,-2.3655,-2.3595,-2.3595,-2.3595,-2.3595,-2.3595,-2.3595,-2.3595,-2.3595,-2.3595,-2.3595,-2.3595,-2.3595,-2.3595,-2.3595,-2.3595,-2.3595,-2.3595,-2.3595,-2.4116,-2.441,-2.441,-2.5182,-2.5707,-2.6013,-2.5877,-2.6117,-2.6708,-2.6549,-2.644,-2.0471,-2.152,-2.2733,-2.2882,-2.4934,-2.6866,-2.6632,-2.6078,-2.5689,-2.6004,0.0,0.0,0.0,-2.7275,0.0,-3.1555,-3.2961,-3.3963,-3.4653,-3.4711,-3.4906,-3.5444,-3.5504,-3.5504,-3.5504,-3.5504,-3.5504,-3.5504,-3.5886,-3.5891,-3.5369,-3.5964,-3.6321,-3.631,-3.5814,-3.6144,-3.7362,-3.6099,-3.5889,-3.6795,-3.6609,-3.6197,-3.56,-3.56,-3.5498,-3.5329,-3.5329,-3.4928,-3.4235,-3.4235,-3.3812,-3.3169,-3.3339,-3.2949,-3.2209,-3.1461,-3.119,-3.119,-3.119,-3.119,-3.119,-3.119,-3.119,-3.119,-3.119,-3.0372,-2.9406,-2.9406,-2.8543,-2.76,-2.76,-2.76,-2.76,-2.76,-2.76,-2.724,-2.5899,-2.5615,-2.5211,-2.3864,-2.3595,-2.3595,-2.3595,-2.3595,-2.3595,-2.3595,-2.3595,-2.3595,-2.3595,-2.3595,-2.3595,-2.3595,-2.3595,-2.3595,-2.3595,-2.3595,-2.3595,-2.3595,-2.3595,-2.3595,-2.3595,-2.3991,-2.4204,-2.4204,-2.4736,-2.5221,-2.5633,-2.558,-2.5832,-2.635,-2.5999,-2.5698,-2.2164,-2.2583,-2.2838,-2.3385,-2.4193,-2.5128,-2.6318,-2.6078,-2.5959,-2.721,0.0,0.0,0.0,-2.8996,-3.0956,-3.3021,-3.3948,-3.4668,-3.5325,0.0,-3.5444,-3.5489,-3.5504,-3.5504,-3.5504,-3.5504,-3.5504,-3.5504,-3.497,-3.4643,-3.4598,-3.4755,-3.4852,-3.4847,-3.48,-3.5127,-3.5836,-3.5069,-3.5397,-3.6795,-3.6045,-3.565,-3.56,-3.56,-3.5233,-3.4573,-3.4573,-3.4167,-3.3491,-3.3491,-3.3034,-3.2446,-3.3136,-3.2949,-3.2209,-3.1461,-3.119,-3.119,-3.119,-3.119,-3.119,-3.119,-3.119,-3.119,-3.119,-3.0372,-2.9406,-2.9406,-2.8543,-2.76,-2.76,-2.76,-2.76,-2.76,-2.76,-2.724,-2.5899,-2.5615,-2.5211,-2.3864,-2.3595,-2.3595,-2.3595,-2.3595,-2.3595,-2.3595,-2.3595,-2.3595,-2.3595,-2.3595,-2.3595,-2.3595,-2.3595,-2.3595,-2.3595,-2.3595,-2.3595,-2.3595,-2.3595,-2.3595,-2.3595,-2.3638,-2.3659,-2.3659,-2.4163,-2.4491,-2.4496,-2.4335,-2.4615,-2.5284,-2.3963,-2.3886,-2.1321,-2.2074,-2.2748,-2.2987,-2.4148,0.0,0.0,-2.7675,-2.8457,-2.9759,-2.9699,0.0,0.0,0.0,-3.163,-3.3245,-3.4038,-3.4711,-3.5415,-3.5504,-3.5504,-3.5504,-3.5504,-3.5504,-3.5504,-3.5504,-3.5325,-3.4906,-3.4653,-3.4159,-3.3305,-3.3306,-3.3339,-3.3377,-3.2946,-3.3255,-3.4392,-3.37,-3.3854,-3.4824,-3.5358,-3.5385,-3.4988,-3.5407,-3.5199,-3.4489,-3.4489,-3.3812,-3.2733,-3.2733,-3.2293,-3.165,-3.1918,-3.185,-3.1562,-3.1292,-3.119,-3.119,-3.119,-3.0938,-3.0699,-3.1092,-3.0955,-3.0638,-3.0638,-3.0059,-2.9316,-2.8943,-2.8247,-2.76,-2.76,-2.76,-2.76,-2.76,-2.7285,-2.6746,-2.5809,-2.5262,-2.4694,-2.3789,-2.3595,-2.3595,-2.3595,-2.3595,-2.3595,-2.3595,-2.3595,-2.3595,-2.3595,-2.3595,-2.3465,-2.3076,-2.2665,-2.2583,-2.3009,-2.3031,-2.3187,-2.3573,-2.3595,-2.3595,-2.3595,-2.3595,-2.3595,-2.3595,-2.3794,-2.4074,-2.441,-2.4307,-2.4397,-2.4567,-2.4019,-2.3549,-2.1021,-2.1829,-2.2703,-2.2703,0.0,0.0,-2.6944,-2.8434,-3.0013,-3.1496,-3.1084,-3.0582,-3.1034,0.0,0.0,0.0,-3.3873,-3.4397,-3.5085,-3.5175,-3.5175,-3.5175,-3.5175,-3.5265,-3.5489,-3.531,-3.4981,-3.4533,-3.4129,-3.3469,-3.2557,-3.2288,-3.2221,-3.2231,-3.1768,-3.2076,-3.3261,-3.2815,-3.2841,-3.3287,-3.4423,-3.4847,-3.46,-3.4841,-3.465,-3.4134,-3.3918,-3.3106,-3.1955,-3.1955,-3.1667,-3.119,-3.119,-3.119,-3.119,-3.119,-3.119,-3.119,-3.119,-3.0801,-3.0372,-3.0781,-3.0497,-3.0016,-3.0016,-2.9585,-2.9019,-2.863,-2.8067,-2.76,-2.76,-2.76,-2.76,-2.76,-2.7091,-2.6408,-2.5749,-2.5068,-2.4395,-2.3729,-2.3595,-2.3595,-2.3595,-2.3443,-2.3312,-2.3312,-2.3128,-2.3002,-2.3002,-2.3002,-2.2846,-2.2429,-2.1969,-2.1899,-2.2346,-2.2369,-2.2552,-2.298,-2.3209,-2.3399,-2.3595,-2.3595,-2.3595,-2.3595,-2.3595,-2.3773,-2.4158,-2.4158,-2.4008,-2.373,-2.351,-2.2844,-2.1695,-2.2173,-2.2703,-2.2703,-2.4163,-2.5705,-2.6193,-2.802,-3.0163,-3.2093,-3.1336,-3.0772,-3.2244,-3.0763,0.0,-3.3048,-3.3484,-3.3709,-3.4414,-3.4503,-3.4503,-3.4503,-3.4503,-3.4741,-3.5429,-3.4861,-3.4503,-3.4488,-3.3245,-3.2512,-3.2497,-3.1854,-3.1511,-3.1511,-3.1511,-3.1853,-3.2586,-3.2586,-3.2586,-3.2586,-3.3261,-3.3921,-3.4543,-3.3827,-3.3439,-3.3334,-3.2594,-3.1887,-3.119,-3.119,-3.119,-3.119,-3.119,-3.119,-3.119,-3.119,-3.119,-3.119,-3.119,-3.0797,-3.0293,-3.0293,-2.9908,-2.9384,-2.9384,-2.8966,-2.8487,-2.8487,-2.8067,-2.76,-2.76,-2.76,-2.76,-2.7585,-2.7091,-2.6408,-2.5749,-2.5053,-2.4395,-2.3729,-2.3595,-2.3595,-2.3595,-2.3113,-2.2694,-2.2694,-2.2123,-2.1697,-2.1697,-2.1697,-2.1697,-2.1697,-2.1697,-2.1673,-2.1697,-2.1697,-2.1697,-2.1697,-2.2323,-2.2965,-2.3573,-2.3595,-2.3595,-2.3595,-2.3595,-2.3595,-2.3595,-2.3595,-2.3266,-2.2673,-2.1994,-2.1542,-2.1695,-2.1851,-2.2185,-2.2981,-2.4336,-2.5679,-2.6608,-2.8423,0.0,0.0,-3.3101,-3.3238,-3.3215,-3.2318,0.0,-3.3289,-3.3095,-3.3036,-3.3694,-3.3784,-3.3784,-3.3784,-3.3784,-3.3858,-3.4068,-3.3903,-3.3589,-3.3125,-3.2736,-3.2288,-3.1824,-3.1615,-3.1511,-3.1511,-3.1511,-3.1611,-3.1824,-3.1824,-3.1583,-3.1127,-3.1317,-3.1816,-3.2507,-3.2762,-3.2546,-3.1981,-3.1765,-3.1491,-3.119,-3.119,-3.119,-3.1151,-3.074,-3.0559,-3.0559,-3.0559,-3.0559,-3.0638,-3.1055,-3.0518,-2.9739,-3.0166,-2.9607,-2.8756,-2.8756,-2.8638,-2.8415,-2.7993,-2.7735,-2.76,-2.76,-2.76,-2.748,-2.7016,-2.6378,-2.5719,-2.5038,-2.4365,-2.3849,-2.364,-2.3595,-2.3465,-2.3031,-2.2807,-2.2543,-2.2077,-2.1828,-2.1697,-2.1697,-2.1342,-2.1077,-2.1077,-2.0645,-2.0546,-2.1028,-2.1077,-2.1245,-2.1673,-2.1899,-2.2285,-2.2942,-2.3377,-2.3595,-2.3595,-2.3187,-2.3179,-2.3595,-2.2687,-2.218,-2.1984,-2.1321,-2.0708,-2.1963,-2.2207,-2.2683,-2.3822,-2.491,-2.6042,-2.7304,-2.9108,-3.0955,0.0,-3.2995,-3.3175,-3.3109,-3.2272,0.0,-3.293,-3.2766,-3.2647,-3.3051,-3.3095,-3.3095,-3.3095,-3.3095,-3.3215,-3.3469,-3.326,-3.2946,-3.2542,-3.2243,-3.1929,-3.1525,-3.1511,-3.1511,-3.1511,-3.1511,-3.1511,-3.1511,-3.1241,-3.0883,-3.0507,-3.0253,-3.0244,-3.0424,-3.1058,-3.1246,-3.1044,-3.0729,-3.056,-3.0497,-3.074,-3.0838,-3.0818,-3.0456,-3.0293,-3.0272,-3.0038,-2.9935,-3.0038,-3.0638,-3.0059,-2.9134,-2.9739,-2.9134,-2.814,-2.814,-2.814,-2.8067,-2.771,-2.76,-2.76,-2.76,-2.7405,-2.7106,-2.6692,-2.6093,-2.5435,-2.4754,-2.4066,-2.3595,-2.3595,-2.3595,-2.3421,-2.2807,-2.2475,-2.2077,-2.1438,-2.1124,-2.0939,-2.0939,-2.0633,-2.0396,-2.0396,-2.0055,-1.9952,-2.0371,-2.0396,-2.0467,-2.0609,-2.1075,-2.1438,-2.1616,-2.2409,-2.2854,-2.2854,-2.2483,-2.2392,-2.2527,-2.1755,-2.1248,-2.0981,-2.0563,-2.0146,-2.2269,-2.2856,-2.3628,-2.486,-2.5707,-2.6573,-2.8,-2.9646,-3.1088,-3.1804,0.0,-3.1449,-3.2302,-3.1259,-3.0739,-3.2154,-3.2258,-3.2199,-3.2303,-3.2303,-3.2333,-3.2392,-3.2392,-3.2662,-3.326,-3.2781,-3.2392,-3.2392,-3.1839,-3.1511,-3.1511,-3.1511,-3.1511,-3.1511,-3.1451,-3.1406,-3.1406,-3.0761,-3.0387,-3.0328,-2.9759,-2.9172,-2.8528,-2.9144,-2.9741,-3.0279,-2.9678,-2.9406,-2.9451,-2.9995,-3.0208,-3.0208,-3.0166,-3.0145,-3.0081,-2.9518,-2.9316,-2.9406,-3.0016,-2.9451,-2.8583,-2.9134,-2.8543,-2.76,-2.76,-2.76,-2.76,-2.76,-2.7555,-2.751,-2.751,-2.7016,-2.6482,-2.6422,-2.5959,-2.5322,-2.4649,-2.4022,-2.3595,-2.3595,-2.3595,-2.3399,-2.2717,-2.21,-2.1472,-2.082,-2.0207,-1.9798,-1.9798,-1.9798,-1.9798,-1.9798,-1.9798,-1.9786,-1.9736,-1.9773,-1.956,-1.8958,-2.0009,-2.0392,-1.9861,-2.105,-2.1697,-2.1697,-2.1608,-2.1318,-2.09,-2.073,-2.0362,-1.9832,-1.9755,-1.9677,-2.1635,-2.1858,-2.2418,-2.4458,-2.5699,-2.6516,-2.6845,-2.7721,-2.875,-2.9848,-3.0587,-3.1297,-3.2113,-3.1073,-3.039,-3.1348,-3.0511,-2.9995,-3.0697,-3.0788,-3.1012,-3.1647,-3.172,-3.1765,-3.1914,-3.1795,-3.172,-3.172,-3.1585,-3.1511,-3.1511,-3.1511,-3.1511,-3.1511,-3.0972,-3.0731,-3.0731,-3.0103,-2.952,-2.9011,-2.8876,-2.8442,-2.7839,-2.8493,-2.8849,-2.8951,-2.9266,-2.9406,-2.9406,-2.954,-2.9585,-2.954,-2.9065,-2.8896,-2.8873,-2.8732,-2.8685,-2.8779,-2.9384,-2.9111,-2.8511,-2.8654,-2.8198,-2.76,-2.76,-2.76,-2.76,-2.76,-2.7225,-2.6821,-2.6821,-2.6318,-2.5689,-2.5158,-2.4918,-2.4634,-2.3969,-2.3699,-2.3595,-2.3595,-2.3595,-2.3238,-2.2109,-2.1805,-2.1328,-2.0194,-1.9901,-1.9798,-1.9798,-1.9798,-1.9798,-1.9798,-1.9798,-1.9635,-1.9208,-1.9572,-1.9397,-1.8418,-1.9017,-1.9141,-1.8607,-2.0597,-2.1697,-2.1697,-2.0823,-2.0539,-2.09,-1.9462,-1.8954,-1.9271,-1.8721,-1.8467,-2.1372,-2.1572,-2.2086,-2.4296,-2.5661,-2.6499,-2.6499,-2.6816,-2.7296,-2.7911,-2.9127,-3.0169,-3.0588,-3.0033,-2.9664,-3.0094,-2.9512,-2.916,-2.9597,-2.9659,-2.9981,-3.0837,-3.0925,-3.1087,-3.1467,-3.1511,-3.1511,-3.1511,-3.1511,-3.1511,-3.1511,-3.1511,-3.1346,-3.1017,-3.0687,-3.0357,-3.0058,-2.943,-2.8951,-2.8607,-2.8263,-2.7944,-2.76,-2.7974,-2.8107,-2.8091,-2.84,-2.8543,-2.8567,-2.885,-2.8966,-2.8943,-2.863,-2.8487,-2.8463,-2.8189,-2.8067,-2.8165,-2.8756,-2.8567,-2.8116,-2.8407,-2.7878,-2.718,-2.7495,-2.7151,-2.6692,-2.7031,-2.6632,-2.6123,-2.6123,-2.563,-2.5023,-2.4694,-2.4605,-2.441,-2.3744,-2.3595,-2.3595,-2.3595,-2.3595,-2.3194,-2.1908,-2.1183,-2.0557,-1.9901,-1.9798,-1.9798,-1.9798,-1.9798,-1.9798,-1.9798,-1.9798,-1.9698,-1.9396,-1.9384,-1.9083,-1.8254,-1.8456,-1.8392,-1.784,-1.9246,-2.0022,-2.0022,-1.9688,-1.9415,-1.922,-1.8282,-1.7956,-1.8235,-1.7882,-1.7847,-2.1029,-2.1506,-2.2222,-2.4293,-2.5573,-2.6373,-2.6474,-2.6499,-2.6499,-2.6499,-2.7604,-2.862,-2.8748,-2.8652,-2.862,-2.8748,-2.8652,-2.862,-2.8748,-2.878,-2.9097,-2.9981,-3.0072,-3.0329,-3.0999,-3.1058,-3.1117,-3.1278,-3.1278,-3.1351,-3.1511,-3.1391,-3.1062,-3.0522,-3.0298,-2.9924,-2.9415,-2.8757,-2.8427,-2.8412,-2.7869,-2.76,-2.76,-2.76,-2.76,-2.76,-2.76,-2.76,-2.765,-2.814,-2.8343,-2.8343,-2.8343,-2.8343,-2.8271,-2.7785,-2.76,-2.766,-2.8165,-2.8018,-2.7685,-2.8189,-2.7537,-2.6692,-2.727,-2.6557,-2.5719,-2.6273,-2.5944,-2.5435,-2.5435,-2.4933,-2.4425,-2.4425,-2.4425,-2.4276,-2.3729,-2.3595,-2.3595,-2.3595,-2.3428,-2.2935,-2.1885,-2.0632,-1.9798,-1.9798,-1.9798,-1.9798,-1.9798,-1.9798,-1.9798,-1.9798,-1.9798,-1.9761,-1.9673,-1.9259,-1.8719,-1.8103,-1.8066,-1.7815,-1.7262,-1.7765,-1.8016,-1.7915,-1.8431,-1.8318,-1.7549,-1.7348,-1.7215,-1.7146,-1.7146,-1.7415,-1.997,-2.109,-2.261,-2.4368,-2.5272,-2.585,-2.6386,-2.6499,-2.6499,0.0,-2.6692,-2.704,-2.7769,-2.7284,-2.7074,-2.7769,-2.7284,-2.7061,-2.7769,-2.7855,-2.8214,-2.9066,-2.916,-2.9223,-2.9317,-2.9317,-2.9659,-3.0389,-3.045,-3.0777,-3.1467,-3.0943,-3.0597,-3.0507,-2.943,-2.8816,-2.8727,-2.8079,-2.7735,-2.7735,-2.7645,-2.76,-2.76,-2.76,-2.76,-2.76,-2.76,-2.76,-2.7625,-2.7685,-2.771,-2.771,-2.771,-2.771,-2.771,-2.7625,-2.76,-2.761,-2.7685,-2.7675,-2.761,-2.7685,-2.7225,-2.6626,-2.6692,-2.6198,-2.563,-2.5719,-2.5247,-2.4739,-2.4739,-2.4231,-2.3729,-2.3729,-2.3729,-2.3714,-2.3625,-2.3595,-2.3595,-2.3595,-2.2719,-2.1885,-2.172,-2.0632,-1.9798,-1.9798,-1.9798,-1.9798,-1.9798,-1.9798,-1.9798,-1.9798,-1.9798,-1.9623,-1.9146,-1.9045,-1.8569,-1.7574,-1.7511,-1.7237,-1.6638,-1.7187,-1.725,-1.6738,-1.7313,-1.7765,-1.8091,-1.7112,-1.6619,-1.6616,-1.6616,-1.6659,-1.9696,-2.0577,-2.1794,-2.3434,-2.4293,-2.4921,-2.582,-2.6009,-2.6009,-2.6009,-2.6009,-2.6211,-2.6909,-2.6748,-2.6624,-2.6973,-2.6714,-2.6624,-2.6973,-2.704,-2.7351,-2.8182,-2.8266,-2.846,-2.8939,-2.873,-2.8708,-2.909,-2.9184,-2.9407,-2.9737,-2.9896,-2.9819,-2.9445,-2.8891,-2.8412,-2.8049,-2.775,-2.76,-2.76,-2.76,-2.76,-2.76,-2.76,-2.76,-2.76,-2.76,-2.76,-2.76,-2.76,-2.76,-2.76,-2.76,-2.76,-2.76,-2.76,-2.76,-2.76,-2.76,-2.76,-2.76,-2.76,-2.6896,-2.6108,-2.6482,-2.56,-2.4567,-2.4933,-2.456,-2.4036,-2.4036,-2.3819,-2.3595,-2.3595,-2.3595,-2.3595,-2.3595,-2.3595,-2.3595,-2.3595,-2.2583,-2.1697,-2.1697,-2.0632,-1.9798,-1.9798,-1.9798,-1.9798,-1.9798,-1.9798,-1.9798,-1.9798,-1.9798,-1.971,-1.9459,-1.9171,-1.8795,-1.8342,-1.7727,-1.7285,-1.7011,-1.6936,-1.6936,-1.6999,-1.725,-1.7338,-1.7262,-1.6738,-1.65,-1.65,-1.65,-1.65,-1.9418,-1.9817,-2.0465,-2.2096,-2.3037,-2.3853,-2.4933,0.0,-2.5398,0.0,-2.5398,-2.5523,-2.5996,-2.6185,-2.6273,-2.6273,-2.6399,-2.6499,-2.6499,-2.6499,-2.6714,-2.7317,-2.7384,-2.7571,-2.8082,-2.776,-2.756,-2.767,-2.7755,-2.7896,-2.8097,-2.8547,-2.8641,-2.8329,-2.8151,-2.7928,-2.76,-2.76,-2.76,-2.76,-2.76,-2.76,-2.76,-2.76,-2.76,-2.76,-2.76,-2.76,-2.76,-2.76,-2.76,-2.76,-2.76,-2.7495,-2.736,-2.754,-2.748,-2.7375,-2.754,-2.748,-2.7375,-2.754,-2.6572,-2.5457,-2.6138,-2.5061,-2.3699,-2.4201,-2.3999,-2.3595,-2.3595,-2.3595,-2.3595,-2.3595,-2.3595,-2.3595,-2.3595,-2.3486,-2.3377,-2.3377,-2.2354,-2.1472,-2.1472,-2.0546,-1.9798,-1.9798,-1.9798,-1.9798,-1.9798,-1.9798,-1.9798,-1.9798,-1.9798,-1.9798,-1.9798,-1.9309,-1.9008,-1.9008,-1.7938,-1.7272,-1.7159,-1.6524,-1.6438,-1.6935,-1.6948,-1.6878,-1.6735,-1.6563,-1.65,-1.65,-1.6324,-1.6259,-1.8796,-1.8634,-1.8731,-2.0415,-2.1606,-2.2698,-2.3816,0.0,-2.4825,-2.4825,-2.4825,-2.4838,-2.4863,-2.531,-2.5636,-2.5636,-2.6135,-2.6499,-2.6499,-2.6499,-2.6521,-2.6555,-2.6555,-2.6375,-2.582,-2.5731,-2.5884,-2.6193,-2.6206,-2.6563,-2.7329,-2.6843,-2.6877,-2.7543,-2.6951,-2.6948,-2.76,-2.76,-2.76,-2.76,-2.76,-2.76,-2.76,-2.76,-2.76,-2.76,-2.76,-2.76,-2.76,-2.76,-2.76,-2.76,-2.76,-2.721,-2.6746,-2.736,-2.721,-2.6746,-2.7375,-2.718,-2.6752,-2.739,-2.6258,-2.4784,-2.5442,-2.4702,-2.361,-2.364,-2.3625,-2.3595,-2.3595,-2.3595,-2.3595,-2.3595,-2.3595,-2.3595,-2.3595,-2.3143,-2.2754,-2.2754,-2.1728,-2.0845,-2.0845,-2.0245,-1.9798,-1.9798,-1.9798,-1.9798,-1.9798,-1.9798,-1.9798,-1.9798,-1.9798,-1.9798,-1.9798,-1.9309,-1.9008,-1.9008,-1.7824,-1.6919,-1.6466,-1.575,-1.5474,-1.568,-1.569,-1.6244,-1.736,-1.6785,-1.65,-1.65,-1.5908,-1.5654,-1.8755,-1.8311,-1.799,-1.9296,-2.0162,-2.1004,-2.2133,-2.3088,-2.371,-2.371,-2.401,-2.418,-2.3785,-2.4449,-2.5096,-2.5096,-2.5548,-2.59,-2.59,-2.626,-2.6499,-2.6499,-2.6499,-2.6273,-2.5649,-2.5297,-2.4987,-2.4776,-2.4853,-2.5076,-2.5343,-2.5613,-2.5897,-2.6147,-2.6385,-2.6642,-2.6878,-2.7357,-2.7357,-2.6904,-2.7382,-2.76,-2.76,-2.76,-2.736,-2.6971,-2.6971,-2.6971,-2.7001,-2.742,-2.7345,-2.6971,-2.6971,-2.6821,-2.6572,-2.6378,-2.6437,-2.6557,-2.6378,-2.6437,-2.6581,-2.6378,-2.5555,-2.4649,-2.4889,-2.4306,-2.3595,-2.3595,-2.3595,-2.3595,-2.3595,-2.3595,-2.3595,-2.3595,-2.3595,-2.3486,-2.3113,-2.2852,-2.2566,-2.2146,-2.1379,-2.0795,-2.0795,-2.0245,-1.9798,-1.9798,-1.9798,-1.9798,-1.9798,-1.9798,-1.9798,-1.9798,-1.9798,-1.9798,-1.9798,-1.9623,-1.9497,-1.9497,-1.8321,-1.7548,-1.7383,-1.6314,-1.5637,-1.5416,-1.5416,-1.5856,-1.6823,-1.66,-1.6303,-1.5908,-1.5698,-1.5387,-1.8324,0.0,-1.7363,-1.8456,-1.8983,-1.961,-2.0943,-2.1782,-2.241,-2.2757,-2.3133,-2.3376,-2.3145,-2.3722,-2.4286,-2.4519,-2.4996,-2.5335,-2.5335,-2.5674,-2.5946,-2.5946,-2.5946,-2.5686,-2.5121,-2.4745,-2.4318,-2.3753,-2.3821,0.0,-2.3884,-2.4352,-2.4753,-2.5007,-2.5755,-2.6122,-2.6122,-2.6628,-2.6733,-2.651,-2.6788,-2.7015,-2.727,-2.7046,-2.6701,-2.6258,-2.6258,-2.6378,-2.6617,-2.7091,-2.7136,-2.6926,-2.6701,-2.6452,-2.6213,-2.5764,-2.5749,-2.5899,-2.5689,-2.5749,-2.5899,-2.5674,-2.4978,-2.4306,-2.453,-2.4126,-2.3595,-2.3595,-2.3595,-2.3595,-2.3595,-2.3595,-2.3595,-2.3595,-2.3595,-2.3363,-2.2529,-2.2369,-2.2184,-2.152,-2.0892,-2.0446,-2.0446,-2.0093,-1.9798,-1.9798,-1.9798,-1.9798,-1.9798,-1.9798,-1.9798,-1.9798,-1.9798,-1.9798,-1.9798,-1.9798,-1.9723,-1.9547,-1.8428,-1.765,-1.7338,-1.6207,-1.5474,-1.5252,-1.5067,-1.5353,-1.6098,-1.5973,-1.5776,-1.5588,-1.5174,-1.4778,0.0,0.0,0.0,0.0,0.0,0.0,-2.0226,0.0,-2.0955,-2.202,-2.2246,-2.2406,-2.2957,-2.3058,-2.3246,-2.3853,-2.4418,-2.4763,-2.4763,-2.4775,-2.4788,-2.4788,-2.4788,-2.4575,-2.4054,-2.4004,-2.3753,-2.3145,-2.3108,-2.3108,-2.3108,-2.3108,-2.3484,-2.4263,-2.4979,-2.5356,-2.5342,-2.537,-2.5713,-2.6385,-2.5739,-2.5806,-2.6479,-2.5851,-2.5553,-2.5546,-2.5523,-2.5896,-2.6527,-2.6557,-2.6941,-2.745,-2.6806,-2.6138,-2.557,-2.5555,-2.5128,-2.4694,-2.5307,-2.5128,-2.4709,-2.5337,-2.4657,-2.3729,-2.4365,-2.4133,-2.3595,-2.3595,-2.3595,-2.3595,-2.3595,-2.3595,-2.3573,-2.3595,-2.3588,-2.3238,-2.1955,-2.1697,-2.152,-2.0881,-2.0258,-1.9798,-1.9798,-1.9798,-1.9798,-1.9798,-1.9798,-1.9798,-1.9798,-1.9798,-1.9798,-1.9798,-1.9798,-1.9798,-1.9773,-1.9798,-1.9559,-1.9033,-1.8137,-1.718,-1.6292,-1.5314,-1.4892,-1.5086,-1.4622,-1.4672,-1.527,-1.4898,-1.4983,-1.5521,-1.4342,-1.3768,-1.7442,0.0,0.0,0.0,0.0,0.0,0.0,0.0,-1.9673,-2.0351,-2.0828,-2.132,-2.1845,-2.1945,-2.2121,-2.2686,-2.359,-2.423,-2.423,-2.4569,-2.4788,-2.4788,-2.4788,-2.4575,-2.4054,-2.4004,-2.3753,0.0,-2.3108,-2.3108,-2.3108,-2.3108,-2.3484,-2.4263,-2.4509,-2.4381,-2.3968,-2.4463,-2.4393,-2.3688,-2.4034,-2.4284,-2.45,-2.4316,-2.4224,-2.4203,-2.3698,-2.4124,-2.5187,-2.5689,-2.5704,-2.5397,-2.5217,-2.5038,-2.4814,-2.4343,-2.4335,-2.456,-2.4268,-2.4335,-2.4545,-2.4253,-2.3909,-2.3625,-2.3819,-2.3744,-2.3595,-2.3595,-2.3595,-2.3595,-2.3595,-2.329,-2.3054,-2.3486,-2.3268,-2.2725,-2.1875,-2.1697,-2.1376,-2.0295,-1.9927,-1.9798,-1.9798,-1.9798,-1.9798,-1.9798,-1.9798,-1.9798,-1.9798,-1.9798,-1.9798,-1.9798,-1.9798,-1.9579,-1.9044,-1.9501,-1.9517,-1.8825,-1.8043,-1.7482,-1.7214,-1.5941,-1.5124,-1.4884,-1.441,-1.4338,-1.4662,-1.4676,-1.456,-1.4272,-1.3515,-1.3152,0.0,0.0,0.0,0.0,0.0,0.0,-1.7614,-1.8041,-1.8555,0.0,-1.9924,-2.0503,-2.1069,-2.1358,-2.1594,-2.192,-2.2711,-2.3376,-2.3602,-2.3885,-2.4086,-2.4086,-2.4086,-2.396,-2.3634,-2.364,-2.3471,-2.3133,-2.3108,-2.3108,-2.3108,-2.3108,-2.3191,-2.3447,-2.3476,-2.3192,-2.2609,-2.3025,-2.3044,-2.2591,-2.2759,-2.2997,-2.3261,-2.2998,-2.2864,-2.2838,-2.2442,-2.2705,-2.3418,-2.3818,-2.4376,-2.4955,-2.4428,-2.4385,-2.4492,-2.3563,-2.3629,-2.4126,-2.3744,-2.3864,-2.4111,-2.3729,-2.3595,-2.3595,-2.3595,-2.3595,-2.3595,-2.3595,-2.3595,-2.3595,-2.3595,-2.3143,-2.2785,-2.3143,-2.2748,-2.2114,-2.1462,-2.1318,-2.1026,-1.9991,-1.9798,-1.9798,-1.9798,-1.9798,-1.9798,-1.9798,-1.9798,-1.9798,-1.9798,-1.9798,-1.9798,-1.9798,-1.9527,-1.9176,-1.8741,-1.8821,-1.8593,-1.7946,-1.7439,-1.7048,-1.6825,-1.5906,-1.5293,-1.5049,-1.4619,-1.434,-1.4261,-1.4056,-1.3766,-1.342,-1.3055,-1.2905,0.0,0.0,0.0,0.0,0.0,0.0,-1.7815,-1.7689,-1.7664,0.0,-1.9208,-1.971,-2.0314,-2.0817,-2.1142,-2.1204,-2.1669,-2.2243,-2.292,-2.3058,-2.3108,-2.3108,-2.3108,-2.3108,-2.3108,-2.3108,-2.3108,-2.3108,-2.3108,-2.3108,-2.3108,-2.3045,-2.2794,-2.2334,-2.2246,-2.1958,-2.1405,-2.1393,-2.1701,-2.2286,-2.1681,-2.1727,-2.2353,-2.1766,-2.153,-2.1615,-2.1506,-2.1578,-2.1697,-2.1639,-2.3008,-2.5044,-2.3925,-2.3847,-2.4253,-2.313,-2.3031,-2.3508,-2.3508,-2.3508,-2.3508,-2.3508,-2.3551,-2.3595,-2.3595,-2.3551,-2.3508,-2.3508,-2.3551,-2.3573,-2.3508,-2.3054,-2.2603,-2.2603,-2.2077,-2.1448,-2.0919,-2.0795,-2.0597,-1.9927,-1.9798,-1.9798,-1.9798,-1.9798,-1.9798,-1.9798,-1.9798,-1.9798,-1.9798,-1.9798,-1.9798,-1.9798,-1.915,-1.8661,-1.8581,-1.7988,-1.7361,-1.6793,-1.6586,-1.6276,-1.5825,-1.5548,-1.541,-1.541,-1.5,-1.457,-1.4104,-1.3379,-1.3023,-1.2974,-1.2974,-1.2954,-1.8156,0.0,0.0,0.0,0.0,0.0,-1.6989,-1.7124,-1.7461,0.0,-1.7813,-1.8052,-1.8581,-1.8769,-1.8995,-1.9409,-1.9949,-2.0803,-2.2243,-2.2832,-2.3108,-2.3108,-2.3108,-2.3108,-2.3108,-2.3108,-2.3108,-2.3108,-2.3108,-2.3108,-2.3108,-2.2681,-2.2393,-2.2309,-2.1882,-2.1408,-2.0855,-2.0855,-2.0696,-2.0347,-2.0219,-2.0233,-2.0348,-2.0233,-2.0459,-2.0955,-2.0408,-2.0756,-2.1649,-2.1186,-2.155,-2.2437,-2.2193,-2.2493,-2.3041,-2.2797,-2.2762,-2.2875,-2.2875,-2.2875,-2.2875,-2.2875,-2.3187,-2.3595,-2.3595,-2.3268,-2.2875,-2.2875,-2.3224,-2.3486,-2.3009,-2.2392,-2.1899,-2.1899,-2.1414,-2.093,-2.082,-2.0795,-2.0597,-1.9927,-1.9798,-1.9798,-1.9798,-1.9798,-1.9798,-1.9798,-1.9798,-1.9798,-1.9798,-1.9798,-1.9798,-1.9798,-1.915,-1.8463,-1.7879,-1.7688,-1.7296,-1.6598,-1.6525,-1.6451,-1.6357,-1.5737,-1.541,-1.541,-1.5,-1.457,-1.4104,-1.3938,-1.3695,-1.3389,-1.3389,-1.3203,-1.8489,0.0,0.0,-1.7865,0.0,0.0,0.0,-1.6948,-1.7036,-1.7348,-1.741,-1.7574,-1.8103,-1.8204,-1.8292,-1.8556,-1.9045,-1.9685,-2.0525,-2.1619,-2.2309,-2.2309,-2.2309,-2.2422,-2.2669,-2.2694,-2.2807,-2.3083,-2.3108,-2.3108,-2.3108,-2.2581,-2.2184,-2.1907,-2.1395,-2.083,-2.0264,-2.0264,-2.0087,-1.9798,-1.9798,-1.9798,-1.9798,-1.9798,-1.9978,-2.0283,-1.9952,-2.0156,-2.0731,-2.0434,-2.0484,-2.0781,-2.1124,-2.1629,-2.2146,-2.1856,-2.1927,-2.2193,-2.2193,-2.2193,-2.2193,-2.2193,-2.24,-2.2651,-2.2651,-2.2446,-2.2276,-2.2603,-2.268,-2.2651,-2.2694,-2.1974,-2.1245,-2.1245,-2.0758,-2.0295,-2.0295,-2.0295,-2.0207,-1.9875,-1.9798,-1.9798,-1.9798,-1.9798,-1.9798,-1.9798,-1.9798,-1.9798,-1.9798,-1.9798,-1.9798,-1.9798,-1.8821,-1.8015,-1.7633,-1.694,-1.6358,-1.5979,-1.595,-1.595,-1.595,-1.5613,-1.541,-1.541,-1.5205,-1.499,-1.4747,-1.4747,-1.4416,-1.3792,-1.3578,-1.3389,0.0,0.0,0.0,0.0,0.0,-1.7762,0.0,0.0,0.0,-1.7137,-1.7234,0.0,0.0,0.0,0.0,0.0,0.0,0.0,0.0,-1.9949,0.0,-2.132,-2.1358,-2.1543,-2.2096,-2.2058,-2.2221,-2.2744,-2.2694,-2.2681,-2.2782,-2.2297,-2.1794,-2.137,-2.0817,-2.0302,-1.9811,-1.9798,-1.9798,-1.9798,-1.9798,-1.9798,-1.9798,-1.9798,-1.9798,-1.9798,-1.9798,-1.9798,-1.9798,-1.9798,-1.9798,-1.985,-2.0396,-2.0991,-2.1472,-2.0979,-2.1113,-2.152,-2.152,-2.152,-2.152,-2.152,-2.1615,-2.1673,-2.1568,-2.1615,-2.1781,-2.2221,-2.203,-2.1805,-2.2221,-2.1561,-2.0771,-2.0635,-2.0207,-1.9798,-1.9798,-1.9798,-1.9798,-1.9798,-1.9798,-1.9798,-1.9798,-1.9798,-1.9798,-1.9798,-1.9798,-1.9798,-1.9798,-1.9798,-1.9798,-1.9798,-1.8474,-1.7605,-1.7605,-1.6244,-1.541,-1.541,-1.541,-1.541,-1.541,-1.541,-1.541,-1.541,-1.541,-1.541,-1.541,-1.541,-1.501,-1.4221,-1.3906,-1.3662,0.0,0.0,0.0,0.0,-1.9233,0.0,0.0,0.0,-1.7162,-1.671,0.0,0.0,0.0,0.0,0.0,0.0,0.0,0.0,-1.7564,-1.8154,-1.912,-2.0616,-2.0779,-2.1006,-2.1531,-2.1169,-2.1106,-2.1631,-2.1257,-2.1182,-2.1656,-2.1182,-2.0842,-2.0792,-2.02,-1.9874,-1.9798,-1.9798,-1.9798,-1.9798,-1.9798,-1.9798,-1.9798,-1.9798,-1.9798,-1.9798,-1.9798,-1.9798,-1.9798,-1.9798,-1.9798,-1.9798,-1.9875,-2.0321,-2.0894,-2.082,-2.0845,-2.0894,-2.0894,-2.0894,-2.0894,-2.0894,-2.1269,-2.1615,-2.1077,-2.1269,-2.1615,-2.1151,-2.1355,-2.1592,-2.1126,-2.0919,-2.0646,-2.0055,-1.985,-1.9798,-1.9798,-1.9798,-1.9798,-1.9798,-1.9798,-1.9798,-1.9798,-1.9798,-1.9798,-1.9798,-1.9798,-1.9798,-1.9798,-1.9798,-1.9798,-1.9798,-1.8474,-1.7605,-1.7605,-1.6244,-1.541,-1.541,-1.541,-1.541,-1.541,-1.541,-1.541,-1.541,-1.541,-1.541,-1.541,-1.541,-1.5176,-1.4707,-1.4658,-1.4238,0.0,0.0,0.0,0.0,0.0,0.0,-1.7375,0.0,-1.6911,0.0,0.0,0.0,0.0,0.0,0.0,0.0,-1.6701,0.0,0.0,0.0,-1.7727,0.0,0.0,0.0,-2.0426,-2.0629,-2.0918,-2.1443,-2.1006,-2.093,-2.1455,-2.0993,-2.0691,-2.0691,-2.01,-1.9798,-1.9798,-1.9798,-1.9798,-1.9798,-1.9798,-1.9798,-1.9798,-1.9798,-1.9798,-1.9798,-1.9798,-1.9798,-1.9798,-1.9798,-1.9798,-1.9798,-1.9798,-1.9978,-2.022,-2.022,-2.022,-2.022,-2.022,-2.022,-2.022,-2.022,-2.0383,-2.0546,-2.0295,-2.0408,-2.062,-2.0771,-2.0708,-2.062,-2.0771,-2.0497,-2.0156,-1.9875,-1.9798,-1.9798,-1.9798,-1.9798,-1.9798,-1.9798,-1.9798,-1.9798,-1.9798,-1.9798,-1.9798,-1.9798,-1.9798,-1.9798,-1.9798,-1.9798,-1.9798,-1.9798,-1.8474,-1.7605,-1.7605,-1.6244,-1.541,-1.541,-1.541,-1.541,-1.541,-1.541,-1.541,-1.541,-1.541,-1.541,-1.541,-1.541,-1.5322,-1.5146,-1.4902,-1.459,-2.2046,0.0,0.0,0.0,0.0,0.0,0.0,0.0,0.0,0.0,0.0,0.0,0.0,0.0,0.0,0.0,0.0,-1.6697,0.0,-1.65,0.0,0.0,0.0,0.0,0.0,-1.9635,-2.0025,-2.0552,-2.0101,-2.0101,-2.0778,-2.0465,-2.0314,-2.0453,-2.0024,-1.9798,-1.9798,-1.9798,-1.9798,-1.9798,-1.9798,-1.9798,-1.9798,-1.9798,-1.9798,-1.9798,-1.9798,-1.9798,-1.9798,-1.9798,-1.9798,-1.9798,-1.9798,-1.9798,-1.9798,-1.9798,-1.9798,-1.9798,-1.9798,-1.9798,-1.9798,-1.9798,-1.9798,-1.9798,-1.9798,-1.9798,-1.9901,-2.0396,-2.0182,-1.9901,-2.0396,-2.0144,-1.9798,-1.9798,-1.9798,-1.9798,-1.9798,-1.9798,-1.9798,-1.9798,-1.9798,-1.9798,-1.9798,-1.9798,-1.9798,-1.9798,-1.9798,-1.9798,-1.9798,-1.9798,-1.9798,-1.9798,-1.8474,-1.7605,-1.7605,-1.6244,-1.541,-1.541,-1.541,-1.541,-1.541,-1.541,-1.541,-1.541,-1.541,-1.541,-1.541,-1.541,-1.541,-1.5371,-1.5098,-1.4834,0.0,0.0,0.0,-2.0351,0.0,0.0,0.0,0.0,-1.8003,0.0,0.0,0.0,0.0,0.0,0.0,0.0,0.0,0.0,0.0,0.0,0.0,0.0,0.0,0.0,0.0,-1.779,-1.7737,0.0,-1.7825,-1.7965,-1.902,-1.9058,-1.9284,-1.9811,-1.9811,-1.9798,-1.9798,-1.9798,-1.9798,-1.9798,-1.9798,-1.9798,-1.9798,-1.9798,-1.9798,-1.9798,-1.9798,-1.9798,-1.9798,-1.9798,-1.9798,-1.9798,-1.9798,-1.9798,-1.9798,-1.9798,-1.9798,-1.9798,-1.9798,-1.9798,-1.9798,-1.9798,-1.9798,-1.9798,-1.9798,-1.9798,-1.9798,-1.9824,-1.9837,-1.9798,-1.9824,-1.9837,-1.9798,-1.9798,-1.9798,-1.9798,-1.9798,-1.9798,-1.9798,-1.9798,-1.9798,-1.9798,-1.9798,-1.9798,-1.9798,-1.9798,-1.9798,-1.9798,-1.9798,-1.9798,-1.9798,-1.9798,-1.8474,-1.7605,-1.7605,-1.6244,-1.541,-1.541,-1.541,-1.541,-1.541,-1.541,-1.541,-1.541,-1.541,-1.541,-1.541,-1.541,-1.541,-1.541,-1.54,-1.4923,0.0,0.0,-2.2744,-2.1292,0.0,0.0,0.0,0.0,0.0,0.0,0.0,0.0,0.0,0.0,0.0,0.0,0.0,0.0,0.0,0.0,0.0,0.0,0.0,0.0,0.0,0.0,0.0,-1.8166,-1.7282,0.0,-1.821,-1.8358,-1.8615,-1.9059,-1.9071,-1.9071,-1.9071,-1.9071,-1.9071,-1.9071,-1.9071,-1.9071,-1.9071,-1.8581,-1.8328,-1.8328,-1.8328,-1.8328,-1.8382,-1.8874,-1.8768,-1.8447,-1.9423,-1.9501,-1.9123,-1.9605,-1.9798,-1.9798,-1.9798,-1.9798,-1.9798,-1.9798,-1.9798,-1.9798,-1.9798,-1.9798,-1.9798,-1.9798,-1.9798,-1.9798,-1.9798,-1.9798,-1.9798,-1.9798,-1.9798,-1.9798,-1.9798,-1.9798,-1.9798,-1.9798,-1.9798,-1.9798,-1.9798,-1.9798,-1.9798,-1.9798,-1.9798,-1.9798,-1.9798,-1.9798,-1.9798,-1.9798,-1.8927,-1.814,-1.7633,-1.6244,-1.541,-1.541,-1.541,-1.541,-1.541,-1.541,-1.541,-1.541,-1.541,-1.541,-1.541,-1.541,-1.541,-1.541,-1.541,-1.5107,-2.3108,-2.3108,0.0,-2.1757,-2.0941,0.0,-1.8794,0.0,-1.892,0.0,0.0,0.0,0.0,0.0,0.0,0.0,0.0,0.0,0.0,-1.65,0.0,0.0,0.0,0.0,0.0,-1.6883,-1.6907,-1.7253,-1.637,0.0,0.0,-1.7297,-1.7637,-1.8087,-1.8247,-1.8301,-1.8301,-1.8301,-1.8301,-1.8301,-1.8301,-1.8301,-1.8286,-1.7825,-1.7605,-1.7605,-1.7605,-1.7605,-1.7633,-1.8124,-1.8043,-1.7677,-1.8661,-1.8741,-1.8421,-1.9423,-1.9798,-1.9747,-1.9501,-1.9579,-1.9747,-1.9501,-1.9592,-1.9798,-1.9798,-1.9798,-1.9798,-1.9798,-1.9798,-1.9798,-1.9798,-1.9798,-1.9798,-1.9798,-1.9798,-1.9798,-1.9798,-1.9798,-1.9798,-1.9798,-1.9798,-1.9798,-1.9798,-1.9579,-1.9501,-1.9747,-1.9798,-1.9798,-1.9798,-1.9798,-1.9798,-1.9798,-1.89,-1.7895,-1.6912,-1.594,-1.541,-1.541,-1.541,-1.541,-1.541,-1.541,-1.541,-1.541,-1.541,-1.541,-1.541,-1.541,-1.541,-1.541,-1.541,-1.5186]},{"header":{"parameterUnit":"m.s-1","parameterCategory":1,"la1":30.6,"la2":29.2853,"lo1":-89.7004,"lo2":-87.6739,"dy":0.0162,"dx":0.0183,"nx":112,"ny":82,"refTime":"2024-05-27T06:00:00:Z","depth":0,"parameterNumber":3,"parameterNumberName":"V-component_of_WINDS"},"data":[0.0,0.0,0.0,0.0,0.0,0.0,0.0,0.0,0.0,0.0,0.0,0.0,0.0,0.0,0.0,0.0,0.0,0.0,0.0,0.0,0.0,0.0,0.0,0.0,0.0,0.0,0.0,0.0,0.0,0.0,0.0,0.0,0.0,0.0,0.0,0.0,0.0,0.0,0.0,0.0,0.0,0.0,0.0,0.0,0.0,0.0,0.0,0.0,0.0,0.0,0.0,0.0,0.0,0.0,0.0,0.0,0.0,0.0,0.0,0.0,0.0,0.0,0.0,0.0,0.0,0.0,0.0,0.0,0.0,0.0,0.0,0.0,0.0,0.0,0.0,0.0,0.0,0.0,0.0,0.0,0.0,0.0,0.0,0.0,0.0,0.0,0.0,0.0,0.0,0.0,0.3648,0.3961,0.4839,0.5446,0.5545,0.5274,0.5377,0.6096,0.0,0.0,0.0,0.0,0.0,0.0,0.0,0.0,0.0,0.0,0.0,0.0,0.0,0.0,0.0,0.0,0.0,0.0,0.0,0.0,0.0,0.0,0.0,0.0,0.0,0.0,0.0,0.0,0.0,0.0,0.0,0.0,0.0,0.0,0.0,0.0,0.0,0.0,0.0,0.0,0.0,0.0,0.0,0.0,0.0,0.0,0.0,0.0,0.0,0.0,0.0,0.0,0.0,0.0,0.0,0.0,0.0,0.0,0.0,0.0,0.0,0.0,0.0,0.0,0.0,0.0,0.0,0.0,0.0,0.0,0.0,0.0,0.0,0.0,0.0,0.0,0.0,0.0,0.0,0.0,0.0,0.0,0.0,0.0,0.0,0.0,0.0,0.0,0.0,0.0,0.0,0.0,0.0,0.0,0.0,0.0,0.0,0.0,0.0,0.0,0.0,0.0,0.0,0.0,0.4293,0.4849,0.5189,0.5402,0.5429,0.5121,0.519,0.5833,0.0,0.0,0.0,0.0,0.0,0.0,0.0,0.0,0.0,0.0,0.0,0.0,0.0,0.0,0.0,0.0,0.0,0.0,0.0,0.0,0.0,0.0,0.0,0.0,0.0,0.0,0.0,0.0,0.0,0.0,0.0,0.0,0.0,0.0,0.0,0.0,0.0,0.0,0.0,0.0,0.0,0.0,0.0,0.0,0.0,0.0,0.0,0.0,0.0,0.0,0.0,0.0,0.0,0.0,0.0,0.0,0.0,0.0,0.0,0.0,0.0,0.0,0.0,0.0,0.0,0.0,0.0,0.0,0.0,0.0,0.0,0.0,0.0,0.0,0.0,0.0,0.0,0.0,0.0,0.0,0.0,0.0,0.0,0.0,0.0,0.0,0.0,0.0,0.0,0.0,0.0,0.0,0.0,0.0,0.0,0.0,0.0,0.0,0.0,0.0,0.0,0.0,0.0,0.3602,0.4245,0.5167,0.5351,0.5395,0.5395,0.5087,0.5084,0.5502,0.5388,0.0,0.0,0.0,0.0,0.0,0.0,0.0,0.0,0.0,0.0,0.0,0.0,0.0,0.0,0.0,0.0,0.0,0.0,0.0,0.0,0.0,0.0,0.0,0.0,0.0,0.0,0.0,0.0,0.0,0.0,0.0,0.0,0.0,0.0,0.0,0.0,0.0,0.0,0.0,0.0,0.0,0.0,0.0,0.0,0.0,0.0,0.0,0.0,0.0,0.0,0.0,0.0,0.0,0.0,0.0,0.0,0.0,0.0,0.0,0.0,0.0,0.0,0.0,0.0,0.0,0.0,0.0,0.0,0.0,0.0,0.0,0.0,0.0,0.0,0.0,0.0,0.0,0.0,0.0,0.0,0.0,0.0,0.0,0.0,0.0,0.0,0.0,0.0,0.0,0.0,0.0,0.0,0.0,0.0,0.0,0.0,0.0,0.0,0.0,0.0,0.0,0.0,0.3727,0.4105,0.5285,0.5395,0.5382,0.5344,0.5036,0.4907,0.5027,0.4634,0.0,0.0,0.0,0.0,0.0,0.0,0.0,0.0,0.0,0.0,0.0,0.0,0.0,0.0,0.0,0.0,0.0,0.0,0.0,0.0,0.0,0.0,0.0,0.0,0.0,0.0,0.0,0.0,0.0,0.0,0.0,0.0,0.0,0.0,0.0,0.0,0.0,0.0,0.0,0.0,0.0,0.0,0.0,0.0,0.0,0.0,0.0,0.0,0.0,0.0,0.0,0.0,0.0,0.0,0.0,0.0,0.0,0.0,0.0,0.0,0.0,0.0,0.0,0.0,0.0,0.0,0.0,0.0,0.0,0.0,0.0,0.0,0.0,0.0,0.0,0.0,0.0,0.0,0.0,0.0,0.0,0.0,0.0,0.0,0.0,0.0,0.0,0.0,0.0,0.0,0.0,0.0,0.0,0.0,0.0,0.0,0.0,0.0,0.0,0.0,0.0,0.0,0.4045,0.4202,0.5295,0.5395,0.5337,0.5127,0.4874,0.4579,0.4307,0.3779,0.0,0.0,0.0,0.0,0.0,0.0,0.0,0.0,0.0,0.0,0.0,0.0,0.0,0.0,0.0,0.0,0.0,0.0,0.0,0.0,0.0,0.0,0.0,0.0,0.0,0.0,0.0,0.0,0.0,0.0,0.0,0.0,0.0,0.0,0.0,0.0,0.0,0.0,0.0,0.0,0.0,0.0,0.0,0.0,0.0,0.0,0.0,0.0,0.0,0.0,0.0,0.0,0.0,0.0,0.0,0.0,0.0,0.0,0.0,0.0,0.0,0.0,0.0,0.0,0.0,0.0,0.0,0.0,0.0,0.0,0.0,0.0,0.0,0.0,0.0,0.0,0.0,0.0,0.0,0.0,0.0,0.0,0.0,0.0,0.0,0.0,0.0,0.0,0.0,0.0,0.0,0.0,0.0,0.0,0.0,0.0,0.0,0.0,0.0,0.0,0.0,0.0,0.4333,0.4585,0.5154,0.5337,0.533,0.511,0.4918,0.4635,0.422,0.0,0.0,0.0,0.0,0.0,0.0,0.0,0.0,0.0,0.0,0.0,0.0,0.0,0.0,0.0,0.0,0.0,0.0,0.0,0.0,0.0,0.0,0.0,0.0,0.0,0.0,0.0,0.0,0.0,0.0,0.0,0.0,0.0,0.0,0.0,0.0,0.0,0.0,0.0,0.0,0.0,0.0,0.0,0.0,0.0,0.0,0.0,0.0,0.0,0.0,0.0,0.0,0.0,0.0,0.0,0.0,0.0,0.0,0.0,0.0,0.0,0.0,0.0,0.0,0.0,0.0,0.0,0.0,0.0,0.0,0.0,0.0,0.0,0.0,0.0,0.0,0.0,0.0,0.0,0.0,0.0,0.0,0.0,0.0,0.0,0.0,0.0,0.0,0.0,0.0,0.0,0.0,0.0,0.0,0.0,0.0,0.0,0.0,0.0,0.0,0.0,0.0,0.4127,0.452,0.4857,0.5073,0.5223,0.5226,0.5046,0.4887,0.4582,0.4105,0.0,0.0,0.0,0.0,0.0,0.0,0.0,0.0,0.0,0.0,0.0,0.0,0.0,0.0,0.0,0.0,0.0,0.0,0.0,0.0,0.0,0.0,0.0,0.0,0.0,0.0,0.0,0.0,0.0,0.0,0.0,0.0,0.0,0.0,0.0,0.0,0.0,0.0,0.0,0.0,0.0,0.0,0.0,0.0,0.0,0.0,0.0,0.0,0.0,0.0,0.0,0.0,0.0,0.0,0.0,0.0,0.0,0.0,0.0,0.0,0.0,0.0,0.0,0.0,0.0,0.0,0.0,0.0,0.0,0.0,0.0,0.0,0.0,0.0,0.0,0.0,0.0,0.0,0.0,0.0,0.0,0.0,0.0,0.0,0.0,0.0,0.0,0.0,0.0,0.0,0.0,0.0,0.0,0.0,0.0,0.0,0.0,0.0,0.0,0.0,0.0,0.0,0.4137,0.4611,0.4938,0.5079,0.5096,0.5039,0.4897,0.4668,0.43,0.0,0.0,0.0,0.0,0.0,0.0,0.0,0.0,0.0,0.0,0.0,0.0,0.0,0.0,0.0,0.0,0.0,0.0,0.0,0.0,0.0,0.0,0.0,0.0,0.0,0.0,0.0,0.0,0.0,0.0,0.0,0.0,0.0,0.0,0.0,0.0,0.0,0.0,0.0,0.0,0.0,0.0,0.0,0.0,0.0,0.0,0.0,0.0,0.0,0.0,0.0,0.0,0.0,0.0,0.0,0.0,0.0,0.0,0.0,0.0,0.0,0.0,0.0,0.0,0.0,0.0,0.0,0.0,0.0,0.0,0.0,0.0,0.0,0.0,0.0,0.0,0.0,0.0,0.0,0.0,0.0,0.0,0.0,0.0,0.0,0.0,0.0,0.0,0.0,0.0,0.0,0.0,0.0,0.0,0.0,0.0,0.0,0.0,0.0,0.0,0.0,0.0,0.0,0.4018,0.448,0.4772,0.4816,0.4918,0.4891,0.4772,0.4674,0.4433,0.3982,0.0,0.0,0.0,0.0,0.0,0.0,0.0,0.0,0.0,0.0,0.0,0.0,0.0,0.0,0.0,0.0,0.0,0.0,0.0,0.0,0.0,0.0,0.0,0.0,0.0,0.0,0.0,0.0,0.0,0.0,0.0,0.0,0.0,0.0,0.0,0.0,0.0,0.0,0.0,0.0,0.0,0.0,0.0,0.0,0.0,0.0,0.0,0.0,0.0,0.0,0.0,0.0,0.0,0.0,0.0,0.0,0.0,0.0,0.0,0.0,0.0,0.0,0.0,0.0,0.0,0.0,0.0,0.0,0.0,0.0,0.0,0.0,0.0,0.0,0.0,0.0,0.0,0.0,0.0,0.0,0.0,0.0,0.0,0.0,0.0,0.0,0.0,0.0,0.0,0.0,0.0,0.0,0.0,0.0,0.0,0.0,0.0,0.0,0.0,0.0,0.0,0.0,0.3957,0.4412,0.4691,0.4691,0.4772,0.4792,0.4697,0.4662,0.4406,0.3958,0.0,0.0,0.0,0.0,0.0,0.0,0.0,0.0,0.0,0.0,0.0,0.0,0.0,0.0,0.0,0.0,0.0,0.0,0.0,0.0,0.0,0.0,0.0,0.0,0.0,0.0,0.0,0.0,0.0,0.0,0.0,0.0,0.0,0.0,0.0,0.0,0.0,0.0,0.0,0.0,0.0,0.0,0.0,0.0,0.0,0.0,0.0,0.0,0.0,0.0,0.0,0.0,0.0,0.0,0.0,0.0,0.0,0.0,0.0,0.0,0.0,0.0,0.0,0.0,0.0,0.0,0.0,0.0,0.0,0.0,0.0,0.0,0.0,0.0,0.0,0.0,0.0,0.0,0.0,0.0,0.0,0.0,0.0,0.0,0.0,0.0,0.0,0.0,0.0,0.0,0.0,0.0,0.0,0.0,0.0,0.0,0.0,0.0,0.0,0.0,0.0,0.0,0.3957,0.4399,0.467,0.467,0.467,0.467,0.467,0.4569,0.431,0.386,0.0,0.0,0.0,0.0,0.0,0.0,0.0,0.0,0.0,0.0,0.0,0.0,0.0,0.0,0.0,0.0,0.0,0.0,0.0,0.0,0.0,0.0,0.0,0.0,0.0,0.0,0.0,0.0,0.0,0.0,0.0,0.0,0.0,0.0,0.0,0.0,0.0,0.0,0.0,0.0,0.0,0.0,0.0,0.0,0.0,0.0,0.0,0.0,0.0,0.0,0.0,0.0,0.0,0.0,0.0,0.0,0.0,0.0,0.0,0.0,0.7705,0.0,0.0,0.0,0.0,0.0,0.0,0.0,0.0,0.0,0.0,0.0,0.0,0.0,0.0,0.0,0.0,0.0,0.0,0.0,0.0,0.0,0.0,0.0,0.0,0.0,0.0,0.0,0.0,0.0,0.0,0.0,0.0,0.0,0.0,0.0,0.0,0.0,0.0,0.0,0.0,0.0,0.3957,0.4307,0.4539,0.4539,0.4539,0.4539,0.4539,0.4508,0.4402,0.4139,0.3897,0.0,0.0,0.0,0.0,0.0,0.0,0.0,0.0,0.0,0.0,0.0,0.0,0.0,0.0,0.0,0.0,0.0,0.0,0.0,0.0,0.0,0.0,0.0,0.0,0.0,0.0,0.0,0.0,0.0,0.0,0.0,0.0,0.0,0.0,0.0,0.0,0.0,0.0,0.0,0.0,0.0,0.0,0.0,0.0,0.0,0.0,0.0,0.0,0.0,0.0,0.0,0.0,0.0,0.0,0.0,0.0,0.0,0.0,0.0,0.0,0.8076,0.0,0.0,0.0,0.0,0.0,0.0,0.0,0.0,0.0,0.0,0.0,0.0,0.0,0.0,0.0,0.0,0.0,0.0,0.0,0.0,0.0,0.0,0.0,0.0,0.0,0.0,0.0,0.0,0.0,0.0,0.0,0.0,0.0,0.0,0.0,0.0,0.0,0.0,0.0,0.0,0.3957,0.4303,0.4491,0.4491,0.4491,0.4491,0.4491,0.4491,0.4402,0.4204,0.4004,0.0,0.0,0.0,0.0,0.0,0.0,0.0,0.0,0.0,0.0,0.0,0.0,0.0,0.0,0.0,0.0,0.0,0.0,0.0,0.0,0.0,0.0,0.0,0.0,0.0,0.0,0.0,0.0,0.0,0.0,0.0,0.0,0.0,0.0,0.0,0.0,0.0,0.0,0.0,0.0,0.0,0.0,0.0,0.0,0.0,0.0,0.0,0.0,0.0,0.0,0.0,0.0,0.0,1.029,1.0474,1.0747,1.0747,1.0581,1.0256,0.9272,0.8904,0.8911,0.8298,0.0,0.0,0.0,0.0,0.0,0.0,0.0,0.0,0.0,0.0,0.0,0.0,0.0,0.0,0.0,0.0,0.0,0.0,0.0,0.0,0.0,0.0,0.0,0.0,0.4328,0.4196,0.3853,0.0,0.0,0.0,0.0,0.0,0.0,0.0,0.0,0.0,0.0,0.0,0.3998,0.4297,0.4491,0.4491,0.4491,0.4491,0.4491,0.4491,0.444,0.4267,0.4119,0.3856,0.0,0.0,0.0,0.0,0.0,0.0,0.0,0.0,0.0,0.0,0.0,0.0,0.0,0.0,0.0,0.0,0.0,0.0,0.0,0.0,0.0,0.0,0.0,0.0,0.0,0.0,0.0,0.0,0.0,0.0,0.0,0.0,1.25,1.2155,0.0,0.0,0.0,0.0,0.0,0.0,0.0,0.0,0.0,0.0,0.0,0.0,0.0,1.0419,1.0419,1.0707,1.0842,1.0882,1.1129,1.1242,1.1275,1.1275,1.1255,1.1196,1.0822,0.0,0.9526,0.8938,0.0,0.0,0.0,0.0,0.0,0.0,0.0,0.0,0.0,0.0,0.0,0.0,0.0,0.0,0.0,0.0,0.0,0.0,0.0,0.0,0.0,0.0,0.5616,0.586,0.5256,0.4616,0.0,0.4134,0.3758,0.3761,0.3638,0.0,0.0,0.0,0.0,0.0,0.0,0.0,0.4127,0.4362,0.4491,0.4491,0.4491,0.4491,0.4491,0.4491,0.4481,0.4464,0.4271,0.4105,0.3913,0.3494,0.0,0.0,0.0,0.0,0.0,0.0,0.0,0.0,0.0,0.0,0.0,0.0,0.0,0.0,0.0,0.0,0.0,0.0,0.0,0.0,0.0,0.0,0.0,0.0,0.0,0.0,0.0,0.0,0.0,1.2607,1.3402,1.2973,1.3535,1.3507,0.0,0.0,0.0,0.0,0.0,0.0,0.0,0.0,0.0,1.0803,1.0982,1.1202,1.1536,1.1663,1.181,1.2013,1.2141,1.2201,1.2201,1.2201,1.1984,1.1663,1.1578,1.1169,1.0608,0.9853,0.9317,0.8998,0.0,0.0,0.0,0.0,0.8398,0.8418,0.8585,0.8551,0.8437,0.8277,0.0,0.0,0.0,0.0,0.0,0.0,0.0,0.0,0.0,0.0,0.5452,0.6053,0.5483,0.4911,0.5335,0.4836,0.4246,0.0,0.3927,0.3751,0.352,0.0,0.0,0.0,0.0,0.3974,0.4167,0.4372,0.4491,0.4491,0.4491,0.4491,0.4491,0.4491,0.4491,0.4491,0.4429,0.43,0.4129,0.3438,0.3102,0.0,0.0,0.0,0.0,0.0,0.0,0.0,0.0,0.0,0.0,0.0,0.0,0.0,0.0,0.0,0.0,0.0,0.0,0.0,0.0,0.0,0.0,0.0,0.0,0.0,0.0,0.0,0.0,1.3281,1.4163,1.3877,1.459,1.4725,0.0,0.0,0.0,0.0,0.0,0.0,1.0579,1.0842,1.127,1.175,1.1808,1.2091,1.2532,1.2532,1.2645,1.2904,1.2904,1.2904,1.2904,1.2904,1.2623,1.2127,1.2127,1.1884,1.1476,1.0668,1.004,0.9544,0.9464,0.9158,0.8764,0.8951,0.9031,0.9065,0.9251,0.9324,0.9291,0.9105,0.8611,0.8085,0.7899,0.0,0.0,0.0,0.0,0.7229,0.7093,0.6492,0.6071,0.6817,0.6122,0.5422,0.5994,0.5383,0.466,0.0,0.4183,0.4053,0.3795,0.0,0.0,0.0,0.0,0.4105,0.4257,0.4395,0.4491,0.4491,0.4491,0.4491,0.4491,0.4491,0.4491,0.4491,0.4491,0.444,0.4281,0.3611,0.3252,0.3276,0.0,0.0,0.0,0.0,0.0,0.0,0.0,0.0,0.0,0.0,0.0,0.0,0.0,0.0,0.0,0.0,0.0,0.0,0.0,0.0,0.0,0.0,0.0,0.0,0.0,0.0,0.0,0.0,0.0,1.4754,1.5508,0.0,0.0,0.0,0.0,1.3317,1.2655,1.216,1.1821,1.2058,1.2358,1.271,1.2966,1.3133,1.316,1.316,1.3173,1.3186,1.3186,1.3186,1.3186,1.3186,1.3013,1.2737,1.2737,1.2415,1.1832,1.1196,1.0801,1.0499,1.018,0.9886,0.9648,0.9662,0.9668,0.9646,0.9659,0.9659,0.9688,0.9675,0.9239,0.8758,0.8744,0.8738,0.0,0.0,0.8592,0.9431,0.8993,0.873,0.8688,0.9073,0.7706,0.6339,0.6358,0.5582,0.4816,0.0,0.447,0.4419,0.4217,0.0,0.4164,0.4164,0.4174,0.4264,0.446,0.4484,0.4491,0.4491,0.4491,0.4491,0.4491,0.4491,0.4491,0.4491,0.4491,0.4487,0.4481,0.4261,0.3758,0.295,0.2631,0.0,0.0,0.0,0.0,0.0,0.0,0.0,0.0,0.0,0.0,0.0,0.0,0.0,0.0,0.0,0.0,0.0,0.0,0.0,0.0,0.0,0.0,0.0,0.0,0.0,0.0,0.0,0.0,1.6005,1.7031,0.0,1.5735,1.5173,1.4379,1.3187,1.2812,1.2606,1.2499,1.2719,1.3019,1.3313,1.3393,1.354,1.3774,1.3774,1.3774,1.3774,1.3774,1.3674,1.3447,1.3447,1.3213,1.2784,1.2784,1.2556,1.2131,1.1924,1.1443,1.0861,1.0722,1.0388,0.996,0.996,0.996,0.996,0.996,0.996,0.9933,0.9746,0.9539,0.9372,0.9372,0.9372,0.9316,0.9056,0.9053,0.9083,0.89,0.8575,0.8467,0.9148,0.8356,0.7551,0.797,0.6919,0.582,0.5637,0.507,0.459,0.4412,0.4385,0.4355,0.421,0.4301,0.4433,0.4484,0.4491,0.4491,0.4491,0.4491,0.4491,0.4491,0.4491,0.4491,0.4491,0.4491,0.4491,0.4491,0.3482,0.2953,0.3031,0.191,0.1297,0.0,0.0,0.0,0.0,0.0,0.0,0.0,0.0,0.0,0.0,0.0,0.0,0.0,0.0,0.0,0.0,0.0,0.0,0.0,0.0,0.0,0.0,0.0,0.0,0.0,0.0,1.7002,1.7116,1.8256,1.8485,1.7065,1.6991,1.6277,1.4511,1.4332,1.3999,1.3279,1.3394,1.3594,1.3746,1.3753,1.3888,1.4082,1.4088,1.4088,1.4088,1.4088,1.3981,1.3753,1.3753,1.352,1.3085,1.3085,1.2819,1.2489,1.2489,1.2027,1.1289,1.1289,1.0929,1.0414,1.0414,1.0354,1.0267,1.0267,1.0267,1.0234,1.007,0.9913,0.9826,0.9826,0.9826,0.9826,0.9826,0.9635,0.9401,0.9401,0.9153,0.9032,0.9594,0.9069,0.857,0.9013,0.7965,0.6913,0.6838,0.5705,0.4718,0.4593,0.4566,0.4518,0.4314,0.4402,0.4491,0.4491,0.4491,0.4491,0.4491,0.4491,0.4491,0.4491,0.4491,0.4491,0.4491,0.4491,0.4491,0.4491,0.3289,0.2657,0.2793,0.1271,0.0595,0.0857,0.0,0.0,0.0,0.0,0.0,0.0,0.0,0.0,0.0,0.0,0.0,0.0,0.0,0.0,0.0,0.0,0.0,0.0,0.0,0.0,0.0,0.0,0.0,1.6134,1.6907,1.7607,1.8037,1.9189,1.9767,1.9368,2.0079,1.9666,1.7489,1.7335,1.6435,1.432,1.42,1.4157,1.4115,1.4108,1.4102,1.4102,1.4088,1.4088,1.4088,1.4088,1.4088,1.4088,1.4088,1.3928,1.36,1.36,1.33,1.2784,1.2784,1.2442,1.1913,1.1906,1.1551,1.1009,1.1009,1.0854,1.0606,1.0606,1.06,1.0593,1.0593,1.0399,1.0134,1.0134,1.0134,1.0134,1.0134,1.0341,1.0593,1.0593,1.0593,1.0593,1.0593,0.9951,0.9338,0.9338,0.8651,0.8027,0.8027,0.6406,0.4944,0.479,0.4759,0.4704,0.4528,0.4501,0.0,0.4498,0.4494,0.4491,0.4491,0.4491,0.4491,0.4491,0.4491,0.4491,0.4491,0.4491,0.4491,0.4491,0.3803,0.3019,0.2188,0.0734,0.0,0.0,0.0,0.0,0.0,0.0,0.0,0.0,0.0,0.0,0.0,0.0,0.0,0.0,0.0,0.0,0.0,0.0,0.0,0.0,0.0,0.0,0.0,1.6398,1.7054,1.7054,1.8027,1.9033,1.9813,2.0459,2.0611,1.9999,2.0172,1.9754,1.8372,1.8245,1.7608,1.6161,1.6074,1.5654,1.4767,1.4516,1.4402,1.4402,1.4195,1.4088,1.4088,1.4088,1.4088,1.4088,1.4088,1.3928,1.36,1.36,1.33,1.2784,1.2784,1.2563,1.2164,1.1986,1.1637,1.1309,1.1309,1.1122,1.0875,1.0875,1.0767,1.0593,1.0593,1.0539,1.0472,1.0472,1.0472,1.0472,1.0472,1.0526,1.0593,1.0593,1.0593,1.0593,1.0593,1.0434,1.0238,1.0238,0.9556,0.8941,0.8941,0.7962,0.6895,0.608,0.585,0.5571,0.4885,0.4701,0.0,0.4655,0.4559,0.4491,0.4491,0.4491,0.4491,0.4491,0.4491,0.4491,0.4491,0.4491,0.4491,0.4491,0.3747,0.2727,0.1428,0.0487,0.0,0.0,0.0,0.0,0.0,0.0,0.0,0.0,0.0,0.0,0.0,0.0,0.0,0.0,0.0,0.0,0.0,0.0,0.0,0.0,0.0,0.0,0.0,1.7754,1.8506,1.8727,1.9392,2.0116,2.0762,2.1396,2.1607,2.1179,2.1315,2.0897,1.9652,1.9116,1.8442,1.7593,1.7062,1.6463,1.5777,1.5563,1.521,1.4703,1.4416,1.4269,1.4269,1.4142,1.4088,1.4088,1.4088,1.3988,1.3828,1.3828,1.3494,1.2978,1.2978,1.2692,0.0,0.0,0.0,0.0,0.0,1.1282,1.1176,1.1176,1.1062,1.0922,1.0922,1.0922,1.0902,1.0807,1.0774,1.0747,1.0626,1.0593,1.0593,1.0593,1.0593,1.0593,1.0593,1.0593,1.0593,1.0593,1.0206,0.9849,0.9849,0.9422,0.0,0.7795,0.7181,0.6645,0.6061,0.5571,0.5258,0.5237,0.4808,0.4491,0.4491,0.4491,0.4491,0.4491,0.4491,0.0,0.0,0.0,0.435,0.4013,0.3584,0.0,0.0,0.0,0.0,0.0,0.0,0.0,0.0,0.0,0.0,0.0,0.0,0.0,0.0,0.0,0.0,0.0,0.0,0.0,0.0,0.0,0.0,0.0,0.0,0.0,0.0,1.9258,2.0215,2.0693,2.0791,2.0937,2.1288,2.2051,2.2529,2.2578,2.2877,2.2567,2.125,2.0167,1.9318,1.8729,0.0,0.0,0.0,0.0,1.613,1.5055,1.4716,1.4556,1.4516,1.4262,1.4122,1.4088,1.4088,1.4088,1.4088,1.4088,1.3774,1.326,1.3227,1.2852,1.2305,1.2305,1.2144,1.1919,1.1623,1.1538,1.1607,1.1607,0.0,0.0,1.156,1.1491,1.1335,1.1082,1.0995,1.0929,1.0673,1.0593,1.0593,1.0593,1.0593,1.0593,1.0593,1.0593,1.0593,1.0593,1.0593,1.0593,1.0593,1.0593,1.0333,0.9594,0.8591,0.7809,0.7586,0.6768,0.6145,0.6071,0.5236,0.4622,0.4543,0.0,0.0,0.4491,0.4491,0.4491,0.4491,0.4491,0.4181,0.3464,0.3406,0.27,0.1244,0.1146,0.0725,0.0,0.0,0.0,0.0,0.0,0.0,0.0,0.0,0.0,0.0,0.0,0.0,0.0,0.0,0.0,0.0,0.0,0.0,0.0,0.0,0.0,1.9404,2.0313,2.1093,2.1572,2.1924,2.2168,2.2256,2.2412,2.2646,2.2945,2.3052,2.2965,2.2703,2.2475,2.1441,1.9425,1.9101,1.8064,1.6066,1.5787,1.5579,1.5311,1.5023,1.4756,1.4522,0.0,0.0,1.4088,1.4088,1.4088,1.4088,1.4088,1.3888,1.35,1.3307,1.2852,1.2305,1.2305,1.2265,1.2211,1.2151,1.2478,1.2919,1.2919,1.2792,1.2613,1.2613,1.2071,1.1335,1.1082,1.0995,0.0,1.0673,1.0593,1.0593,1.0593,1.0593,1.0593,1.0593,1.0593,1.0593,1.0593,1.0593,1.0593,1.0593,1.0593,1.0561,1.0364,0.9577,0.8755,0.8,0.7607,0.7125,0.6401,0.5952,0.5433,0.4733,0.4563,0.4491,0.4491,0.4491,0.4491,0.4491,0.4491,0.4422,0.4279,0.3671,0.2905,0.1994,0.1404,0.0733,0.0,0.0,0.0,0.0,0.0,0.0,0.0,0.0,0.0,0.0,0.0,0.0,0.0,0.0,0.0,0.0,0.0,1.7617,1.8486,0.0,2.0108,2.0791,2.1455,2.1953,2.2168,2.2568,2.2744,2.2539,2.2705,2.2867,2.3071,2.3091,2.3091,2.3091,2.2536,2.1943,2.1311,2.0178,1.8948,1.7708,1.6925,1.6258,1.5611,1.5324,1.5037,1.4743,1.4589,1.4369,1.4088,1.4088,1.4088,1.4088,1.4088,1.3915,1.3567,1.316,1.301,1.2989,1.2989,1.2696,1.2305,1.2305,1.2497,1.2863,1.3328,1.3401,1.3364,1.3877,1.3704,1.3254,1.295,1.2413,1.1874,1.1593,1.1083,1.0593,1.0593,1.0593,1.0593,1.0593,1.0593,1.0593,1.0593,1.0593,1.0593,1.0593,1.0593,1.0593,1.0593,1.0238,0.9811,0.9352,0.8746,0.818,0.7752,0.7156,0.6392,0.5464,0.5292,0.5039,0.4553,0.4491,0.4491,0.4491,0.4491,0.4491,0.4491,0.4125,0.3567,0.2826,0.2046,0.1302,0.0545,0.0167,0.0,0.0,0.0,0.0,0.0,0.0,0.0,0.0,0.0,0.0,0.0,1.7283,1.776,1.8262,1.8754,1.9426,2.0498,2.1133,2.1602,2.1953,2.2353,2.2637,2.2637,2.2886,2.2974,2.2676,2.2886,2.3091,2.3091,2.3091,2.3091,2.3091,2.2217,2.1987,2.2721,2.0899,1.9625,1.9177,1.8187,1.7084,1.5825,1.5598,1.5337,1.5089,1.475,1.4456,1.4168,1.4115,1.4088,1.4088,1.4088,1.3915,1.356,1.3287,1.34,1.3798,1.3731,1.3346,1.2842,1.2622,1.2703,1.2981,1.3745,1.3991,1.4171,1.5163,1.534,1.5132,1.4794,1.4014,1.315,1.2743,1.1927,1.1122,1.0877,1.0832,1.0832,1.0832,1.0832,1.0832,1.0832,1.0832,1.0776,1.0618,1.0593,1.0593,1.0593,1.0593,1.0593,1.0593,0.9875,0.926,0.9074,0.8328,0.7393,0.6351,0.6239,0.5801,0.4774,0.457,0.4491,0.4491,0.4491,0.4491,0.4491,0.4491,0.4153,0.34,0.2621,0.1842,0.109,0.0364,0.0,0.0,0.0,0.0,1.6901,1.6041,1.5641,1.6703,1.6565,1.6541,0.0,1.8414,1.8709,1.9512,2.0323,2.0947,2.1093,2.1785,2.2383,2.2432,2.275,2.3023,2.3023,2.3062,2.3081,2.3033,2.3062,2.3091,2.3091,2.3091,2.3091,2.3091,2.296,2.2492,2.1569,2.1248,2.0124,1.7963,1.7777,1.7084,1.5825,1.5751,1.5631,1.5344,1.5102,1.4756,1.4462,1.4208,1.4088,1.4088,1.4088,1.3915,1.3655,1.417,1.4287,1.4119,1.3821,1.4171,1.4772,1.3882,1.4099,1.4879,1.4985,1.5021,1.5199,1.614,1.586,1.5132,1.4794,1.4619,1.4344,1.3671,1.3377,1.3027,1.194,1.1679,1.1679,1.1679,1.1679,1.1679,1.1679,1.1679,1.1437,1.0744,1.0593,1.0593,1.0593,1.0593,1.0593,1.0593,1.0496,1.0123,0.9354,0.9023,0.8389,0.7274,0.7053,0.6538,0.5477,0.4842,0.4491,0.4491,0.4491,0.4491,0.4491,0.4491,0.4153,0.34,0.2621,0.1842,0.109,0.0364,0.0,0.0,0.0,0.0,1.8424,1.7988,1.7868,1.7925,1.8328,1.8876,1.9525,2.0092,2.0619,2.0997,2.1553,2.2009,2.2253,2.2594,2.2838,2.2838,2.2984,2.3091,2.3091,2.3091,2.3091,2.3091,2.3091,2.3091,2.3091,2.3091,2.3091,2.3091,2.3091,2.2862,2.235,2.1658,2.0845,1.9807,1.8411,1.7458,1.6897,1.615,1.5685,1.5391,1.5149,1.481,1.4509,1.4222,1.4088,1.4088,1.4088,1.3915,1.3634,1.3897,1.4399,1.4991,1.4877,1.5631,1.6585,1.445,1.435,1.5269,1.5834,1.6018,1.6167,1.7113,1.7148,1.68,1.6661,1.6093,1.5412,1.4868,1.4172,1.3423,1.2692,1.2512,1.2389,1.1919,1.2174,1.2358,1.1896,1.2174,1.2266,1.1437,1.1288,1.1139,1.0681,1.0593,1.0593,1.0593,1.0593,1.0466,1.011,0.997,0.9439,0.8197,0.7298,0.6464,0.5574,0.5246,0.4924,0.4515,0.4491,0.4491,0.4491,0.4491,0.4349,0.4042,0.3289,0.2508,0.173,0.1006,0.042,0.0,0.0,0.0,1.9901,1.9814,1.9835,1.9682,2.0234,2.0791,2.0719,2.1215,2.1722,2.1694,2.2041,2.2471,2.2847,2.2925,2.2955,2.3081,2.3091,2.3091,2.3091,2.3091,2.3091,2.3091,2.3091,2.3091,2.3091,2.3091,2.3091,2.3091,2.3091,2.3091,2.3091,2.2262,2.1658,2.1293,1.9579,1.8549,1.8187,1.6936,1.6235,1.6014,1.5318,1.485,1.4629,1.4255,1.4088,1.4088,1.4088,1.3968,1.3754,1.3954,1.4685,1.5683,1.5622,1.6563,1.7725,1.5376,1.4942,1.5685,1.6349,1.6611,1.6733,1.7691,1.8008,1.8008,1.8008,1.7359,1.6531,1.6132,1.5268,1.4308,1.368,1.3419,1.3183,1.2596,1.2901,1.3183,1.2596,1.2909,1.3092,1.2297,1.2143,1.1958,1.1358,1.1076,1.0926,1.0926,1.0744,1.0593,1.0593,1.0445,0.9971,0.9011,0.7695,0.6691,0.614,0.5733,0.5296,0.4814,0.4598,0.4491,0.4491,0.4491,0.4491,0.4491,0.3763,0.3093,0.2508,0.1563,0.0838,0.0308,0.0085,0.0,2.1216,2.1027,2.0873,2.2248,2.1956,2.1371,2.1371,2.129,2.1221,2.121,2.1602,2.2031,2.2451,2.2529,2.2666,2.3033,2.3091,2.3091,2.3091,2.3091,2.3091,2.3091,2.3091,2.3091,0.0,2.3091,2.3091,2.3091,2.3091,2.3091,2.3091,2.3057,2.2492,2.1337,2.1248,2.0621,1.9451,1.8226,1.7638,1.7623,1.5822,1.5001,1.4975,1.4349,1.4088,1.4088,1.4088,1.4082,1.4132,1.4799,1.5442,1.5951,1.5712,1.6563,1.7862,1.6888,1.6523,1.6567,1.6593,1.6602,1.674,1.7681,1.8008,1.8008,1.8008,1.7964,1.7867,1.7447,1.6986,1.6318,1.5148,1.4502,1.4154,1.4115,1.4154,1.4154,1.4115,1.4154,1.3944,1.313,1.2948,1.2948,1.2917,1.2266,1.1772,1.1772,1.1108,1.0593,1.0593,1.0097,0.9706,0.9686,0.8478,0.767,0.7637,0.633,0.5487,0.546,0.4869,0.4491,0.4491,0.4491,0.4491,0.4491,0.3763,0.3345,0.3259,0.1814,0.109,0.1063,0.0347,0.0,2.208,2.2085,2.2012,2.2674,2.2039,2.1537,2.254,2.248,2.2213,2.2213,2.3068,2.3676,2.3145,2.3278,2.3543,2.3696,2.3371,2.3091,2.3091,2.3091,2.3091,2.3091,2.3091,0.0,0.0,0.0,0.0,2.3091,2.3091,2.3091,2.3091,2.3091,2.2906,2.2492,2.1702,2.1114,2.0711,1.9497,1.8503,1.7677,1.6607,1.5484,1.4419,1.4909,1.4776,1.4088,1.4088,1.4088,1.4124,1.4344,1.5231,1.6434,1.6035,1.6898,1.8319,1.7743,1.7535,1.7535,1.7535,1.7535,1.7579,1.7896,1.8008,1.8008,1.8008,1.8008,1.793,1.75,1.7275,1.6928,1.5932,1.5584,1.5253,1.4396,1.4599,1.4844,1.4332,1.4628,1.4746,1.3936,1.3786,1.3644,1.31,1.2787,1.242,1.1896,1.1108,1.0593,1.0593,1.0214,0.9893,0.9706,0.9101,0.8436,0.7762,0.7257,0.6745,0.6258,0.5574,0.5164,0.5164,0.4732,0.4491,0.4491,0.4267,0.3876,0.3372,0.2965,0.2192,0.1098,0.0926,0.0553,2.3497,2.3827,2.4061,2.4625,2.3806,2.311,2.411,2.3623,2.2923,2.2762,2.341,2.3857,2.3159,2.3271,2.3655,2.4196,2.396,2.3725,2.3717,2.3714,2.3551,2.3135,2.3091,2.3091,0.0,0.0,0.0,2.3091,2.3091,2.3091,2.3091,2.3091,2.3091,2.3091,2.235,2.1933,2.1933,2.0755,1.924,1.7536,1.7337,1.6399,1.4852,1.5839,1.591,1.5228,1.4859,1.4901,1.5186,1.4412,1.5353,1.7169,1.633,1.7054,1.8549,1.8164,1.8008,1.8008,1.8008,1.8008,1.8008,1.8008,1.8008,1.8008,1.8008,1.8008,1.7959,1.7686,1.75,1.7288,1.6711,1.633,1.5896,1.5067,1.5164,1.5264,1.4746,1.505,1.5264,1.4726,1.4628,1.4451,1.3944,1.3606,1.3152,1.2358,1.1779,1.1233,1.0688,1.0301,1.0007,0.9713,0.9391,0.8899,0.8154,0.7857,0.7509,0.702,0.6308,0.5787,0.5515,0.5081,0.4732,0.4519,0.4545,0.4345,0.386,0.3727,0.3129,0.2061,0.1542,0.1012,2.5347,2.6067,2.6794,2.7846,2.6932,2.5777,2.5863,2.4661,2.3383,2.2853,2.2766,2.2697,2.2486,2.2506,2.3053,2.4476,2.4737,2.4756,2.4703,2.4702,2.4286,2.3222,2.3091,2.3091,0.0,0.0,0.0,2.3091,0.0,2.3091,2.3091,2.3091,2.3091,2.3091,2.3091,2.3091,2.3091,2.1889,1.9964,1.7334,1.8081,1.7599,1.6132,1.694,1.7318,1.7253,1.6232,1.6355,1.7131,1.511,1.5891,1.8199,1.6707,1.7164,1.8588,1.8159,1.8027,1.8008,1.8008,1.8008,1.8008,1.8008,1.8008,1.8008,1.8008,1.8008,1.8008,1.8008,1.7725,1.7445,1.7425,1.6789,1.6153,1.6105,1.5752,1.5439,1.542,1.541,1.541,1.541,1.541,1.541,1.541,1.4785,1.4004,1.3191,1.307,1.2489,1.0926,1.0438,1.0147,0.9879,0.9524,0.9166,0.8904,0.8189,0.775,0.775,0.7074,0.634,0.5651,0.5542,0.5195,0.4584,0.4644,0.4694,0.4704,0.4155,0.385,0.376,0.2162,0.1387,2.6084,2.6671,2.727,2.7939,2.6643,2.5515,2.665,2.5431,2.3839,2.3279,2.3427,2.3305,2.2133,2.283,2.3592,2.3553,2.3928,2.4033,2.3601,2.3551,2.343,2.3135,2.3091,2.3091,2.3091,2.3091,0.0,0.0,2.3091,2.3091,2.3091,2.3091,2.3091,2.3091,2.3091,2.3091,2.3091,2.1889,2.0384,1.8596,1.8684,1.7787,1.6139,1.7195,1.7557,1.7302,1.7009,1.705,1.7261,1.669,1.7406,1.8768,1.8006,1.8303,1.9072,1.8598,1.8247,1.8008,1.8008,1.8008,1.8008,1.8008,1.8008,1.8008,1.8008,1.8008,1.8008,1.8008,1.793,1.7773,1.7461,1.7249,1.6907,1.6251,1.6007,1.584,1.5488,1.541,1.541,1.541,1.541,1.541,1.541,1.5235,1.4815,1.4025,1.3876,1.3515,1.252,1.2318,1.2168,1.1879,1.1011,1.0372,1.0083,0.9131,0.8507,0.8507,0.783,0.7343,0.7149,0.6086,0.5499,0.5474,0.4955,0.4748,0.486,0.4786,0.4439,0.3806,0.3463,0.2584,2.7394,2.7965,2.8401,2.845,2.7382,2.64,2.6522,2.5469,2.4159,2.3094,2.3071,2.2925,2.1806,2.2376,2.308,2.3426,2.3836,2.4025,2.3851,2.3844,2.3671,2.3178,2.3091,2.3091,2.3091,2.3091,2.3091,0.0,2.3091,2.3091,2.3091,2.3091,2.3091,2.3091,2.3091,2.3091,2.3091,2.2448,2.1415,2.0084,1.9779,1.9079,1.8153,1.8389,1.8681,1.8967,0.0,1.831,1.8661,1.7698,1.827,1.9601,1.8679,1.8695,1.9238,1.8763,1.8334,1.8008,1.8008,1.8008,1.8008,1.8008,1.8008,1.8008,1.8008,1.8008,1.8008,1.8008,1.8008,1.7959,1.7715,1.7519,1.7288,1.6799,1.6525,1.624,1.5791,1.585,1.5966,1.5966,1.583,1.5693,1.5693,1.5537,1.5264,1.4776,1.4726,1.4569,1.4115,1.3425,1.2898,1.263,1.2023,1.1326,1.057,1.0006,0.95,0.9005,0.858,0.8221,0.7921,0.6987,0.6224,0.5675,0.5335,0.5085,0.4887,0.5029,0.4906,0.4478,0.4152,0.3447,2.8762,2.9352,2.9654,2.9038,2.8461,2.757,2.5963,2.5084,2.4111,2.2535,2.2146,2.192,2.1368,2.1555,2.2238,2.3635,2.4166,2.4548,2.4965,2.4914,2.4414,2.343,2.3178,2.3091,2.3091,2.3091,2.3091,2.3091,2.3091,2.3091,2.3091,2.3091,2.3091,2.3091,2.3091,2.3091,2.3091,2.3091,2.2492,2.1293,2.095,2.0761,2.0688,1.9865,2.0098,2.1131,1.9785,1.9717,2.044,1.8541,1.8868,2.0489,1.913,1.8901,1.9238,1.8822,1.8383,1.8008,1.8008,1.8008,1.8008,1.8008,1.8008,1.8008,1.8008,1.8008,1.8008,1.8008,1.8008,1.8008,1.8008,1.7744,1.7484,1.7393,1.709,1.6668,1.6281,1.6455,1.6697,1.6697,1.6367,1.6095,1.6095,1.5703,1.541,1.541,1.541,1.541,1.541,1.4183,1.3215,1.299,1.2855,1.2273,1.1036,1.0903,1.0476,0.95,0.9286,0.8933,0.8363,0.7913,0.7122,0.5913,0.5836,0.5595,0.5129,0.5129,0.523,0.5395,0.4553,0.4115,2.8863,2.9352,2.9654,2.9038,2.8172,2.7105,2.5875,2.4469,2.3058,2.1882,2.1295,2.0805,2.02,2.1241,2.242,2.3148,2.4425,2.5546,2.6136,2.5378,2.4745,2.4542,2.3681,2.3091,2.3091,2.3091,0.0,0.0,2.3091,2.3091,2.3091,2.3091,2.3091,2.3091,2.3091,2.3091,2.3091,2.3091,2.2492,2.1293,2.1221,2.1022,2.0697,2.0144,2.0356,2.1171,2.0595,0.0,2.0566,2.0196,2.0245,2.0557,2.0324,1.982,1.9277,1.9209,1.8682,1.8008,1.8008,1.8008,1.8008,1.8008,1.8008,1.8008,1.8008,1.8008,1.8008,1.8008,1.8008,1.8008,1.8008,1.7959,1.7812,1.7461,1.7324,1.7148,1.6677,1.6648,1.6697,1.6697,1.6367,1.6095,1.6095,1.5703,1.541,1.541,1.541,1.541,1.541,1.5167,1.4963,1.4916,1.4114,1.3487,1.3259,1.1797,1.082,1.0626,0.9722,0.9155,0.9044,0.8163,0.7752,0.7895,0.6629,0.6104,0.6399,0.5694,0.5368,0.5395,0.5226,0.4755,2.9302,2.9578,2.9591,2.8712,2.7883,2.6753,2.477,2.3446,2.228,2.0903,2.0401,2.0125,1.9849,2.052,2.1361,2.2153,2.2994,2.3852,2.4624,2.477,2.4573,2.3998,2.3963,2.3757,2.3178,2.3091,2.3091,2.3091,2.3091,2.3091,2.3091,2.3091,2.3091,2.3091,2.3091,2.3091,2.3091,2.3091,2.2818,2.2217,2.1614,2.1522,2.1907,2.0613,2.0583,2.1543,2.0859,2.0605,2.0605,2.0605,2.0605,2.0605,2.0605,2.0077,1.9287,1.9287,1.875,1.8008,1.8008,1.8008,1.8008,1.8008,1.8008,1.8008,1.8008,1.8008,1.8008,1.8008,1.8008,1.8008,1.8008,1.8008,1.7959,1.7764,1.7539,1.7393,1.7393,1.7227,1.7139,1.7353,1.6865,1.6406,1.6406,1.5859,1.541,1.541,1.541,1.541,1.541,1.541,1.541,1.541,1.4936,1.441,1.3854,1.3082,1.2186,1.1171,1.061,1.0036,0.9472,0.882,0.8334,0.8053,0.7446,0.7111,0.7018,0.6281,0.5958,0.6075,0.562,0.516,2.9478,2.9691,2.9528,2.8386,2.7607,2.6402,2.371,2.2594,2.1694,2.0125,1.9798,1.9798,1.9798,1.9982,2.0515,2.1651,2.2031,2.2642,2.3994,2.4748,2.4915,2.4236,2.4542,0.0,2.3551,2.3266,0.0,2.3091,2.3091,2.3091,2.3091,2.3091,2.3091,2.3091,2.3091,2.3091,2.3091,2.3091,2.3091,2.3101,2.2129,2.2173,2.3018,2.1235,2.0954,2.1836,2.0987,2.0605,2.0605,2.0605,2.0605,2.0605,2.0605,2.0077,1.9287,1.9287,1.875,1.8008,1.8008,1.8008,1.8008,1.8008,1.8008,1.8008,1.8008,1.8008,1.8008,1.8008,1.8008,1.8008,1.8008,1.8008,1.8008,1.8008,1.7764,1.7607,1.7939,1.7911,1.7896,1.8234,1.7566,1.6971,1.6971,1.6117,1.541,1.541,1.541,1.541,1.541,1.541,1.541,1.541,1.541,1.5071,1.4221,1.418,1.3565,1.201,1.1625,1.0997,1.0094,0.9644,0.9008,0.8139,0.8199,0.8046,0.7629,0.6957,0.6667,0.6687,0.6009,0.5591,2.8963,2.939,2.9528,2.8386,2.7318,2.5971,2.3622,2.2322,2.123,2.0049,1.9798,1.9798,1.9798,2.026,2.1144,2.2713,2.3437,2.4702,2.7261,2.6875,2.6673,2.7554,2.5942,0.0,2.466,2.3714,2.3091,2.3091,2.3091,2.3091,2.3091,2.3091,2.3091,2.3091,2.3091,2.3091,2.3091,2.3091,2.3091,2.3091,2.3003,2.3003,2.3062,2.213,2.1802,2.1836,2.0987,2.0605,0.0,2.0605,2.0605,2.0605,2.0605,2.0077,1.9287,1.9287,1.875,1.8008,1.8008,1.8008,1.8008,1.8008,1.8008,1.8008,1.8008,1.8008,1.8008,1.8008,1.8008,1.8008,1.8008,1.8008,1.8008,1.8008,1.7978,1.7959,1.8008,1.859,1.9125,1.9166,1.8469,1.7873,1.7873,1.6487,1.541,1.541,1.541,1.541,1.541,1.541,1.541,1.541,1.541,1.5371,1.5264,1.461,1.4136,1.3942,1.2631,1.1651,1.116,1.0531,0.9979,0.9535,0.876,0.8474,0.8669,0.7799,0.7171,0.6687,0.6621,0.6174,2.8624,2.9101,2.9089,2.8298,2.7268,2.5908,2.3609,2.2284,2.1167,2.0037,1.9798,1.9798,1.9798,1.9987,2.0503,2.1481,2.2121,2.2989,2.4396,2.5383,2.6009,2.6115,2.5621,2.5139,0.0,0.0,2.3091,2.3091,2.3091,2.3091,2.3091,2.3091,2.3091,2.3091,2.3091,2.3091,2.3091,2.3091,2.3091,2.3091,2.3091,2.2964,2.2744,2.2158,2.1748,2.1465,2.0879,2.0605,0.0,2.0605,2.0605,2.0605,2.0605,2.0077,1.9287,1.9287,1.875,1.8008,1.8008,1.8008,1.8008,1.8008,1.8008,1.8008,1.8008,1.8008,1.8008,1.8008,1.8008,1.8008,1.8008,1.8008,1.8008,1.8008,1.8395,1.8787,1.8787,1.9464,2.0074,2.0074,1.9299,1.8673,1.8673,1.7206,1.6065,1.6065,1.6065,1.6065,1.6065,1.6443,1.6557,1.6112,1.5661,1.541,1.541,1.5108,1.4717,1.4234,1.3605,1.2697,1.136,1.0895,1.0269,0.9419,0.9263,0.9223,0.933,0.8833,0.8489,0.8253,0.7177,0.6527,2.7833,2.8436,2.8512,2.7996,2.703,2.5695,2.3572,2.2284,2.1167,2.0037,1.9798,1.9798,1.9798,1.9798,1.9987,2.0591,2.1157,2.1849,2.2883,2.4526,2.564,2.5771,0.0,2.5659,2.5068,2.3839,2.3091,2.3091,2.3091,2.3091,2.3091,2.3091,2.3091,2.3091,2.3091,2.3091,2.3091,2.3091,2.3091,2.3091,2.3091,2.2877,2.25,2.208,2.165,2.1171,2.0762,2.0605,0.0,2.0605,2.0605,2.0605,2.0605,2.0077,1.9287,1.9287,1.875,1.8008,1.8008,1.8008,1.8008,1.8008,1.8008,1.8008,1.8008,1.8008,1.8008,1.8008,1.8008,1.8008,1.8008,1.8008,1.8008,1.8008,1.8654,1.9299,1.9299,2.0171,2.0974,2.0974,2.0163,1.9467,1.9467,1.8008,1.6765,1.6521,1.668,1.6765,1.6521,1.7135,1.7413,1.6866,1.6169,1.5642,1.541,1.541,1.5167,1.4599,1.4429,1.3717,1.2228,1.1863,1.1228,1.0228,1.0185,1.018,1.018,0.9753,0.9452,0.9274,0.8027,0.7177,2.6361,2.7281,2.7984,2.7431,2.644,2.5172,2.3484,2.2284,2.1167,2.0037,1.9798,1.9798,1.9798,1.9798,1.9987,2.0591,2.1157,2.2272,2.4462,2.5259,2.6214,0.0,2.7112,2.6267,2.5636,2.4071,2.3091,2.3091,2.3091,0.0,2.3091,2.3091,2.3091,2.3091,2.3091,2.3091,2.3091,2.3091,2.3091,2.3091,2.3091,2.2877,2.25,2.208,2.165,2.1171,2.0762,2.0605,0.0,2.0605,2.0605,2.0605,2.0605,2.0077,1.9287,1.9287,1.875,1.8008,1.8008,1.8008,1.8008,1.8008,1.8008,1.8008,1.8008,1.8008,1.8008,1.8008,1.8008,1.8008,1.8008,1.8008,1.8008,1.8008,1.8654,1.9299,1.9299,2.0655,2.1877,2.1877,2.1051,2.0394,2.0394,1.8831,1.733,1.6595,1.7118,1.733,1.6595,1.7135,1.7605,1.7578,1.6922,1.6179,1.5468,1.541,1.541,1.5381,1.5019,1.462,1.4186,1.3767,1.3246,1.258,1.1715,1.1293,1.1293,1.0493,0.9835,0.9306,0.9274,0.8355,2.4619,2.531,2.5724,2.5172,2.4469,2.3547,2.2297,2.1443,2.0742,1.9962,1.9798,1.9798,1.9798,1.9798,2.0112,2.1106,2.1694,2.2573,2.4054,2.5372,0.0,2.7444,2.7588,2.6903,0.0,0.0,2.392,2.3178,2.3091,2.3091,2.3091,2.3091,2.3091,2.3091,2.3091,2.3091,2.3091,2.3091,2.3091,2.3091,2.2808,2.249,2.207,2.1641,2.1201,2.0771,2.0664,2.0605,2.0605,2.0605,2.0605,2.0605,2.0605,2.0263,1.9678,1.9394,1.8926,1.8364,1.8105,1.8008,1.8008,1.8008,1.8008,1.8008,1.8008,1.8008,1.8008,1.8008,1.8428,1.8754,1.8134,1.8428,1.8877,1.8877,1.9562,2.0365,2.0942,2.1928,2.2621,2.2238,2.1626,2.1048,2.0677,1.9353,1.8274,1.8031,1.8194,1.8274,1.8031,1.8661,1.89,1.8421,1.8151,1.7484,1.6265,1.57,1.541,1.541,1.5283,1.4916,1.4234,1.3892,1.3369,1.2618,1.2318,1.2201,1.2201,1.1571,1.059,0.9306,0.9306,0.8678,2.315,2.3766,2.4073,2.3722,2.3221,2.2556,2.1694,2.1094,2.0528,1.9924,1.9798,1.9798,1.9798,1.9798,2.0024,2.074,2.1493,2.2397,2.3514,0.0,0.0,2.7482,0.0,0.0,0.0,2.5313,2.4798,2.3222,2.3507,2.3551,2.3135,2.3091,2.3091,2.3091,2.3091,2.3091,2.3091,2.3091,2.3091,2.3091,2.2672,2.2295,2.1865,2.1395,2.0986,2.0605,2.0605,2.0605,0.0,2.0605,2.0605,2.0605,2.0605,2.0303,1.9863,1.9443,1.9014,1.8539,1.812,1.8008,1.8008,1.8008,1.8008,1.8008,1.8008,1.8008,1.8008,1.8008,1.8395,1.8754,1.8563,1.8877,1.9365,1.9716,2.0462,2.1239,2.1784,2.2537,2.2945,2.2393,2.187,2.1345,2.0792,1.982,1.9018,1.8741,1.8939,1.9006,1.8741,1.9333,1.9605,1.9176,1.8874,1.834,1.7413,1.6659,1.6144,1.5941,1.6123,1.5792,1.4802,1.4811,1.4449,1.3669,1.3348,1.321,1.321,1.2552,1.1547,1.0243,1.0243,0.9602,0.0,2.2456,2.2869,2.2869,2.2456,2.1945,2.1481,2.1006,0.0,1.9911,1.9798,1.9811,1.9861,1.9823,1.9849,2.0012,2.0916,2.2008,0.0,2.4732,0.0,0.0,2.7797,0.0,2.5886,2.6273,2.5683,2.3517,2.4253,2.4339,2.3256,2.3135,2.3091,2.3091,2.3091,2.3091,2.3091,2.3091,2.3081,2.3042,2.2666,2.2246,2.1826,2.1387,2.0957,0.0,2.0605,2.0605,2.0605,2.0605,2.0605,2.0605,2.0605,2.0312,1.9902,1.9453,1.9033,1.8588,1.8164,1.8008,1.8008,1.8008,1.8008,1.8008,1.8008,1.8008,1.8008,1.8076,1.8144,1.8361,1.9177,1.9431,1.9694,2.0494,2.1302,2.1908,2.197,2.2567,2.2932,2.2343,2.1845,2.1333,2.0729,2.0189,1.9553,1.8874,1.9371,1.9553,1.8874,1.9371,1.9798,1.9798,1.9176,1.8768,1.8768,1.8058,1.7377,1.6904,1.7321,1.7077,1.5865,1.6318,1.6236,1.5497,1.4688,1.4273,1.4213,1.3463,1.2665,1.1888,1.1834,1.0961,1.971,0.0,2.0589,2.0589,2.0161,1.9848,0.0,2.01,1.9962,1.9823,1.9798,1.9936,2.0402,2.01,2.0363,2.2042,2.2543,2.3246,2.4808,2.6465,0.0,2.9252,2.9298,2.8753,2.7615,2.7653,2.7157,2.5808,2.5126,2.466,2.4414,2.3551,2.3091,2.3091,2.3091,2.3091,2.3091,2.3091,2.2935,2.2656,2.2236,2.1807,2.1327,2.0928,2.0703,2.0605,2.0605,2.0605,2.0605,2.0605,2.0605,2.0605,2.0605,2.0537,2.0361,1.957,1.9219,1.9033,1.8271,1.8008,1.8008,1.8008,1.8008,1.8008,1.8008,1.8008,1.8134,1.8821,1.9464,2.0042,2.0236,2.0782,2.1333,2.1565,2.1753,2.2063,2.2702,2.2975,2.2819,2.187,2.1581,2.1167,2.0175,1.9886,1.9747,1.9553,1.9695,1.9747,1.9553,1.9695,1.9798,1.9798,1.9631,1.9527,1.9527,1.834,1.755,1.741,1.7538,1.7478,1.7164,1.7263,1.6996,1.6265,1.5517,1.4815,1.4213,1.3995,1.3515,1.2696,1.2081,1.1578,1.8694,1.9183,1.9798,1.9798,1.9798,1.9786,1.9798,1.9623,1.9421,1.9421,1.9421,1.961,2.0189,2.0264,2.0704,2.2146,2.2782,2.386,0.0,0.0,2.8524,2.9654,2.9792,2.9365,0.0,2.8557,2.8239,2.6637,2.5933,2.5336,2.483,2.3714,2.3091,2.3091,2.3091,2.3091,2.3091,2.3091,2.2886,2.251,2.209,2.165,2.1181,2.0771,2.0605,2.0605,2.0605,2.0605,2.0605,2.0605,2.0605,2.0605,2.0605,2.0478,2.0185,1.9531,1.916,1.8896,1.8232,1.8008,1.8008,1.8008,1.8008,1.8008,1.8008,1.8269,1.8687,1.9177,1.9922,2.0687,2.1101,2.1553,2.2002,2.2353,2.2445,2.2506,2.2693,2.2732,2.2435,2.1358,2.1131,2.0855,1.9949,1.9798,1.9798,1.9798,1.9798,1.9798,1.9798,1.9798,1.9798,1.9798,1.9798,1.9798,1.9798,1.9071,1.8513,1.8263,1.8478,1.8342,1.7752,1.797,1.7605,1.651,1.5777,1.5206,1.4746,1.4746,1.4332,1.3545,1.3114,1.2687,1.8405,1.9058,1.9786,1.971,2.0112,2.0427,1.9911,1.9459,1.9121,1.9121,1.9121,1.9309,1.9949,2.049,0.0,0.0,0.0,0.0,2.718,2.7934,2.8612,2.9666,2.9792,0.0,2.8466,2.9236,2.9,2.7139,2.6842,2.6337,2.5368,2.4092,2.3343,2.3343,2.312,2.3003,2.3003,2.3003,2.2789,2.2412,2.1982,2.1553,2.1123,2.0781,2.0605,2.0605,0.0,0.0,2.0605,2.0605,2.0566,2.0507,2.0576,2.0302,1.9775,1.9424,1.9014,1.8539,1.812,1.8008,1.8008,1.8008,1.8008,1.8008,1.8008,1.8687,1.9497,1.9497,2.0139,2.1005,2.1877,2.2063,2.2261,2.2944,2.3108,2.2957,2.2435,2.2309,2.1983,2.0905,2.0691,2.0515,1.9899,1.9798,1.9798,1.9798,1.9798,1.9798,1.9798,1.9798,1.9798,1.9798,1.9798,1.9798,1.9798,1.9798,1.961,1.9146,1.956,1.9329,1.8226,1.8529,1.8124,1.6866,1.6007,1.5584,1.5584,1.54,1.4993,1.4392,1.418,1.3763,1.8644,1.9346,1.9698,1.9233,1.9547,1.9911,1.9823,1.9748,1.9685,1.9685,1.9685,0.0,0.0,2.1305,2.2008,0.0,0.0,2.7118,0.0,0.0,2.9051,2.9716,0.0,2.974,2.9585,2.9714,2.9663,2.9339,2.8398,2.7763,2.7591,2.5661,2.4542,2.4542,2.3278,2.2607,2.2607,2.2607,2.2402,2.1982,2.1543,2.1103,2.0703,2.0635,2.0605,2.0605,0.0,2.0605,2.0605,2.0605,2.039,2.0049,2.042,2.0126,1.9375,1.9307,1.9014,1.8539,1.812,1.8008,1.8008,1.8008,1.8008,1.8008,1.8008,1.911,2.0398,2.0398,2.1037,2.1877,2.2689,2.2914,2.2944,2.3078,2.3108,2.2957,2.2435,2.2309,2.1983,2.0905,2.0691,2.0515,1.9899,1.9798,1.9798,1.9798,1.9798,1.9798,1.9798,1.9798,1.9798,1.9798,1.9798,1.9798,1.9798,1.9798,1.9761,1.9685,1.9761,1.9709,1.9519,1.8996,1.8581,1.8367,1.7024,1.6322,1.6322,1.536,1.5002,1.5196,1.4169,1.381,1.7591,1.8481,1.9309,1.9058,2.0299,2.1503,2.123,2.0928,2.0715,2.0715,0.0,0.0,0.0,0.0,2.3113,2.5347,0.0,2.8009,2.8775,2.8888,2.9101,0.0,0.0,2.9792,2.9792,2.9792,2.9792,2.9792,2.8727,2.7965,2.768,2.6127,2.4832,2.4011,2.3843,2.3238,2.2178,2.244,2.222,2.1533,2.1288,2.0996,2.0605,2.0605,2.0605,2.0605,0.0,2.0468,2.0215,2.0215,1.9961,1.96,1.9795,1.9492,1.8906,1.8682,1.8467,1.8237,1.8076,1.8008,1.8008,1.8008,1.8008,1.8008,1.8008,1.921,2.059,2.059,2.1542,2.2628,2.3005,2.3108,2.3108,2.3108,2.3108,2.2869,2.2046,2.187,2.1531,2.044,2.02,2.0138,1.9849,1.9798,1.9798,1.9798,1.9798,1.9798,1.9798,1.9798,1.9798,1.9798,1.9798,1.9798,1.9798,1.9798,1.9798,1.9798,1.9798,1.9798,1.9798,1.9097,1.8688,1.8688,1.7633,1.6894,1.6492,1.5974,1.5615,1.5381,1.483,1.4543,1.714,1.8017,1.9033,1.9158,2.0876,2.2493,2.2347,2.1882,2.1556,2.182,0.0,0.0,0.0,2.2887,0.0,2.6537,2.7657,2.8499,2.9013,2.9126,2.9289,2.9741,2.9792,2.9792,2.9792,2.9792,2.9792,2.9792,2.8866,2.8105,2.7695,2.6491,2.5255,2.409,2.4442,2.381,2.2118,2.2393,2.2101,2.119,2.1083,2.0898,2.0605,2.0605,2.0546,2.0449,2.0449,2.0166,1.9766,1.9766,1.9521,1.915,1.9248,1.9023,1.8549,1.8164,1.8008,1.8008,1.8008,1.8008,1.8008,1.8008,1.8008,1.8008,1.8008,1.921,2.059,2.059,2.1803,2.3108,2.3108,2.3108,2.3108,2.3108,2.3108,2.2807,2.1732,2.1493,2.1154,2.0024,1.9798,1.9798,1.9798,1.9798,1.9798,1.9798,1.9798,1.9798,1.9798,1.9798,1.9798,1.9798,1.9798,1.9798,1.9798,1.9798,1.9798,1.9798,1.9798,1.9798,1.9798,1.9254,1.8953,1.8953,1.8221,1.7578,1.7006,1.6731,1.6377,1.5911,1.5699,1.5403,1.8556,1.8907,1.9121,1.9623,2.03,2.1131,2.2083,2.1882,2.1782,2.2782,0.0,0.0,0.0,2.433,2.5975,2.7708,2.8486,2.9026,2.9641,0.0,2.9741,2.9779,2.9792,2.9792,2.9792,2.9792,2.9792,2.9792,2.9213,2.8812,2.8775,2.7276,2.6382,2.6259,2.4937,2.3749,2.2666,2.2234,2.1745,2.119,2.081,2.0635,2.0605,2.0605,2.0342,1.9961,1.9961,1.9727,1.9336,1.9336,1.9072,1.8685,1.9131,1.9023,1.8549,1.8164,1.8008,1.8008,1.8008,1.8008,1.8008,1.8008,1.8008,1.8008,1.8008,1.921,2.059,2.059,2.1803,2.3108,2.3108,2.3108,2.3108,2.3108,2.3108,2.2807,2.1732,2.1493,2.1154,2.0024,1.9798,1.9798,1.9798,1.9798,1.9798,1.9798,1.9798,1.9798,1.9798,1.9798,1.9798,1.9798,1.9798,1.9798,1.9798,1.9798,1.9798,1.9798,1.9798,1.9798,1.9798,1.9747,1.9721,1.9721,1.9006,1.8581,1.8543,1.7478,1.7116,1.7418,1.6547,1.6036,1.789,1.8481,1.9045,1.9246,2.0263,0.0,0.0,2.317,2.3879,2.4971,2.4921,0.0,0.0,0.0,2.66,2.7896,2.8561,2.9126,2.9716,2.9792,2.9792,2.9792,2.9792,2.9792,2.9792,2.9792,2.9641,2.9289,2.9013,2.8599,2.7946,2.7333,2.6578,2.5611,2.5625,2.4833,2.3198,2.3652,2.3431,2.2615,2.1245,2.0895,2.1441,2.0857,2.0322,1.9912,1.9912,1.9521,1.8851,1.8851,1.8598,1.8227,1.8428,1.8389,1.8223,1.8066,1.8008,1.8008,1.8008,1.8361,1.8721,1.8178,1.8371,1.8821,1.8821,1.9661,2.0719,2.127,2.2218,2.3108,2.3108,2.3108,2.3108,2.3108,2.2844,2.2393,2.1656,2.1245,2.0767,1.9962,1.9798,1.9798,1.9798,1.9798,1.9798,1.9798,1.9798,1.9798,1.9798,1.9798,1.9952,2.0371,2.0769,2.083,2.0446,2.0421,2.0245,1.9824,1.9798,1.9798,1.9798,1.9798,1.9798,1.9798,1.9527,1.915,1.8688,1.8275,1.7725,1.7082,1.674,1.6185,1.7639,1.8317,1.9008,1.9008,0.0,0.0,2.3216,2.4178,2.5184,2.6487,2.6489,2.6235,2.6156,0.0,0.0,0.0,2.8423,2.8863,2.944,2.9515,2.9515,2.9515,2.9515,2.9591,2.9779,2.9628,2.9352,2.8913,2.8574,2.8084,2.7318,2.7153,2.6561,2.5523,2.6129,2.5687,2.4,2.4671,2.4636,2.3963,2.2301,2.1669,2.1989,2.1194,2.0411,1.9707,1.9533,1.9065,1.8403,1.8403,1.8237,1.8008,1.8008,1.8008,1.8008,1.8008,1.8008,1.8008,1.8008,1.8553,1.921,1.8586,1.9011,1.9726,1.9726,2.0333,2.1132,2.1721,2.2476,2.3108,2.3108,2.3108,2.3108,2.3108,2.2681,2.2159,2.1606,2.1081,2.0515,1.9911,1.9798,1.9798,1.9798,1.9978,2.0131,2.0131,2.0283,2.0395,2.0395,2.0395,2.057,2.1053,2.1448,2.152,2.1113,2.1088,2.0892,2.0421,2.022,2.0029,1.9798,1.9798,1.9798,1.9798,1.9798,1.9553,1.9044,1.9044,1.8505,1.7479,1.7317,1.6673,1.8204,1.8606,1.9008,1.9008,2.0275,2.2051,2.4002,2.4627,2.531,2.6989,2.7541,2.7646,2.7357,2.7098,0.0,2.7978,2.8097,2.8285,2.8813,2.8888,2.8888,2.8888,2.8888,2.9151,2.9729,2.9252,2.8888,2.8875,2.7896,2.7281,2.7268,2.6788,2.6499,2.6499,2.6499,2.6025,2.5004,2.5004,2.5004,2.5004,2.4,2.2988,2.2006,2.1602,2.0642,1.9294,1.8818,1.8364,1.8008,1.8008,1.8008,1.8008,1.8008,1.8008,1.8008,1.8008,1.8008,1.8008,1.8008,1.8596,1.9299,1.9299,1.989,2.0623,2.0623,2.1239,2.1908,2.1908,2.2476,2.3108,2.3108,2.3108,2.3108,2.3095,2.2681,2.2159,2.1606,2.1069,2.0515,1.9911,1.9798,1.9798,1.9798,2.0359,2.0795,2.0795,2.1318,2.1697,2.1697,2.1697,2.1697,2.1697,2.1697,2.172,2.1697,2.1697,2.1697,2.1697,2.1137,2.0497,1.9824,1.9798,1.9798,1.9798,1.9798,1.9798,1.9798,1.9798,1.9522,1.8983,1.8455,1.7561,1.8204,1.8953,1.9932,2.0829,2.2645,2.4636,2.6091,2.6738,0.0,0.0,2.8965,2.8388,2.7932,2.748,0.0,2.7995,2.777,2.772,2.8273,2.8348,2.8348,2.8348,2.8348,2.8411,2.8586,2.8448,2.8185,2.7795,2.7469,2.7153,2.6763,2.6587,2.6499,2.6499,2.6499,2.6349,2.606,2.606,2.5862,2.5432,2.5135,2.4468,2.3509,2.2675,2.1389,1.9694,1.9561,1.8922,1.8008,1.8008,1.8008,1.8076,1.8654,1.8911,1.8911,1.8911,1.8911,1.8821,1.8202,1.8977,2.0107,1.9497,2.0301,2.1522,2.1522,2.1678,2.2002,2.2567,2.2914,2.3108,2.3108,2.3108,2.3007,2.2619,2.2133,2.1581,2.1056,2.049,2.0012,1.9836,1.9798,1.9952,2.0421,2.0671,2.093,2.1366,2.1592,2.1697,2.1697,2.21,2.2406,2.2406,2.2778,2.2868,2.2452,2.2406,2.2193,2.172,2.152,2.1148,2.0522,2.0055,1.9798,1.9798,2.0245,2.0283,1.9798,1.9896,1.9408,1.8406,1.789,1.7222,1.9092,1.9995,2.1153,2.2904,2.4586,2.6327,2.8398,2.8479,2.849,0.0,2.932,2.8522,2.7905,2.7624,0.0,2.7754,2.7494,2.7394,2.7733,2.777,2.777,2.777,2.777,2.7871,2.8084,2.7908,2.7645,2.7306,2.7115,2.6851,2.6512,2.6499,2.6499,2.6499,2.6499,2.6499,2.6499,2.6273,2.5971,2.5598,2.5385,2.4876,2.4093,2.3139,2.1879,2.0402,2.0243,1.9751,1.9011,1.8654,1.8529,1.8563,1.9077,1.9299,1.9332,1.9694,1.9814,1.9694,1.8821,1.9661,2.0974,2.0107,2.0974,2.2384,2.2384,2.2384,2.2476,2.2944,2.3108,2.3108,2.3108,2.2945,2.2694,2.2397,2.1895,2.1343,2.0817,2.0239,1.9798,1.9798,1.9798,2.0003,2.0671,2.1004,2.1366,2.2007,2.2308,2.2455,2.2455,2.2815,2.3054,2.3054,2.3377,2.3465,2.3076,2.3054,2.2781,2.2149,2.2112,2.1815,2.1195,2.076,2.0533,2.0533,2.0966,2.0835,2.0195,2.0287,1.9598,1.8198,1.7875,1.7282,2.045,2.1454,2.257,2.5078,2.6274,2.7637,3.0557,2.9905,2.8864,2.9528,0.0,2.8441,2.7649,2.7717,2.7799,2.7462,2.743,2.744,2.7347,2.7347,2.7311,2.7241,2.7241,2.7406,2.7908,2.7507,2.7241,2.7241,2.6776,2.6499,2.6499,2.6499,2.6499,2.6499,2.6449,2.6411,2.6411,2.5812,2.5498,2.5448,2.4971,2.4424,2.3885,2.313,2.2259,2.1251,2.0781,2.059,2.0526,1.9759,1.9431,1.9431,1.9497,1.9529,1.9628,2.043,2.0719,2.059,1.9726,2.0526,2.1784,2.0974,2.1803,2.3108,2.3108,2.3108,2.3108,2.3108,2.307,2.3032,2.3032,2.2619,2.2221,2.2171,2.1782,2.1295,2.0729,2.0201,1.9798,1.9798,1.9798,2.0029,2.0771,2.1342,2.1946,2.2672,2.3246,2.3595,2.3595,2.3595,2.3595,2.3595,2.3595,2.358,2.352,2.3565,2.331,2.2643,2.2666,2.2401,2.1722,2.1703,2.1697,2.1697,2.1702,2.1412,2.0809,2.073,1.9879,1.8253,1.8221,1.7639,2.0043,2.1811,2.3987,2.6517,2.8793,3.0571,3.1293,3.0652,3.023,3.1316,3.0788,2.9895,2.9105,2.9167,2.9092,2.835,2.8452,2.8402,2.77,2.76,2.7377,2.6732,2.6675,2.6713,2.6839,2.6738,2.6675,2.6675,2.6562,2.6499,2.6499,2.6499,2.6499,2.6499,2.6047,2.5787,2.5787,2.5259,2.477,2.4343,2.423,2.3866,2.3308,2.3592,2.2999,2.1717,2.0924,2.059,2.059,2.0398,2.0333,2.0398,2.1069,2.1333,2.1365,2.1553,2.1616,2.1491,2.0623,2.1005,2.1877,2.169,2.2279,2.3108,2.3108,2.3108,2.3108,2.3108,2.2794,2.2456,2.2456,2.2083,2.1556,2.1157,2.0955,2.0717,2.0112,1.9886,1.9798,1.9798,1.9798,2.0156,2.1304,2.1615,2.2086,2.3231,2.3508,2.3595,2.3595,2.3595,2.3595,2.3595,2.3595,2.34,2.2942,2.3325,2.3116,2.1999,2.2414,2.2411,2.1737,2.1705,2.1697,2.1697,2.1705,2.1409,2.0809,2.0331,1.9627,1.8732,1.8317,1.799,2.0549,2.2339,2.453,2.7765,3.0045,3.1511,3.1511,3.119,3.1057,3.1687,3.0761,2.9712,2.9281,2.9321,2.9278,2.8808,2.8876,2.8844,2.8395,2.833,2.8019,2.7162,2.7061,2.6905,2.6521,2.6499,2.6499,2.6499,2.6499,2.6499,2.6499,2.6499,2.6361,2.6084,2.5749,2.5473,2.5222,2.4695,2.4293,2.4004,2.3715,2.3396,2.3108,2.3421,2.317,2.2445,2.199,2.1803,2.1772,2.1396,2.1239,2.127,2.1721,2.1908,2.1939,2.2322,2.2476,2.2353,2.1522,2.1772,2.2414,2.2044,2.2274,2.2757,2.302,2.2732,2.2397,2.2631,2.2347,2.192,2.192,2.1506,2.1043,2.0767,2.0691,2.0528,1.9924,1.9798,1.9798,1.9798,1.9798,2.0207,2.1482,2.2225,2.2831,2.3508,2.3595,2.3595,2.3595,2.3595,2.3595,2.3595,2.3595,2.3475,2.3167,2.3152,2.2742,2.1754,2.2044,2.1919,2.1261,2.1516,2.1707,2.1707,2.201,2.1705,2.0747,2.0438,1.9812,1.8883,1.8599,1.8361,2.0983,2.2861,2.5063,2.8696,3.0477,3.1361,3.1481,3.1511,3.1511,3.1511,3.0389,2.938,2.9254,2.9348,2.938,2.9254,2.9348,2.938,2.9254,2.9223,2.8907,2.8019,2.792,2.767,2.7007,2.6939,2.6871,2.6714,2.6714,2.6658,2.6499,2.6399,2.6122,2.5611,2.5423,2.5109,2.4682,2.413,2.3853,2.3841,2.3333,2.3108,2.3108,2.3108,2.3108,2.3108,2.3108,2.3108,2.3047,2.2384,2.2094,2.2094,2.2094,2.2094,2.2187,2.2854,2.3108,2.3005,2.2353,2.2537,2.2975,2.2322,2.22,2.2397,2.2832,2.2284,2.1581,2.2046,2.1769,2.1343,2.1343,2.0968,2.0541,2.0541,2.0541,2.0415,1.9911,1.9798,1.9798,1.9798,1.9965,2.0471,2.1506,2.2764,2.3595,2.3595,2.3595,2.3595,2.3595,2.3595,2.3595,2.3595,2.3595,2.355,2.3445,2.3002,2.2358,2.1575,2.153,2.1231,2.0572,2.1171,2.147,2.135,2.2014,2.1879,2.0868,2.0628,2.0023,1.9043,1.9043,1.8798,1.997,2.3219,2.6768,2.9041,3.0118,3.0806,3.1376,3.1511,3.1511,0.0,3.1322,3.097,3.0238,3.0703,3.094,3.0238,3.0703,3.0925,3.0238,3.0133,2.9797,2.8939,2.8844,2.878,2.8684,2.8684,2.833,2.7604,2.7537,2.7229,2.6521,2.6021,2.5674,2.5598,2.4695,2.418,2.4104,2.3509,2.3221,2.3221,2.3145,2.3108,2.3108,2.3108,2.3108,2.3108,2.3108,2.3108,2.3078,2.2975,2.2944,2.2944,2.2944,2.2944,2.2944,2.3078,2.3108,2.3065,2.2975,2.3017,2.3065,2.2975,2.2643,2.2293,2.2397,2.1983,2.1506,2.1581,2.1232,2.0805,2.0805,2.0377,1.9911,1.9911,1.9911,1.9899,1.9823,1.9798,1.9798,1.9798,2.0682,2.1506,2.1673,2.2764,2.3595,2.3595,2.3595,2.3595,2.3595,2.3595,2.3595,2.3595,2.3595,2.3385,2.2868,2.2748,2.2179,2.0897,2.0823,2.0543,1.9872,2.0483,2.0557,1.9992,2.0632,2.1171,2.156,2.0393,1.9761,1.9584,1.9584,1.9548,2.0485,2.3259,2.5974,2.7989,2.8951,2.9699,3.0703,3.0928,3.0928,3.0928,3.0928,3.0962,3.0955,3.1248,3.138,3.1029,3.1278,3.138,3.1029,3.097,3.0644,2.9827,2.9721,2.9535,2.9066,2.8667,2.8273,2.7908,2.7155,2.6536,2.6194,2.5534,2.5021,2.4707,2.4243,2.3841,2.3484,2.3233,2.3108,2.3108,2.3108,2.3108,2.3108,2.3108,2.3108,2.3108,2.3108,2.3108,2.3108,2.3108,2.3108,2.3108,2.3108,2.3108,2.3108,2.3108,2.3108,2.3108,2.3108,2.3108,2.3108,2.3108,2.2518,2.1907,2.2221,2.1481,2.0614,2.0968,2.0654,2.0214,2.0214,1.9987,1.9798,1.9798,1.9798,1.9798,1.9798,1.9798,1.9798,1.9798,2.083,2.1697,2.1697,2.2764,2.3595,2.3595,2.3595,2.3595,2.3595,2.3595,2.3595,2.3595,2.3595,2.349,2.3242,2.2897,2.2448,2.1859,2.1126,2.0554,2.0273,2.0183,2.0183,2.0258,2.0557,2.0662,2.0572,1.9992,1.9708,1.9708,1.9708,1.9708,2.0507,2.2497,2.4335,2.6333,2.7455,2.8427,2.9714,0.0,3.0268,0.0,3.0268,3.0417,3.0913,3.1137,3.1241,3.1241,3.1391,3.1511,3.1511,3.1511,3.1278,3.0673,3.0614,3.0287,2.9464,2.8935,2.8477,2.8096,2.7097,2.6415,2.6201,2.5535,2.4897,2.4302,2.4149,2.3748,2.3108,2.3108,2.3108,2.3108,2.3108,2.3108,2.3108,2.3108,2.3108,2.3108,2.3108,2.3108,2.3108,2.3108,2.3108,2.3108,2.3108,2.302,2.2907,2.3058,2.3007,2.292,2.3058,2.3007,2.292,2.3058,2.2297,2.1408,2.1933,2.1029,1.9886,2.0352,2.0137,1.9798,1.9798,1.9798,1.9798,1.9798,1.9798,1.9798,1.9798,1.9927,2.0055,2.0055,2.1075,2.1946,2.1946,2.2868,2.3595,2.3595,2.3595,2.3595,2.3595,2.3595,2.3595,2.3595,2.3595,2.3595,2.3595,2.3062,2.2703,2.2703,2.1712,2.1046,2.0862,2.0497,2.039,2.059,2.0605,2.0384,1.9944,1.9783,1.9708,1.9708,1.9803,1.9856,1.9044,2.0515,2.2323,2.4276,2.5749,2.7051,2.8382,0.0,2.9651,2.9651,2.9651,2.9666,2.9696,3.0163,3.0552,3.0552,3.1077,3.1511,3.1511,3.1511,3.1467,3.1438,3.1438,3.1155,3.0499,3.0395,2.9776,2.8397,2.8226,2.7809,2.6973,2.6437,2.5785,2.5073,2.4534,2.3894,2.3108,2.3108,2.3108,2.3108,2.3108,2.3108,2.3108,2.3108,2.3108,2.3108,2.3108,2.3108,2.3108,2.3108,2.3108,2.3108,2.3108,2.2782,2.2393,2.2907,2.2782,2.2393,2.292,2.2757,2.2447,2.2932,2.2033,2.0842,2.1395,2.0727,1.9811,1.9836,1.9823,1.9798,1.9798,1.9798,1.9798,1.9798,1.9798,1.9798,1.9798,2.0295,2.0759,2.0759,2.1775,2.2649,2.2649,2.3187,2.3595,2.3595,2.3595,2.3595,2.3595,2.3595,2.3595,2.3595,2.3595,2.3595,2.3595,2.3062,2.2703,2.2703,2.2458,2.2,2.1314,2.1728,2.1445,2.0342,2.0309,2.0421,2.0643,2.0004,1.9708,1.9708,2.0089,2.0263,1.892,2.007,2.144,2.2996,2.4029,2.5031,2.6378,2.7515,2.8319,2.8319,2.8678,2.8816,2.8408,2.9202,2.9909,2.9909,3.0447,3.0866,3.0866,3.1227,3.1511,3.1511,3.1511,3.1241,3.0567,3.0148,2.9516,2.8564,2.7663,2.7009,2.6706,2.6064,2.556,2.5305,2.4658,2.4147,2.3884,2.3365,2.3365,2.3855,2.3335,2.3108,2.3108,2.3108,2.2907,2.2581,2.2581,2.2581,2.2606,2.2957,2.2895,2.2581,2.2581,2.2456,2.2297,2.2133,2.2184,2.2284,2.2133,2.2184,2.2255,2.2133,2.1443,2.0729,2.093,2.044,1.9798,1.9798,1.9798,1.9798,1.9798,1.9798,1.9798,1.9798,1.9798,1.9927,2.0359,2.0622,2.0906,2.1293,2.2091,2.2694,2.2694,2.3187,2.3595,2.3595,2.3595,2.3595,2.3595,2.3595,2.3595,2.3595,2.3595,2.3595,2.3595,2.3385,2.3287,2.3287,2.3136,2.2921,2.2654,2.2766,2.2384,2.1463,2.1463,2.0994,2.0049,1.9828,1.9821,2.0089,2.0229,2.0466,1.8851,0.0,2.0692,2.2044,2.2673,2.337,2.4903,2.5959,2.6707,2.718,2.763,2.7859,2.7645,2.8334,2.9007,2.922,2.9789,3.0193,3.0193,3.0597,3.0853,3.0853,3.0853,3.0612,2.9939,2.949,2.8981,2.8308,2.7402,0.0,2.6878,2.6402,2.6027,2.5783,2.5035,2.4681,2.4681,2.4134,2.4018,2.4292,2.3544,2.3073,2.2832,2.2644,2.2355,2.2033,2.2033,2.2133,2.2334,2.2681,2.2719,2.2543,2.2355,2.2196,2.1995,2.1619,2.1606,2.1732,2.1556,2.1606,2.1732,2.1543,2.1006,2.044,2.0629,2.0289,1.9798,1.9798,1.9798,1.9798,1.9798,1.9798,1.9798,1.9798,1.9798,2.0042,2.0917,2.1088,2.1283,2.1899,2.2552,2.3009,2.3009,2.3319,2.3595,2.3595,2.3595,2.3595,2.3595,2.3595,2.3595,2.3595,2.3595,2.3595,2.3595,2.3595,2.3505,2.3295,2.3747,2.3798,2.3324,2.3747,2.3602,2.2718,2.2443,2.1724,2.0512,2.0262,2.0193,2.0314,2.0601,2.091,0.0,0.0,0.0,0.0,0.0,0.0,2.4051,0.0,2.4918,2.6243,2.6512,2.6761,2.742,2.754,2.7764,2.8427,2.9101,2.9577,2.9577,2.9592,2.9606,2.9606,2.9606,2.9352,2.8667,2.8607,2.8308,2.7645,2.76,2.76,2.76,2.76,2.7255,2.6537,2.581,2.5412,2.5398,2.537,2.4994,2.4284,2.3689,2.3033,2.2317,2.1788,2.1536,2.1483,2.1511,2.1826,2.2259,2.2284,2.2556,2.2982,2.2443,2.1933,2.1455,2.1443,2.1131,2.0767,2.1282,2.1131,2.0779,2.1307,2.069,1.9911,2.049,2.025,1.9798,1.9798,1.9798,1.9798,1.9798,1.9798,1.9824,1.9798,1.9837,2.0156,2.1435,2.1697,2.1899,2.2589,2.3201,2.3595,2.3595,2.3595,2.3595,2.3595,2.3595,2.3595,2.3595,2.3595,2.3595,2.3595,2.3595,2.3595,2.3616,2.3595,2.3362,2.2783,2.4288,2.4593,2.3213,2.4747,2.5093,2.3968,2.3175,2.254,2.2115,2.1375,2.0764,2.0365,2.1212,2.1612,1.8746,0.0,0.0,0.0,0.0,0.0,0.0,0.0,2.3445,2.4253,2.4822,2.5352,2.6033,2.6153,2.6363,2.7036,2.8113,2.8876,2.8876,2.928,2.9606,2.9606,2.9606,2.9352,2.8667,2.8607,2.8308,0.0,2.76,2.76,2.76,2.76,2.7255,2.6537,2.6283,2.5975,2.5479,2.4949,2.4607,2.4423,2.3722,2.3297,2.3098,2.2924,2.2392,2.1602,2.2098,2.1865,2.1182,2.1556,2.1568,2.1358,2.1207,2.1056,2.0867,2.0426,2.0465,2.0654,2.0363,2.0465,2.0641,2.0351,2.0062,1.9823,1.9987,1.9924,1.9798,1.9798,1.9798,1.9798,1.9798,2.0156,2.0396,1.9927,2.0182,2.0733,2.1544,2.1697,2.2039,2.3143,2.3486,2.3595,2.3595,2.3595,2.3595,2.3595,2.3595,2.3595,2.3595,2.3595,2.3595,2.3595,2.3595,2.3752,2.4158,2.3815,2.3676,2.3933,2.4721,2.5026,2.4641,2.576,2.5999,2.5143,2.4403,2.3512,2.2523,2.1504,2.1086,2.1259,2.184,2.2106,0.0,0.0,0.0,0.0,0.0,0.0,2.0991,2.15,2.2113,0.0,2.3744,2.438,2.5053,2.5397,2.5734,2.6123,2.7066,2.7859,2.8128,2.8528,2.8768,2.8768,2.8768,2.8618,2.8229,2.8173,2.8034,2.763,2.76,2.76,2.76,2.76,2.7274,2.6561,2.6535,2.6213,2.5555,2.5128,2.4765,2.4492,2.3826,2.3351,2.3059,2.2798,2.2321,2.1672,2.2054,2.1783,2.1132,2.1446,2.1377,2.1033,2.1049,2.0919,2.0643,2.0348,2.0271,2.0289,1.9924,2.0024,2.0277,1.9911,1.9798,1.9798,1.9798,1.9798,1.9798,1.9798,1.9798,1.9798,1.9798,2.0295,2.0696,2.0295,2.0708,2.1355,2.1983,2.2123,2.24,2.3406,2.3595,2.3595,2.3595,2.3595,2.3595,2.3595,2.3595,2.3595,2.3595,2.3595,2.3595,2.3595,2.3794,2.4053,2.4369,2.4307,2.4286,2.4308,2.508,2.5394,2.5121,2.6148,2.6488,2.6065,2.5321,2.4467,2.3444,2.217,2.166,2.1899,2.2163,2.2296,0.0,0.0,0.0,0.0,0.0,0.0,2.1231,2.1081,2.1051,0.0,2.2892,2.349,2.4156,2.4754,2.5196,2.527,2.5824,2.6566,2.7375,2.754,2.76,2.76,2.76,2.76,2.76,2.76,2.76,2.76,2.76,2.76,2.76,2.7525,2.7225,2.6617,2.6512,2.6168,2.551,2.5495,2.513,2.4375,2.3922,2.335,2.2697,2.215,2.1862,2.1805,2.1885,2.1815,2.1697,2.1781,2.1691,2.1532,2.159,2.1238,2.0714,2.0781,2.0421,1.9901,1.9901,1.9901,1.9901,1.9901,1.985,1.9798,1.9798,1.985,1.9901,1.9901,1.985,1.9824,1.9901,2.0396,2.0894,2.0894,2.1366,2.1969,2.2581,2.2694,2.2875,2.3486,2.3595,2.3595,2.3595,2.3595,2.3595,2.3595,2.3595,2.3595,2.3595,2.3595,2.3595,2.3595,2.4074,2.443,2.4491,2.493,2.4967,2.4434,2.5419,2.5734,2.5141,2.6135,2.6691,2.6691,2.5981,2.5236,2.4491,2.3173,2.2499,2.2415,2.2415,2.2381,2.1352,0.0,0.0,0.0,0.0,0.0,2.0292,2.0408,2.0763,0.0,2.1181,2.1465,2.2143,2.2368,2.2637,2.3182,2.3774,2.4792,2.6566,2.727,2.76,2.76,2.76,2.76,2.76,2.76,2.76,2.76,2.76,2.76,2.76,2.7091,2.6746,2.6587,2.6078,2.5457,2.4799,2.4799,2.4447,2.377,2.3674,2.3533,2.3408,2.3275,2.2972,2.2521,2.3017,2.2651,2.1744,2.2276,2.217,2.1667,2.1667,2.1298,2.0792,2.0799,2.0721,2.0597,2.0597,2.0597,2.0597,2.0597,2.0245,1.9798,1.9798,2.0182,2.0597,2.0597,2.0232,1.9927,2.0446,2.1064,2.152,2.152,2.203,2.2543,2.2672,2.2694,2.2875,2.3486,2.3595,2.3595,2.3595,2.3595,2.3595,2.3595,2.3595,2.3595,2.3595,2.3595,2.3595,2.3595,2.4074,2.4556,2.5008,2.5144,2.5344,2.562,2.5877,2.5947,2.5799,2.6386,2.6691,2.6691,2.5981,2.5236,2.4491,2.4203,2.378,2.319,2.319,2.2868,2.1889,0.0,0.0,2.1291,0.0,0.0,0.0,2.0198,2.0303,2.0628,2.0703,2.0897,2.1575,2.1695,2.1799,2.2164,2.2748,2.3511,2.4515,2.5764,2.6587,2.6587,2.6587,2.6722,2.7076,2.7106,2.724,2.757,2.76,2.76,2.76,2.6971,2.6437,2.6108,2.5442,2.4769,2.4096,2.4096,2.3939,2.3595,2.3595,2.3595,2.3595,2.3595,2.3443,2.3179,2.3465,2.3238,2.2674,2.2995,2.295,2.2628,2.2308,2.1819,2.1293,2.1619,2.1547,2.1245,2.1245,2.1245,2.1245,2.1245,2.1026,2.0756,2.0756,2.0977,2.1186,2.0894,2.0782,2.0756,2.0795,2.15,2.2193,2.2193,2.2703,2.3143,2.3143,2.3143,2.3246,2.353,2.3595,2.3595,2.3595,2.3595,2.3595,2.3595,2.3595,2.3595,2.3595,2.3595,2.3595,2.3595,2.4307,2.491,2.5182,2.5654,2.6052,2.6332,2.6349,2.6349,2.6349,2.6573,2.6691,2.6691,2.6336,2.5964,2.5608,2.5608,2.5032,2.3949,2.3577,2.319,0.0,0.0,0.0,0.0,0.0,2.1122,0.0,0.0,0.0,2.0423,2.0494,0.0,0.0,0.0,0.0,0.0,0.0,0.0,0.0,2.3774,0.0,2.5352,2.5397,2.5674,2.6333,2.6288,2.6482,2.7165,2.7106,2.7091,2.721,2.6572,2.5974,2.5412,2.4754,2.4141,2.361,2.3595,2.3595,2.3595,2.3595,2.3595,2.3595,2.3595,2.3595,2.3595,2.3595,2.3595,2.3595,2.3595,2.3595,2.3551,2.3054,2.246,2.1946,2.2498,2.2346,2.1899,2.1899,2.1899,2.1899,2.1899,2.1805,2.172,2.1852,2.1805,2.1639,2.1272,2.1414,2.1615,2.1272,2.1941,2.2717,2.2867,2.3246,2.3595,2.3595,2.3595,2.3595,2.3595,2.3595,2.3595,2.3595,2.3595,2.3595,2.3595,2.3595,2.3595,2.3595,2.3595,2.3595,2.3595,2.4572,2.5202,2.5202,2.6123,2.6691,2.6691,2.6691,2.6691,2.6691,2.6691,2.6691,2.6691,2.6691,2.6691,2.6691,2.6691,2.5998,2.4694,2.4086,2.3663,0.0,0.0,0.0,0.0,2.2921,0.0,0.0,0.0,2.0453,1.9914,0.0,0.0,0.0,0.0,0.0,0.0,0.0,0.0,2.0932,2.1635,2.2787,2.4515,2.4709,2.4978,2.5659,2.5173,2.5098,2.5779,2.5277,2.5187,2.5809,2.5187,2.4784,2.4724,2.4073,2.3684,2.3595,2.3595,2.3595,2.3595,2.3595,2.3595,2.3595,2.3595,2.3595,2.3595,2.3595,2.3595,2.3595,2.3595,2.3595,2.3595,2.353,2.312,2.2603,2.2672,2.2649,2.2603,2.2603,2.2603,2.2603,2.2603,2.217,2.1805,2.2406,2.217,2.1805,2.2337,2.2114,2.1828,2.236,2.2581,2.283,2.3377,2.3551,2.3595,2.3595,2.3595,2.3595,2.3595,2.3595,2.3595,2.3595,2.3595,2.3595,2.3595,2.3595,2.3595,2.3595,2.3595,2.3595,2.3595,2.4572,2.5202,2.5202,2.6123,2.6691,2.6691,2.6691,2.6691,2.6691,2.6691,2.6691,2.6691,2.6691,2.6691,2.6691,2.6691,2.6285,2.5473,2.5389,2.4661,0.0,0.0,0.0,0.0,0.0,0.0,2.0707,0.0,2.0154,0.0,0.0,0.0,0.0,0.0,0.0,0.0,1.9947,0.0,0.0,0.0,2.1126,0.0,0.0,0.0,2.4343,2.453,2.4874,2.5555,2.4978,2.4889,2.557,2.4963,2.4605,2.4605,2.3954,2.3595,2.3595,2.3595,2.3595,2.3595,2.3595,2.3595,2.3595,2.3595,2.3595,2.3595,2.3595,2.3595,2.3595,2.3595,2.3595,2.3595,2.3595,2.3443,2.3209,2.3209,2.3209,2.3209,2.3209,2.3209,2.3209,2.3209,2.3039,2.2868,2.3143,2.3017,2.2801,2.2717,2.2748,2.2801,2.2717,2.2965,2.329,2.353,2.3595,2.3595,2.3595,2.3595,2.3595,2.3595,2.3595,2.3595,2.3595,2.3595,2.3595,2.3595,2.3595,2.3595,2.3595,2.3595,2.3595,2.3595,2.4572,2.5202,2.5202,2.6123,2.6691,2.6691,2.6691,2.6691,2.6691,2.6691,2.6691,2.6691,2.6691,2.6691,2.6691,2.6691,2.6539,2.6234,2.5812,2.527,2.6273,0.0,0.0,0.0,0.0,0.0,0.0,0.0,0.0,0.0,0.0,0.0,0.0,0.0,0.0,0.0,0.0,1.9899,0.0,1.9708,0.0,0.0,0.0,0.0,0.0,2.3349,2.3812,2.4492,2.3902,2.3902,2.4762,2.4335,2.4156,2.4321,2.3864,2.3595,2.3595,2.3595,2.3595,2.3595,2.3595,2.3595,2.3595,2.3595,2.3595,2.3595,2.3595,2.3595,2.3595,2.3595,2.3595,2.3595,2.3595,2.3595,2.3595,2.3595,2.3595,2.3595,2.3595,2.3595,2.3595,2.3595,2.3595,2.3595,2.3595,2.3595,2.3508,2.3054,2.3268,2.3508,2.3054,2.3275,2.3595,2.3595,2.3595,2.3595,2.3595,2.3595,2.3595,2.3595,2.3595,2.3595,2.3595,2.3595,2.3595,2.3595,2.3595,2.3595,2.3595,2.3595,2.3595,2.3595,2.4572,2.5202,2.5202,2.6123,2.6691,2.6691,2.6691,2.6691,2.6691,2.6691,2.6691,2.6691,2.6691,2.6691,2.6691,2.6691,2.6691,2.6691,2.615,2.5693,0.0,0.0,0.0,2.4253,0.0,0.0,0.0,0.0,2.1455,0.0,0.0,0.0,0.0,0.0,0.0,0.0,0.0,0.0,0.0,0.0,0.0,0.0,0.0,0.0,0.0,2.1201,2.1092,0.0,2.1196,2.141,2.2718,2.2763,2.3032,2.361,2.361,2.3595,2.3595,2.3595,2.3595,2.3595,2.3595,2.3595,2.3595,2.3595,2.3595,2.3595,2.3595,2.3595,2.3595,2.3595,2.3595,2.3595,2.3595,2.3595,2.3595,2.3595,2.3595,2.3595,2.3595,2.3595,2.3595,2.3595,2.3595,2.3595,2.3595,2.3595,2.3595,2.3573,2.3588,2.3595,2.3573,2.3588,2.3595,2.3595,2.3595,2.3595,2.3595,2.3595,2.3595,2.3595,2.3595,2.3595,2.3595,2.3595,2.3595,2.3595,2.3595,2.3595,2.3595,2.3595,2.3595,2.3595,2.4572,2.5202,2.5202,2.6123,2.6691,2.6691,2.6691,2.6691,2.6691,2.6691,2.6691,2.6691,2.6691,2.6691,2.6691,2.6691,2.6691,2.6691,2.6674,2.5912,0.0,0.0,2.7165,2.5375,0.0,0.0,0.0,0.0,0.0,0.0,0.0,0.0,0.0,0.0,0.0,0.0,0.0,0.0,0.0,0.0,0.0,0.0,0.0,0.0,0.0,0.0,0.0,2.165,2.1341,0.0,2.3099,2.3131,2.3402,2.4122,2.4137,2.4137,2.4137,2.4137,2.4137,2.4137,2.4137,2.4137,2.4137,2.4491,2.4657,2.4657,2.4657,2.4657,2.4617,2.4266,2.4348,2.4592,2.3879,2.3815,2.4095,2.373,2.3595,2.3595,2.3595,2.3595,2.3595,2.3595,2.3595,2.3595,2.3595,2.3595,2.3595,2.3595,2.3595,2.3595,2.3595,2.3595,2.3595,2.3595,2.3595,2.3595,2.3595,2.3595,2.3595,2.3595,2.3595,2.3595,2.3595,2.3595,2.3595,2.3595,2.3595,2.3595,2.3595,2.3595,2.3595,2.3595,2.4225,2.4796,2.5182,2.6123,2.6691,2.6691,2.6691,2.6691,2.6691,2.6691,2.6691,2.6691,2.6691,2.6691,2.6691,2.6691,2.6691,2.6691,2.6691,2.6167,2.76,2.76,0.0,2.5929,2.4956,0.0,2.2398,0.0,2.2547,0.0,0.0,0.0,0.0,0.0,0.0,0.0,0.0,0.0,0.0,1.9708,0.0,0.0,0.0,0.0,0.0,2.0481,2.0739,2.1163,2.119,0.0,0.0,2.3111,2.3565,2.4276,2.4547,2.4677,2.4677,2.4677,2.4677,2.4677,2.4677,2.4677,2.4712,2.5047,2.5202,2.5202,2.5202,2.5202,2.5182,2.4831,2.4891,2.5128,2.443,2.4369,2.4612,2.3879,2.3595,2.3638,2.3815,2.3752,2.3638,2.3815,2.3767,2.3595,2.3595,2.3595,2.3595,2.3595,2.3595,2.3595,2.3595,2.3595,2.3595,2.3595,2.3595,2.3595,2.3595,2.3595,2.3595,2.3595,2.3595,2.3595,2.3595,2.3752,2.3815,2.3638,2.3595,2.3595,2.3595,2.3595,2.3595,2.3595,2.4246,2.4973,2.5672,2.6333,2.6691,2.6691,2.6691,2.6691,2.6691,2.6691,2.6691,2.6691,2.6691,2.6691,2.6691,2.6691,2.6691,2.6691,2.6691,2.6302]}]]